| time (UTC) | temp F | wind direction | speed MPH | gust MPH | rain 1hr in | rain 24hr in | rain mn in | humidity % | barometer mb |
| 20260507130618 | 45 | 287 | 6.0 | 10.0 | 0.00 | 0.00 | 0.00 | 65 | 1015.4 |
| 20260507130529 | 45 | 248 | 6.0 | 10.0 | 0.00 | 0.00 | 0.00 | 65 | 1015.4 |
| 20260507130358 | 45 | 263 | 5.0 | 10.0 | 0.00 | 0.00 | 0.00 | 67 | 1015.5 |
| 20260507130311 | 45 | 238 | 4.0 | 10.0 | 0.00 | 0.00 | 0.00 | 67 | 1015.4 |
| 20260507130221 | 45 | 271 | 4.0 | 10.0 | 0.00 | 0.00 | 0.00 | 69 | 1015.4 |
| 20260507130110 | 45 | 252 | 4.0 | 10.0 | 0.00 | 0.00 | 0.00 | 68 | 1015.4 |
| 20260507130046 | 45 | 243 | 5.0 | 10.0 | 0.00 | 0.00 | 0.00 | 68 | 1015.4 |
| 20260507125936 | 44 | 289 | 6.0 | 10.0 | 0.00 | 0.00 | 0.00 | 69 | 1015.4 |
| 20260507125806 | 44 | 255 | 5.0 | 10.0 | 0.00 | 0.00 | 0.00 | 69 | 1015.4 |
| 20260507125716 | 44 | 302 | 5.0 | 9.0 | 0.00 | 0.00 | 0.00 | 69 | 1015.4 |
| 20260507125608 | 44 | 304 | 5.0 | 9.0 | 0.00 | 0.00 | 0.00 | 69 | 1015.3 |
| 20260507125457 | 44 | 299 | 4.0 | 9.0 | 0.00 | 0.00 | 0.00 | 70 | 1015.4 |
| 20260507125408 | 44 | 280 | 4.0 | 9.0 | 0.00 | 0.00 | 0.00 | 70 | 1015.3 |
| 20260507125318 | 44 | 280 | 5.0 | 9.0 | 0.00 | 0.00 | 0.00 | 70 | 1015.3 |
| 20260507125229 | 44 | 286 | 6.0 | 9.0 | 0.00 | 0.00 | 0.00 | 70 | 1015.3 |
| 20260507125140 | 44 | 249 | 6.0 | 9.0 | 0.00 | 0.00 | 0.00 | 70 | 1015.4 |
| 20260507125054 | 44 | 272 | 5.0 | 9.0 | 0.00 | 0.00 | 0.00 | 70 | 1015.3 |
| 20260507124945 | 44 | 250 | 5.0 | 9.0 | 0.00 | 0.00 | 0.00 | 70 | 1015.3 |
| 20260507124855 | 44 | 311 | 4.0 | 9.0 | 0.00 | 0.00 | 0.00 | 70 | 1015.4 |
| 20260507124746 | 44 | 292 | 3.0 | 6.0 | 0.00 | 0.00 | 0.00 | 71 | 1015.3 |
| 20260507124635 | 44 | 261 | 3.0 | 8.0 | 0.00 | 0.00 | 0.00 | 72 | 1015.4 |
| 20260507124559 | 44 | 263 | 3.0 | 8.0 | 0.00 | 0.00 | 0.00 | 71 | 1015.3 |
| 20260507124408 | 44 | 275 | 3.0 | 8.0 | 0.00 | 0.00 | 0.00 | 72 | 1015.2 |
| 20260507124319 | 44 | 258 | 3.0 | 8.0 | 0.00 | 0.00 | 0.00 | 73 | 1015.3 |
| 20260507124208 | 44 | 288 | 3.0 | 8.0 | 0.00 | 0.00 | 0.00 | 73 | 1015.3 |
| 20260507124058 | 44 | 280 | 3.0 | 8.0 | 0.00 | 0.00 | 0.00 | 73 | 1015.3 |
| 20260507124009 | 44 | 284 | 4.0 | 8.0 | 0.00 | 0.00 | 0.00 | 74 | 1015.3 |
| 20260507123904 | 44 | 324 | 4.0 | 8.0 | 0.00 | 0.00 | 0.00 | 74 | 1015.3 |
| 20260507123815 | 44 | 258 | 4.0 | 8.0 | 0.00 | 0.00 | 0.00 | 75 | 1015.3 |
| 20260507123705 | 44 | 281 | 4.0 | 8.0 | 0.00 | 0.00 | 0.00 | 74 | 1015.2 |
| 20260507123617 | 44 | 286 | 4.0 | 8.0 | 0.00 | 0.00 | 0.00 | 74 | 1015.3 |
| 20260507123526 | 44 | 275 | 3.0 | 7.0 | 0.00 | 0.00 | 0.00 | 75 | 1015.2 |
| 20260507123357 | 43 | 261 | 4.0 | 7.0 | 0.00 | 0.00 | 0.00 | 75 | 1015.2 |
| 20260507123308 | 43 | 306 | 3.0 | 7.0 | 0.00 | 0.00 | 0.00 | 76 | 1015.2 |
| 20260507123219 | 43 | 279 | 2.0 | 7.0 | 0.00 | 0.00 | 0.00 | 76 | 1015.2 |
| 20260507123130 | 43 | 260 | 2.0 | 7.0 | 0.00 | 0.00 | 0.00 | 75 | 1015.3 |
| 20260507123037 | 43 | 304 | 3.0 | 7.0 | 0.00 | 0.00 | 0.00 | 75 | 1015.3 |
| 20260507122925 | 43 | 257 | 3.0 | 7.0 | 0.00 | 0.00 | 0.00 | 76 | 1015.2 |
| 20260507122816 | 43 | 263 | 3.0 | 4.0 | 0.00 | 0.00 | 0.00 | 77 | 1015.3 |
| 20260507122706 | 43 | 252 | 2.0 | 4.0 | 0.00 | 0.00 | 0.00 | 77 | 1015.2 |
| 20260507122616 | 43 | 290 | 2.0 | 4.0 | 0.00 | 0.00 | 0.00 | 77 | 1015.2 |
| 20260507122508 | 43 | 290 | 2.0 | 4.0 | 0.00 | 0.00 | 0.00 | 77 | 1015.2 |
| 20260507122357 | 43 | 292 | 3.0 | 4.0 | 0.00 | 0.00 | 0.00 | 77 | 1015.2 |
| 20260507122308 | 43 | 236 | 2.0 | 5.0 | 0.00 | 0.00 | 0.00 | 77 | 1015.2 |
| 20260507122159 | 43 | 275 | 2.0 | 5.0 | 0.00 | 0.00 | 0.00 | 77 | 1015.2 |
| 20260507122114 | 43 | 275 | 2.0 | 5.0 | 0.00 | 0.00 | 0.00 | 78 | 1015.2 |
| 20260507122004 | 43 | 277 | 2.0 | 5.0 | 0.00 | 0.00 | 0.00 | 78 | 1015.3 |
| 20260507121916 | 43 | 283 | 2.0 | 5.0 | 0.00 | 0.00 | 0.00 | 78 | 1015.2 |
| 20260507121827 | 43 | 271 | 2.0 | 5.0 | 0.00 | 0.00 | 0.00 | 78 | 1015.2 |
| 20260507121739 | 42 | 238 | 2.0 | 5.0 | 0.00 | 0.00 | 0.00 | 78 | 1015.2 |
| 20260507121628 | 42 | 304 | 3.0 | 5.0 | 0.00 | 0.00 | 0.00 | 78 | 1015.2 |
| 20260507121549 | 42 | 271 | 2.0 | 5.0 | 0.00 | 0.00 | 0.00 | 78 | 1015.2 |
| 20260507121417 | 42 | 269 | 1.0 | 5.0 | 0.00 | 0.00 | 0.00 | 79 | 1015.1 |
| 20260507121307 | 42 | 269 | 1.0 | 5.0 | 0.00 | 0.00 | 0.00 | 79 | 1015.2 |
| 20260507121158 | 42 | 286 | 2.0 | 5.0 | 0.00 | 0.00 | 0.00 | 79 | 1015.0 |
| 20260507121113 | 42 | 294 | 2.0 | 5.0 | 0.00 | 0.00 | 0.00 | 79 | 1015.1 |
| 20260507121024 | 42 | 294 | 2.0 | 7.0 | 0.00 | 0.00 | 0.00 | 79 | 1015.0 |
| 20260507120934 | 42 | 232 | 1.0 | 7.0 | 0.00 | 0.00 | 0.00 | 80 | 1015.0 |
| 20260507120804 | 42 | 232 | 2.0 | 7.0 | 0.00 | 0.00 | 0.00 | 80 | 1015.1 |
| 20260507120715 | 42 | 232 | 2.0 | 7.0 | 0.00 | 0.00 | 0.00 | 80 | 1015.2 |
| 20260507120625 | 42 | 232 | 2.0 | 7.0 | 0.00 | 0.00 | 0.00 | 80 | 1015.2 |
| 20260507120537 | 42 | 264 | 1.0 | 7.0 | 0.00 | 0.00 | 0.00 | 80 | 1015.1 |
| 20260507120407 | 42 | 254 | 2.0 | 7.0 | 0.00 | 0.00 | 0.00 | 80 | 1015.2 |
| 20260507120300 | 41 | 254 | 3.0 | 7.0 | 0.00 | 0.00 | 0.00 | 81 | 1015.2 |
| 20260507120210 | 41 | 256 | 2.0 | 6.0 | 0.00 | 0.00 | 0.00 | 81 | 1015.2 |
| 20260507120124 | 41 | 275 | 1.0 | 5.0 | 0.00 | 0.00 | 0.00 | 81 | 1015.1 |
| 20260507120026 | 41 | 275 | 1.0 | 5.0 | 0.00 | 0.00 | 0.00 | 81 | 1015.2 |
| 20260507115916 | 41 | 275 | 1.0 | 5.0 | 0.00 | 0.00 | 0.00 | 81 | 1015.1 |
| 20260507115827 | 41 | 275 | 1.0 | 5.0 | 0.00 | 0.00 | 0.00 | 81 | 1015.1 |
| 20260507115738 | 41 | 275 | 2.0 | 5.0 | 0.00 | 0.00 | 0.00 | 81 | 1015.2 |
| 20260507115607 | 41 | 275 | 2.0 | 5.0 | 0.00 | 0.00 | 0.00 | 81 | 1015.1 |
| 20260507115458 | 41 | 275 | 1.0 | 5.0 | 0.00 | 0.00 | 0.00 | 82 | 1015.2 |
| 20260507115409 | 41 | 275 | 2.0 | 5.0 | 0.00 | 0.00 | 0.00 | 82 | 1015.1 |
| 20260507115259 | 41 | 275 | 1.0 | 5.0 | 0.00 | 0.00 | 0.00 | 82 | 1015.1 |
| 20260507115209 | 41 | 244 | 0.0 | 4.0 | 0.00 | 0.00 | 0.00 | 82 | 1015.0 |
| 20260507115106 | 41 | 241 | 2.0 | 4.0 | 0.00 | 0.00 | 0.00 | 82 | 1015.1 |
| 20260507115016 | 41 | 241 | 2.0 | 4.0 | 0.00 | 0.00 | 0.00 | 82 | 1015.1 |
| 20260507114925 | 40 | 271 | 1.0 | 4.0 | 0.00 | 0.00 | 0.00 | 82 | 1015.1 |
| 20260507114815 | 40 | 271 | 1.0 | 4.0 | 0.00 | 0.00 | 0.00 | 83 | 1015.1 |
| 20260507114706 | 40 | 271 | 1.0 | 4.0 | 0.00 | 0.00 | 0.00 | 83 | 1015.0 |
| 20260507114617 | 40 | 271 | 2.0 | 4.0 | 0.00 | 0.00 | 0.00 | 83 | 1015.0 |
| 20260507114540 | 40 | 271 | 2.0 | 4.0 | 0.00 | 0.00 | 0.00 | 83 | 1015.0 |
| 20260507114430 | 40 | 294 | 1.0 | 3.0 | 0.00 | 0.00 | 0.00 | 83 | 1014.9 |
| 20260507114341 | 40 | 294 | 1.0 | 3.0 | 0.00 | 0.00 | 0.00 | 83 | 1014.9 |
| 20260507114231 | 40 | 294 | 0.0 | 3.0 | 0.00 | 0.00 | 0.00 | 83 | 1014.9 |
| 20260507114105 | 40 | 294 | 0.0 | 3.0 | 0.00 | 0.00 | 0.00 | 83 | 1014.9 |
| 20260507114014 | 40 | 294 | 0.0 | 3.0 | 0.00 | 0.00 | 0.00 | 84 | 1014.9 |
| 20260507113925 | 40 | 294 | 0.0 | 3.0 | 0.00 | 0.00 | 0.00 | 84 | 1014.8 |
| 20260507113814 | 40 | 294 | 1.0 | 3.0 | 0.00 | 0.00 | 0.00 | 84 | 1014.8 |
| 20260507113726 | 40 | 294 | 1.0 | 3.0 | 0.00 | 0.00 | 0.00 | 84 | 1014.8 |
| 20260507113637 | 40 | 294 | 0.0 | 0.0 | 0.00 | 0.00 | 0.00 | 84 | 1014.8 |
| 20260507113505 | 39 | 294 | 0.0 | 0.0 | 0.00 | 0.00 | 0.00 | 84 | 1014.7 |
| 20260507113415 | 39 | 294 | 0.0 | 0.0 | 0.00 | 0.00 | 0.00 | 84 | 1014.8 |
| 20260507113308 | 39 | 294 | 0.0 | 0.0 | 0.00 | 0.00 | 0.00 | 84 | 1014.8 |
| 20260507113216 | 39 | 294 | 0.0 | 2.0 | 0.00 | 0.00 | 0.00 | 84 | 1014.8 |
| 20260507113112 | 39 | 294 | 0.0 | 2.0 | 0.00 | 0.00 | 0.00 | 84 | 1014.8 |
| 20260507113034 | 39 | 294 | 0.0 | 2.0 | 0.00 | 0.00 | 0.00 | 84 | 1014.8 |
| 20260507112925 | 39 | 294 | 0.0 | 2.0 | 0.00 | 0.00 | 0.00 | 84 | 1014.8 |
| 20260507112814 | 39 | 294 | 0.0 | 2.0 | 0.00 | 0.00 | 0.00 | 84 | 1014.8 |
| 20260507112705 | 39 | 294 | 0.0 | 2.0 | 0.00 | 0.00 | 0.00 | 84 | 1014.8 |
| 20260507112616 | 39 | 294 | 0.0 | 2.0 | 0.00 | 0.00 | 0.00 | 84 | 1014.7 |
| 20260507112526 | 39 | 294 | 0.0 | 2.0 | 0.00 | 0.00 | 0.00 | 84 | 1014.8 |
| 20260507112437 | 39 | 294 | 1.0 | 2.0 | 0.00 | 0.00 | 0.00 | 84 | 1014.8 |
| 20260507112307 | 39 | 294 | 0.0 | 1.0 | 0.00 | 0.00 | 0.00 | 85 | 1014.8 |
| 20260507112158 | 39 | 294 | 0.0 | 1.0 | 0.00 | 0.00 | 0.00 | 85 | 1014.9 |
| 20260507112113 | 38 | 294 | 0.0 | 2.0 | 0.00 | 0.00 | 0.00 | 85 | 1014.9 |
| 20260507112004 | 38 | 294 | 0.0 | 2.0 | 0.00 | 0.00 | 0.00 | 85 | 1014.9 |
| 20260507111915 | 38 | 294 | 0.0 | 2.0 | 0.00 | 0.00 | 0.00 | 85 | 1014.8 |
| 20260507111806 | 38 | 294 | 0.0 | 2.0 | 0.00 | 0.00 | 0.00 | 85 | 1014.9 |
| 20260507111658 | 38 | 294 | 0.0 | 2.0 | 0.00 | 0.00 | 0.00 | 85 | 1014.8 |
| 20260507111610 | 38 | 294 | 0.0 | 2.0 | 0.00 | 0.00 | 0.00 | 85 | 1014.9 |
| 20260507111531 | 38 | 294 | 0.0 | 2.0 | 0.00 | 0.00 | 0.00 | 85 | 1014.9 |
| 20260507111400 | 38 | 294 | 0.0 | 2.0 | 0.00 | 0.00 | 0.00 | 85 | 1014.8 |
| 20260507111309 | 38 | 294 | 0.0 | 2.0 | 0.00 | 0.00 | 0.00 | 85 | 1014.9 |
| 20260507111225 | 38 | 294 | 0.0 | 2.0 | 0.00 | 0.00 | 0.00 | 85 | 1014.9 |
| 20260507111135 | 38 | 294 | 0.0 | 1.0 | 0.00 | 0.00 | 0.00 | 85 | 1014.9 |
| 20260507111004 | 38 | 294 | 0.0 | 1.0 | 0.00 | 0.00 | 0.00 | 85 | 1014.8 |
| 20260507110914 | 38 | 294 | 0.0 | 1.0 | 0.00 | 0.00 | 0.00 | 85 | 1014.8 |
| 20260507110826 | 38 | 294 | 0.0 | 1.0 | 0.00 | 0.00 | 0.00 | 85 | 1014.7 |
| 20260507110715 | 38 | 294 | 0.0 | 1.0 | 0.00 | 0.00 | 0.00 | 85 | 1014.8 |
| 20260507110626 | 38 | 294 | 0.0 | 1.0 | 0.00 | 0.00 | 0.00 | 85 | 1014.7 |
| 20260507110515 | 38 | 294 | 0.0 | 1.0 | 0.00 | 0.00 | 0.00 | 85 | 1014.8 |
| 20260507110406 | 38 | 294 | 0.0 | 1.0 | 0.00 | 0.00 | 0.00 | 85 | 1014.8 |
| 20260507110259 | 38 | 294 | 0.0 | 1.0 | 0.00 | 0.00 | 0.00 | 85 | 1014.8 |
| 20260507110213 | 38 | 294 | 0.0 | 1.0 | 0.00 | 0.00 | 0.00 | 85 | 1014.7 |
| 20260507110124 | 38 | 294 | 0.0 | 1.0 | 0.00 | 0.00 | 0.00 | 85 | 1014.8 |
| 20260507110045 | 38 | 294 | 0.0 | 1.0 | 0.00 | 0.00 | 0.00 | 85 | 1014.8 |
| 20260507105936 | 37 | 294 | 0.0 | 1.0 | 0.00 | 0.00 | 0.00 | 85 | 1014.8 |
| 20260507105805 | 37 | 294 | 0.0 | 1.0 | 0.00 | 0.00 | 0.00 | 85 | 1014.8 |
| 20260507105716 | 37 | 294 | 0.0 | 1.0 | 0.00 | 0.00 | 0.00 | 85 | 1014.8 |
| 20260507105609 | 37 | 294 | 0.0 | 1.0 | 0.00 | 0.00 | 0.00 | 85 | 1014.7 |
| 20260507105457 | 37 | 294 | 0.0 | 1.0 | 0.00 | 0.00 | 0.00 | 85 | 1014.7 |
| 20260507105408 | 37 | 294 | 0.0 | 1.0 | 0.00 | 0.00 | 0.00 | 85 | 1014.6 |
| 20260507105306 | 37 | 294 | 0.0 | 1.0 | 0.00 | 0.00 | 0.00 | 85 | 1014.6 |
| 20260507105214 | 37 | 294 | 0.0 | 0.0 | 0.00 | 0.00 | 0.00 | 85 | 1014.5 |
| 20260507105124 | 37 | 294 | 0.0 | 0.0 | 0.00 | 0.00 | 0.00 | 84 | 1014.5 |
| 20260507105015 | 37 | 294 | 0.0 | 0.0 | 0.00 | 0.00 | 0.00 | 85 | 1014.5 |
| 20260507104925 | 37 | 294 | 0.0 | 0.0 | 0.00 | 0.00 | 0.00 | 84 | 1014.5 |
| 20260507104816 | 37 | 294 | 0.0 | 0.0 | 0.00 | 0.00 | 0.00 | 84 | 1014.4 |
| 20260507104726 | 37 | 294 | 0.0 | 1.0 | 0.00 | 0.00 | 0.00 | 84 | 1014.5 |
| 20260507104557 | 37 | 294 | 0.0 | 1.0 | 0.00 | 0.00 | 0.00 | 84 | 1014.6 |
| 20260507104520 | 37 | 294 | 0.0 | 1.0 | 0.00 | 0.00 | 0.00 | 84 | 1014.5 |
| 20260507104409 | 37 | 294 | 0.0 | 1.0 | 0.00 | 0.00 | 0.00 | 84 | 1014.4 |
| 20260507104300 | 37 | 294 | 0.0 | 1.0 | 0.00 | 0.00 | 0.00 | 84 | 1014.4 |
| 20260507104215 | 37 | 294 | 0.0 | 1.0 | 0.00 | 0.00 | 0.00 | 84 | 1014.4 |
| 20260507104107 | 37 | 294 | 0.0 | 1.0 | 0.00 | 0.00 | 0.00 | 84 | 1014.3 |
| 20260507103958 | 37 | 294 | 0.0 | 1.0 | 0.00 | 0.00 | 0.00 | 84 | 1014.4 |
| 20260507103909 | 37 | 294 | 0.0 | 1.0 | 0.00 | 0.00 | 0.00 | 84 | 1014.4 |
| 20260507103800 | 37 | 294 | 0.0 | 0.0 | 0.00 | 0.00 | 0.00 | 84 | 1014.4 |
| 20260507103711 | 37 | 294 | 0.0 | 0.0 | 0.00 | 0.00 | 0.00 | 84 | 1014.5 |
| 20260507103601 | 37 | 294 | 0.0 | 0.0 | 0.00 | 0.00 | 0.00 | 84 | 1014.5 |
| 20260507103511 | 37 | 294 | 0.0 | 0.0 | 0.00 | 0.00 | 0.00 | 84 | 1014.4 |
| 20260507103407 | 37 | 294 | 0.0 | 0.0 | 0.00 | 0.00 | 0.00 | 84 | 1014.4 |
| 20260507103259 | 37 | 294 | 0.0 | 0.0 | 0.00 | 0.00 | 0.00 | 84 | 1014.4 |
| 20260507103209 | 37 | 294 | 0.0 | 0.0 | 0.00 | 0.00 | 0.00 | 84 | 1014.4 |
| 20260507103121 | 37 | 294 | 0.0 | 0.0 | 0.00 | 0.00 | 0.00 | 84 | 1014.4 |
| 20260507103043 | 37 | 294 | 0.0 | 0.0 | 0.00 | 0.00 | 0.00 | 84 | 1014.4 |
| 20260507102933 | 37 | 294 | 0.0 | 0.0 | 0.00 | 0.00 | 0.00 | 84 | 1014.4 |
| 20260507102843 | 37 | 294 | 0.0 | 1.0 | 0.00 | 0.00 | 0.00 | 84 | 1014.4 |
| 20260507102732 | 37 | 294 | 0.0 | 1.0 | 0.00 | 0.00 | 0.00 | 84 | 1014.3 |
| 20260507102600 | 37 | 294 | 0.0 | 1.0 | 0.00 | 0.00 | 0.00 | 84 | 1014.4 |
| 20260507102512 | 37 | 294 | 0.0 | 1.0 | 0.00 | 0.00 | 0.00 | 84 | 1014.3 |
| 20260507102406 | 37 | 294 | 0.0 | 1.0 | 0.00 | 0.00 | 0.00 | 84 | 1014.3 |
| 20260507102258 | 37 | 294 | 0.0 | 1.0 | 0.00 | 0.00 | 0.00 | 84 | 1014.4 |
| 20260507102208 | 37 | 294 | 0.0 | 1.0 | 0.00 | 0.00 | 0.00 | 84 | 1014.4 |
| 20260507102100 | 37 | 294 | 0.0 | 1.0 | 0.00 | 0.00 | 0.00 | 84 | 1014.4 |
| 20260507102010 | 37 | 294 | 0.0 | 0.0 | 0.00 | 0.00 | 0.00 | 84 | 1014.4 |
| 20260507101920 | 37 | 294 | 0.0 | 0.0 | 0.00 | 0.00 | 0.00 | 84 | 1014.4 |
| 20260507101810 | 37 | 294 | 0.0 | 0.0 | 0.00 | 0.00 | 0.00 | 84 | 1014.3 |
| 20260507101720 | 37 | 294 | 0.0 | 0.0 | 0.00 | 0.00 | 0.00 | 84 | 1014.4 |
| 20260507101610 | 37 | 294 | 0.0 | 0.0 | 0.00 | 0.00 | 0.00 | 84 | 1014.4 |
| 20260507101532 | 37 | 294 | 0.0 | 0.0 | 0.00 | 0.00 | 0.00 | 83 | 1014.4 |
| 20260507101421 | 37 | 294 | 0.0 | 0.0 | 0.00 | 0.00 | 0.00 | 83 | 1014.4 |
| 20260507101336 | 37 | 294 | 0.0 | 0.0 | 0.00 | 0.00 | 0.00 | 83 | 1014.4 |
| 20260507101207 | 37 | 294 | 0.0 | 0.0 | 0.00 | 0.00 | 0.00 | 83 | 1014.4 |
| 20260507101117 | 37 | 294 | 0.0 | 0.0 | 0.00 | 0.00 | 0.00 | 83 | 1014.3 |
| 20260507101007 | 37 | 294 | 0.0 | 0.0 | 0.00 | 0.00 | 0.00 | 83 | 1014.4 |
| 20260507100917 | 37 | 294 | 0.0 | 0.0 | 0.00 | 0.00 | 0.00 | 83 | 1014.3 |
| 20260507100807 | 37 | 294 | 0.0 | 0.0 | 0.00 | 0.00 | 0.00 | 83 | 1014.4 |
| 20260507100718 | 38 | 294 | 0.0 | 0.0 | 0.00 | 0.00 | 0.00 | 83 | 1014.4 |
| 20260507100629 | 38 | 294 | 0.0 | 0.0 | 0.00 | 0.00 | 0.00 | 82 | 1014.4 |
| 20260507100518 | 38 | 294 | 0.0 | 0.0 | 0.00 | 0.00 | 0.00 | 82 | 1014.4 |
| 20260507100408 | 38 | 294 | 0.0 | 0.0 | 0.00 | 0.00 | 0.00 | 82 | 1014.5 |
| 20260507100303 | 38 | 294 | 0.0 | 0.0 | 0.00 | 0.00 | 0.00 | 82 | 1014.5 |
| 20260507100214 | 38 | 294 | 0.0 | 0.0 | 0.00 | 0.00 | 0.00 | 82 | 1014.4 |
| 20260507100125 | 38 | 294 | 0.0 | 0.0 | 0.00 | 0.00 | 0.00 | 82 | 1014.5 |
| 20260507100027 | 38 | 294 | 0.0 | 0.0 | 0.00 | 0.00 | 0.00 | 82 | 1014.5 |
| 20260507095917 | 38 | 294 | 0.0 | 0.0 | 0.00 | 0.00 | 0.00 | 82 | 1014.5 |
| 20260507095806 | 38 | 294 | 0.0 | 1.0 | 0.00 | 0.00 | 0.00 | 82 | 1014.6 |
| 20260507095658 | 38 | 294 | 0.0 | 1.0 | 0.00 | 0.00 | 0.00 | 82 | 1014.4 |
| 20260507095608 | 38 | 294 | 0.0 | 1.0 | 0.00 | 0.00 | 0.00 | 82 | 1014.6 |
| 20260507095458 | 38 | 294 | 0.0 | 1.0 | 0.00 | 0.00 | 0.00 | 81 | 1014.5 |
| 20260507095410 | 38 | 294 | 0.0 | 1.0 | 0.00 | 0.00 | 0.00 | 81 | 1014.7 |
| 20260507095306 | 38 | 294 | 0.0 | 1.0 | 0.00 | 0.00 | 0.00 | 81 | 1014.6 |
| 20260507095157 | 38 | 294 | 0.0 | 1.0 | 0.00 | 0.00 | 0.00 | 81 | 1014.6 |
| 20260507095110 | 38 | 294 | 0.0 | 1.0 | 0.00 | 0.00 | 0.00 | 81 | 1014.6 |
| 20260507095000 | 38 | 294 | 0.0 | 1.0 | 0.00 | 0.00 | 0.00 | 81 | 1014.6 |
| 20260507094912 | 38 | 294 | 0.0 | 1.0 | 0.00 | 0.00 | 0.00 | 81 | 1014.6 |
| 20260507094823 | 38 | 294 | 0.0 | 0.0 | 0.00 | 0.00 | 0.00 | 81 | 1014.6 |
| 20260507094714 | 38 | 294 | 0.0 | 0.0 | 0.00 | 0.00 | 0.00 | 81 | 1014.7 |
| 20260507094604 | 38 | 294 | 0.0 | 0.0 | 0.00 | 0.00 | 0.00 | 81 | 1014.7 |
| 20260507094525 | 38 | 294 | 0.0 | 0.0 | 0.00 | 0.00 | 0.00 | 81 | 1014.6 |
| 20260507094400 | 38 | 294 | 0.0 | 0.0 | 0.00 | 0.00 | 0.00 | 81 | 1014.7 |
| 20260507094310 | 38 | 294 | 0.0 | 0.0 | 0.00 | 0.00 | 0.00 | 80 | 1014.7 |
| 20260507094221 | 38 | 294 | 0.0 | 0.0 | 0.00 | 0.00 | 0.00 | 80 | 1014.7 |
| 20260507094131 | 38 | 294 | 0.0 | 0.0 | 0.00 | 0.00 | 0.00 | 80 | 1014.6 |
| 20260507094002 | 38 | 294 | 0.0 | 0.0 | 0.00 | 0.00 | 0.00 | 80 | 1014.7 |
| 20260507093913 | 38 | 294 | 0.0 | 0.0 | 0.00 | 0.00 | 0.00 | 80 | 1014.6 |
| 20260507093825 | 39 | 294 | 0.0 | 0.0 | 0.00 | 0.00 | 0.00 | 80 | 1014.6 |
| 20260507093714 | 39 | 294 | 0.0 | 0.0 | 0.00 | 0.00 | 0.00 | 80 | 1014.6 |
| 20260507093604 | 39 | 294 | 0.0 | 0.0 | 0.00 | 0.00 | 0.00 | 80 | 1014.7 |
| 20260507093459 | 39 | 294 | 0.0 | 0.0 | 0.00 | 0.00 | 0.00 | 80 | 1014.7 |
| 20260507093409 | 39 | 294 | 0.0 | 0.0 | 0.00 | 0.00 | 0.00 | 80 | 1014.7 |
| 20260507093303 | 39 | 294 | 0.0 | 0.0 | 0.00 | 0.00 | 0.00 | 79 | 1014.6 |
| 20260507093212 | 39 | 294 | 0.0 | 0.0 | 0.00 | 0.00 | 0.00 | 79 | 1014.7 |
| 20260507093122 | 39 | 294 | 0.0 | 0.0 | 0.00 | 0.00 | 0.00 | 79 | 1014.6 |
| 20260507093045 | 39 | 294 | 0.0 | 0.0 | 0.00 | 0.00 | 0.00 | 79 | 1014.6 |
| 20260507092916 | 39 | 294 | 0.0 | 0.0 | 0.00 | 0.00 | 0.00 | 79 | 1014.7 |
| 20260507092807 | 39 | 294 | 0.0 | 0.0 | 0.00 | 0.00 | 0.00 | 79 | 1014.6 |
| 20260507092717 | 39 | 294 | 0.0 | 0.0 | 0.00 | 0.00 | 0.00 | 79 | 1014.8 |
| 20260507092608 | 39 | 294 | 0.0 | 0.0 | 0.00 | 0.00 | 0.00 | 79 | 1014.7 |
| 20260507092502 | 39 | 294 | 0.0 | 0.0 | 0.00 | 0.00 | 0.00 | 79 | 1014.7 |
| 20260507092413 | 39 | 294 | 0.0 | 0.0 | 0.00 | 0.00 | 0.00 | 78 | 1014.7 |
| 20260507092306 | 39 | 294 | 0.0 | 0.0 | 0.00 | 0.00 | 0.00 | 78 | 1014.6 |
| 20260507092214 | 39 | 294 | 0.0 | 0.0 | 0.00 | 0.00 | 0.00 | 78 | 1014.6 |
| 20260507092106 | 39 | 294 | 0.0 | 0.0 | 0.00 | 0.00 | 0.00 | 78 | 1014.6 |
| 20260507092017 | 39 | 294 | 0.0 | 0.0 | 0.00 | 0.00 | 0.00 | 78 | 1014.6 |
| 20260507091908 | 39 | 294 | 0.0 | 0.0 | 0.00 | 0.00 | 0.00 | 78 | 1014.5 |
| 20260507091757 | 39 | 294 | 0.0 | 0.0 | 0.00 | 0.00 | 0.00 | 78 | 1014.6 |
| 20260507091712 | 40 | 294 | 0.0 | 0.0 | 0.00 | 0.00 | 0.00 | 78 | 1014.6 |
| 20260507091623 | 40 | 294 | 0.0 | 0.0 | 0.00 | 0.00 | 0.00 | 78 | 1014.6 |
| 20260507091524 | 40 | 294 | 0.0 | 0.0 | 0.00 | 0.00 | 0.00 | 78 | 1014.7 |
| 20260507091414 | 40 | 294 | 0.0 | 0.0 | 0.00 | 0.00 | 0.00 | 78 | 1014.6 |
| 20260507091306 | 40 | 294 | 0.0 | 0.0 | 0.00 | 0.00 | 0.00 | 78 | 1014.6 |
| 20260507091217 | 40 | 294 | 0.0 | 0.0 | 0.00 | 0.00 | 0.00 | 78 | 1014.7 |
| 20260507091107 | 40 | 294 | 0.0 | 0.0 | 0.00 | 0.00 | 0.00 | 77 | 1014.9 |
| 20260507090958 | 40 | 294 | 0.0 | 0.0 | 0.00 | 0.00 | 0.00 | 77 | 1014.6 |
| 20260507090909 | 40 | 294 | 0.0 | 0.0 | 0.00 | 0.00 | 0.00 | 77 | 1014.6 |
| 20260507090804 | 40 | 294 | 0.0 | 0.0 | 0.00 | 0.00 | 0.00 | 77 | 1014.7 |
| 20260507090716 | 40 | 294 | 0.0 | 0.0 | 0.00 | 0.00 | 0.00 | 77 | 1014.7 |
| 20260507090606 | 40 | 294 | 0.0 | 0.0 | 0.00 | 0.00 | 0.00 | 77 | 1014.6 |
| 20260507090517 | 40 | 294 | 0.0 | 0.0 | 0.00 | 0.00 | 0.00 | 77 | 1014.6 |
| 20260507090407 | 40 | 294 | 0.0 | 0.0 | 0.00 | 0.00 | 0.00 | 77 | 1014.7 |
| 20260507090300 | 40 | 294 | 0.0 | 0.0 | 0.00 | 0.00 | 0.00 | 77 | 1014.7 |
| 20260507090209 | 40 | 294 | 0.0 | 0.0 | 0.00 | 0.00 | 0.00 | 77 | 1014.8 |
| 20260507090100 | 40 | 294 | 0.0 | 0.0 | 0.00 | 0.00 | 0.00 | 77 | 1014.8 |
| 20260507090021 | 40 | 294 | 0.0 | 0.0 | 0.00 | 0.00 | 0.00 | 77 | 1014.8 |
| 20260507085916 | 40 | 294 | 0.0 | 0.0 | 0.00 | 0.00 | 0.00 | 76 | 1014.8 |
| 20260507085806 | 40 | 294 | 0.0 | 0.0 | 0.00 | 0.00 | 0.00 | 76 | 1014.8 |
| 20260507085716 | 40 | 294 | 0.0 | 0.0 | 0.00 | 0.00 | 0.00 | 76 | 1014.9 |
| 20260507085627 | 40 | 294 | 0.0 | 0.0 | 0.00 | 0.00 | 0.00 | 76 | 1014.9 |
| 20260507085538 | 41 | 294 | 0.0 | 0.0 | 0.00 | 0.00 | 0.00 | 76 | 1014.8 |
| 20260507085407 | 41 | 294 | 0.0 | 0.0 | 0.00 | 0.00 | 0.00 | 76 | 1014.8 |
| 20260507085258 | 41 | 294 | 0.0 | 0.0 | 0.00 | 0.00 | 0.00 | 76 | 1014.8 |
| 20260507085210 | 41 | 294 | 0.0 | 1.0 | 0.00 | 0.00 | 0.00 | 76 | 1014.9 |
| 20260507085120 | 41 | 294 | 0.0 | 1.0 | 0.00 | 0.00 | 0.00 | 76 | 1014.7 |
| 20260507085030 | 41 | 294 | 0.0 | 3.0 | 0.00 | 0.00 | 0.00 | 75 | 1014.7 |
| 20260507084903 | 41 | 294 | 0.0 | 3.0 | 0.00 | 0.00 | 0.00 | 75 | 1014.8 |
| 20260507084815 | 41 | 294 | 0.0 | 3.0 | 0.00 | 0.00 | 0.00 | 75 | 1014.7 |
| 20260507084727 | 41 | 294 | 0.0 | 3.0 | 0.00 | 0.00 | 0.00 | 75 | 1014.8 |
| 20260507084637 | 41 | 294 | 0.0 | 3.0 | 0.00 | 0.00 | 0.00 | 75 | 1014.8 |
| 20260507084559 | 41 | 294 | 0.0 | 3.0 | 0.00 | 0.00 | 0.00 | 75 | 1014.8 |
| 20260507084407 | 41 | 294 | 1.0 | 3.0 | 0.00 | 0.00 | 0.00 | 75 | 1014.8 |
| 20260507084316 | 41 | 294 | 1.0 | 3.0 | 0.00 | 0.00 | 0.00 | 75 | 1014.8 |
| 20260507084208 | 41 | 294 | 1.0 | 2.0 | 0.00 | 0.00 | 0.00 | 74 | 1014.8 |
| 20260507084059 | 41 | 294 | 0.0 | 2.0 | 0.00 | 0.00 | 0.00 | 74 | 1014.8 |
| 20260507084014 | 41 | 294 | 0.0 | 1.0 | 0.00 | 0.00 | 0.00 | 74 | 1014.8 |
| 20260507083924 | 41 | 294 | 0.0 | 1.0 | 0.00 | 0.00 | 0.00 | 74 | 1014.8 |
| 20260507083835 | 41 | 294 | 0.0 | 1.0 | 0.00 | 0.00 | 0.00 | 74 | 1014.7 |
| 20260507083725 | 41 | 294 | 0.0 | 1.0 | 0.00 | 0.00 | 0.00 | 74 | 1014.8 |
| 20260507083616 | 41 | 294 | 0.0 | 3.0 | 0.00 | 0.00 | 0.00 | 73 | 1014.8 |
| 20260507083506 | 41 | 294 | 0.0 | 3.0 | 0.00 | 0.00 | 0.00 | 73 | 1014.7 |
| 20260507083417 | 42 | 294 | 0.0 | 3.0 | 0.00 | 0.00 | 0.00 | 73 | 1014.7 |
| 20260507083330 | 42 | 294 | 0.0 | 3.0 | 0.00 | 0.00 | 0.00 | 73 | 1014.7 |
| 20260507083238 | 42 | 294 | 0.0 | 3.0 | 0.00 | 0.00 | 0.00 | 73 | 1014.7 |
| 20260507083128 | 42 | 294 | 0.0 | 3.0 | 0.00 | 0.00 | 0.00 | 73 | 1014.8 |
| 20260507083050 | 42 | 294 | 0.0 | 3.0 | 0.00 | 0.00 | 0.00 | 72 | 1014.8 |
| 20260507082918 | 42 | 294 | 1.0 | 3.0 | 0.00 | 0.00 | 0.00 | 72 | 1014.9 |
| 20260507082833 | 42 | 294 | 1.0 | 3.0 | 0.00 | 0.00 | 0.00 | 72 | 1014.8 |
| 20260507082723 | 42 | 294 | 1.0 | 3.0 | 0.00 | 0.00 | 0.00 | 72 | 1014.8 |
| 20260507082634 | 42 | 294 | 2.0 | 4.0 | 0.00 | 0.00 | 0.00 | 72 | 1014.8 |
| 20260507082504 | 42 | 294 | 2.0 | 4.0 | 0.00 | 0.00 | 0.00 | 72 | 1014.8 |
| 20260507082414 | 42 | 294 | 2.0 | 4.0 | 0.00 | 0.00 | 0.00 | 72 | 1014.7 |
| 20260507082306 | 42 | 294 | 2.0 | 4.0 | 0.00 | 0.00 | 0.00 | 72 | 1014.7 |
| 20260507082216 | 42 | 294 | 2.0 | 4.0 | 0.00 | 0.00 | 0.00 | 72 | 1014.6 |
| 20260507082107 | 42 | 294 | 2.0 | 4.0 | 0.00 | 0.00 | 0.00 | 72 | 1014.8 |
| 20260507082019 | 42 | 309 | 2.0 | 4.0 | 0.00 | 0.00 | 0.00 | 72 | 1014.7 |
| 20260507081908 | 42 | 309 | 2.0 | 4.0 | 0.00 | 0.00 | 0.00 | 72 | 1014.8 |
| 20260507081824 | 42 | 309 | 2.0 | 4.0 | 0.00 | 0.00 | 0.00 | 72 | 1014.7 |
| 20260507081734 | 42 | 285 | 1.0 | 4.0 | 0.00 | 0.00 | 0.00 | 72 | 1014.8 |
| 20260507081645 | 42 | 311 | 1.0 | 4.0 | 0.00 | 0.00 | 0.00 | 72 | 1014.8 |
| 20260507081606 | 42 | 311 | 1.0 | 4.0 | 0.00 | 0.00 | 0.00 | 72 | 1014.8 |
| 20260507081434 | 42 | 311 | 2.0 | 4.0 | 0.00 | 0.00 | 0.00 | 72 | 1014.7 |
| 20260507081305 | 42 | 308 | 1.0 | 2.0 | 0.00 | 0.00 | 0.00 | 72 | 1014.7 |
| 20260507081215 | 42 | 308 | 1.0 | 2.0 | 0.00 | 0.00 | 0.00 | 72 | 1014.8 |
| 20260507081106 | 42 | 308 | 1.0 | 2.0 | 0.00 | 0.00 | 0.00 | 72 | 1014.8 |
| 20260507080958 | 42 | 308 | 0.0 | 2.0 | 0.00 | 0.00 | 0.00 | 72 | 1014.7 |
| 20260507080910 | 42 | 308 | 0.0 | 2.0 | 0.00 | 0.00 | 0.00 | 72 | 1014.7 |
| 20260507080804 | 42 | 308 | 0.0 | 2.0 | 0.00 | 0.00 | 0.00 | 72 | 1014.7 |
| 20260507080716 | 42 | 308 | 0.0 | 3.0 | 0.00 | 0.00 | 0.00 | 72 | 1014.7 |
| 20260507080606 | 42 | 308 | 0.0 | 3.0 | 0.00 | 0.00 | 0.00 | 72 | 1014.7 |
| 20260507080457 | 42 | 308 | 0.0 | 4.0 | 0.00 | 0.00 | 0.00 | 72 | 1014.7 |
| 20260507080407 | 42 | 308 | 0.0 | 4.0 | 0.00 | 0.00 | 0.00 | 72 | 1014.7 |
| 20260507080300 | 42 | 308 | 0.0 | 4.0 | 0.00 | 0.00 | 0.00 | 72 | 1014.7 |
| 20260507080208 | 42 | 308 | 1.0 | 4.0 | 0.00 | 0.00 | 0.00 | 71 | 1014.7 |
| 20260507080119 | 42 | 308 | 1.0 | 4.0 | 0.00 | 0.00 | 0.00 | 71 | 1014.7 |
| 20260507080020 | 42 | 308 | 1.0 | 4.0 | 0.00 | 0.00 | 0.00 | 71 | 1014.8 |
| 20260507075913 | 42 | 308 | 2.0 | 5.0 | 0.00 | 0.00 | 0.00 | 72 | 1014.8 |
| 20260507075824 | 42 | 308 | 2.0 | 5.0 | 0.00 | 0.00 | 0.00 | 71 | 1014.7 |
| 20260507075713 | 42 | 308 | 1.0 | 5.0 | 0.00 | 0.00 | 0.00 | 71 | 1014.7 |
| 20260507075625 | 42 | 308 | 1.0 | 5.0 | 0.00 | 0.00 | 0.00 | 71 | 1014.7 |
| 20260507075515 | 42 | 308 | 1.0 | 5.0 | 0.00 | 0.00 | 0.00 | 71 | 1014.7 |
| 20260507075425 | 43 | 308 | 1.0 | 5.0 | 0.00 | 0.00 | 0.00 | 71 | 1014.7 |
| 20260507075336 | 43 | 308 | 2.0 | 5.0 | 0.00 | 0.00 | 0.00 | 71 | 1014.8 |
| 20260507075226 | 43 | 308 | 2.0 | 5.0 | 0.00 | 0.00 | 0.00 | 71 | 1014.8 |
| 20260507075116 | 43 | 315 | 2.0 | 5.0 | 0.00 | 0.00 | 0.00 | 71 | 1014.8 |
| 20260507075007 | 43 | 315 | 1.0 | 4.0 | 0.00 | 0.00 | 0.00 | 71 | 1014.8 |
| 20260507074858 | 43 | 315 | 3.0 | 4.0 | 0.00 | 0.00 | 0.00 | 71 | 1014.8 |
| 20260507074812 | 43 | 314 | 3.0 | 4.0 | 0.00 | 0.00 | 0.00 | 71 | 1014.7 |
| 20260507074724 | 43 | 337 | 2.0 | 4.0 | 0.00 | 0.00 | 0.00 | 71 | 1014.7 |
| 20260507074634 | 43 | 315 | 2.0 | 4.0 | 0.00 | 0.00 | 0.00 | 71 | 1014.7 |
| 20260507074536 | 43 | 320 | 2.0 | 4.0 | 0.00 | 0.00 | 0.00 | 71 | 1014.8 |
| 20260507074405 | 43 | 308 | 2.0 | 4.0 | 0.00 | 0.00 | 0.00 | 70 | 1014.8 |
| 20260507074317 | 43 | 308 | 1.0 | 4.0 | 0.00 | 0.00 | 0.00 | 70 | 1014.9 |
| 20260507074206 | 43 | 308 | 1.0 | 4.0 | 0.00 | 0.00 | 0.00 | 70 | 1014.8 |
| 20260507074057 | 43 | 308 | 2.0 | 4.0 | 0.00 | 0.00 | 0.00 | 70 | 1014.8 |
| 20260507074008 | 43 | 308 | 2.0 | 4.0 | 0.00 | 0.00 | 0.00 | 70 | 1014.9 |
| 20260507073919 | 43 | 308 | 2.0 | 4.0 | 0.00 | 0.00 | 0.00 | 70 | 1014.9 |
| 20260507073809 | 43 | 299 | 2.0 | 4.0 | 0.00 | 0.00 | 0.00 | 70 | 1014.9 |
| 20260507073705 | 43 | 309 | 2.0 | 4.0 | 0.00 | 0.00 | 0.00 | 70 | 1014.8 |
| 20260507073615 | 43 | 303 | 1.0 | 4.0 | 0.00 | 0.00 | 0.00 | 70 | 1014.8 |
| 20260507073506 | 43 | 310 | 1.0 | 4.0 | 0.00 | 0.00 | 0.00 | 70 | 1014.8 |
| 20260507073417 | 43 | 310 | 1.0 | 4.0 | 0.00 | 0.00 | 0.00 | 69 | 1014.8 |
| 20260507073310 | 43 | 299 | 1.0 | 3.0 | 0.00 | 0.00 | 0.00 | 69 | 1014.9 |
| 20260507073219 | 43 | 321 | 1.0 | 4.0 | 0.00 | 0.00 | 0.00 | 69 | 1014.8 |
| 20260507073131 | 43 | 321 | 1.0 | 6.0 | 0.00 | 0.00 | 0.00 | 69 | 1014.8 |
| 20260507073053 | 43 | 321 | 1.0 | 6.0 | 0.00 | 0.00 | 0.00 | 69 | 1014.8 |
| 20260507072942 | 43 | 321 | 1.0 | 8.0 | 0.00 | 0.00 | 0.00 | 69 | 1014.8 |
| 20260507072853 | 43 | 321 | 2.0 | 8.0 | 0.00 | 0.00 | 0.00 | 69 | 1014.8 |
| 20260507072705 | 43 | 321 | 2.0 | 8.0 | 0.00 | 0.00 | 0.00 | 69 | 1014.8 |
| 20260507072616 | 43 | 294 | 2.0 | 8.0 | 0.00 | 0.00 | 0.00 | 69 | 1014.8 |
| 20260507072527 | 43 | 315 | 2.0 | 8.0 | 0.00 | 0.00 | 0.00 | 69 | 1014.8 |
| 20260507072357 | 43 | 313 | 3.0 | 8.0 | 0.00 | 0.00 | 0.00 | 69 | 1014.8 |
| 20260507072308 | 43 | 311 | 4.0 | 8.0 | 0.00 | 0.00 | 0.00 | 69 | 1014.9 |
| 20260507072218 | 43 | 294 | 3.0 | 9.0 | 0.00 | 0.00 | 0.00 | 69 | 1014.8 |
| 20260507072130 | 43 | 300 | 2.0 | 9.0 | 0.00 | 0.00 | 0.00 | 69 | 1014.8 |
| 20260507071959 | 43 | 293 | 2.0 | 9.0 | 0.00 | 0.00 | 0.00 | 69 | 1014.8 |
| 20260507071911 | 43 | 318 | 2.0 | 9.0 | 0.00 | 0.00 | 0.00 | 69 | 1014.8 |
| 20260507071808 | 43 | 298 | 1.0 | 9.0 | 0.00 | 0.00 | 0.00 | 69 | 1014.7 |
| 20260507071658 | 44 | 298 | 2.0 | 9.0 | 0.00 | 0.00 | 0.00 | 69 | 1014.8 |
| 20260507071608 | 44 | 298 | 3.0 | 9.0 | 0.00 | 0.00 | 0.00 | 69 | 1014.8 |
| 20260507071531 | 43 | 298 | 4.0 | 9.0 | 0.00 | 0.00 | 0.00 | 69 | 1014.8 |
| 20260507071401 | 44 | 314 | 2.0 | 9.0 | 0.00 | 0.00 | 0.00 | 69 | 1014.8 |
| 20260507071312 | 44 | 327 | 1.0 | 8.0 | 0.00 | 0.00 | 0.00 | 69 | 1014.8 |
| 20260507071203 | 44 | 5 | 3.0 | 8.0 | 0.00 | 0.00 | 0.00 | 68 | 1014.9 |
| 20260507071114 | 44 | 311 | 4.0 | 8.0 | 0.00 | 0.00 | 0.00 | 68 | 1014.8 |
| 20260507071004 | 44 | 289 | 4.0 | 8.0 | 0.00 | 0.00 | 0.00 | 69 | 1014.8 |
| 20260507070919 | 44 | 321 | 3.0 | 6.0 | 0.00 | 0.00 | 0.00 | 69 | 1014.9 |
| 20260507070808 | 44 | 314 | 3.0 | 6.0 | 0.00 | 0.00 | 0.00 | 69 | 1014.9 |
| 20260507070659 | 44 | 5 | 3.0 | 6.0 | 0.00 | 0.00 | 0.00 | 68 | 1014.9 |
| 20260507070608 | 44 | 313 | 3.0 | 6.0 | 0.00 | 0.00 | 0.00 | 68 | 1014.9 |
| 20260507070519 | 44 | 311 | 2.0 | 5.0 | 0.00 | 0.00 | 0.00 | 68 | 1014.9 |
| 20260507070430 | 44 | 323 | 2.0 | 5.0 | 0.00 | 0.00 | 0.00 | 68 | 1015.0 |
| 20260507070322 | 44 | 299 | 2.0 | 5.0 | 0.00 | 0.00 | 0.00 | 68 | 1014.9 |
| 20260507070230 | 44 | 333 | 1.0 | 5.0 | 0.00 | 0.00 | 0.00 | 68 | 1015.0 |
| 20260507070120 | 44 | 333 | 1.0 | 6.0 | 0.00 | 0.00 | 0.00 | 68 | 1015.0 |
| 20260507070042 | 44 | 294 | 2.0 | 9.0 | 0.00 | 0.00 | 0.00 | 68 | 1014.9 |
| 20260507065910 | 44 | 321 | 2.0 | 9.0 | 0.00 | 0.00 | 0.00 | 68 | 1014.9 |
| 20260507065805 | 44 | 297 | 3.0 | 9.0 | 0.00 | 0.00 | 0.00 | 68 | 1014.9 |
| 20260507065715 | 44 | 326 | 3.0 | 9.0 | 0.00 | 0.00 | 0.00 | 68 | 1014.9 |
| 20260507065626 | 44 | 346 | 3.0 | 9.0 | 0.00 | 0.00 | 0.00 | 68 | 1015.0 |
| 20260507065538 | 44 | 300 | 2.0 | 9.0 | 0.00 | 0.00 | 0.00 | 68 | 1014.8 |
| 20260507065407 | 44 | 304 | 4.0 | 9.0 | 0.00 | 0.00 | 0.00 | 68 | 1014.9 |
| 20260507065259 | 44 | 317 | 6.0 | 9.0 | 0.00 | 0.00 | 0.00 | 68 | 1014.9 |
| 20260507065209 | 44 | 292 | 6.0 | 9.0 | 0.00 | 0.00 | 0.00 | 68 | 1014.9 |
| 20260507065121 | 44 | 322 | 4.0 | 9.0 | 0.00 | 0.00 | 0.00 | 68 | 1014.9 |
| 20260507065010 | 44 | 313 | 4.0 | 9.0 | 0.00 | 0.00 | 0.00 | 68 | 1015.0 |
| 20260507064901 | 44 | 323 | 5.0 | 9.0 | 0.00 | 0.00 | 0.00 | 68 | 1014.9 |
| 20260507064815 | 44 | 297 | 4.0 | 9.0 | 0.00 | 0.00 | 0.00 | 68 | 1015.0 |
| 20260507064705 | 44 | 337 | 4.0 | 9.0 | 0.00 | 0.00 | 0.00 | 68 | 1015.0 |
| 20260507064616 | 44 | 306 | 4.0 | 9.0 | 0.00 | 0.00 | 0.00 | 68 | 1015.0 |
| 20260507064538 | 44 | 292 | 4.0 | 9.0 | 0.00 | 0.00 | 0.00 | 68 | 1015.0 |
| 20260507064408 | 44 | 284 | 4.0 | 12.0 | 0.00 | 0.00 | 0.00 | 68 | 1014.9 |
| 20260507064318 | 44 | 275 | 5.0 | 12.0 | 0.00 | 0.00 | 0.00 | 68 | 1015.0 |
| 20260507064228 | 44 | 325 | 5.0 | 12.0 | 0.00 | 0.00 | 0.00 | 68 | 1015.0 |
| 20260507064138 | 44 | 294 | 5.0 | 12.0 | 0.00 | 0.00 | 0.00 | 68 | 1014.9 |
| 20260507064049 | 44 | 325 | 4.0 | 12.0 | 0.00 | 0.00 | 0.00 | 68 | 1015.0 |
| 20260507063938 | 44 | 285 | 4.0 | 12.0 | 0.00 | 0.00 | 0.00 | 68 | 1014.9 |
| 20260507063813 | 44 | 318 | 5.0 | 12.0 | 0.00 | 0.00 | 0.00 | 68 | 1014.9 |
| 20260507063703 | 44 | 342 | 5.0 | 12.0 | 0.00 | 0.00 | 0.00 | 68 | 1014.9 |
| 20260507063613 | 44 | 325 | 5.0 | 8.0 | 0.00 | 0.00 | 0.00 | 68 | 1014.9 |
| 20260507063505 | 44 | 315 | 3.0 | 8.0 | 0.00 | 0.00 | 0.00 | 68 | 1014.9 |
| 20260507063416 | 44 | 307 | 3.0 | 8.0 | 0.00 | 0.00 | 0.00 | 69 | 1015.0 |
| 20260507063330 | 44 | 335 | 4.0 | 8.0 | 0.00 | 0.00 | 0.00 | 68 | 1015.0 |
| 20260507063239 | 44 | 304 | 4.0 | 9.0 | 0.00 | 0.00 | 0.00 | 68 | 1015.0 |
| 20260507063128 | 44 | 309 | 4.0 | 9.0 | 0.00 | 0.00 | 0.00 | 68 | 1015.0 |
| 20260507063028 | 44 | 280 | 4.0 | 9.0 | 0.00 | 0.00 | 0.00 | 68 | 1015.0 |
| 20260507062917 | 44 | 306 | 3.0 | 9.0 | 0.00 | 0.00 | 0.00 | 68 | 1015.0 |
| 20260507062812 | 44 | 325 | 3.0 | 10.0 | 0.00 | 0.00 | 0.00 | 68 | 1015.0 |
| 20260507062722 | 44 | 303 | 3.0 | 11.0 | 0.00 | 0.00 | 0.00 | 68 | 1015.0 |
| 20260507062633 | 44 | 296 | 4.0 | 11.0 | 0.00 | 0.00 | 0.00 | 68 | 1015.0 |
| 20260507062504 | 44 | 286 | 5.0 | 11.0 | 0.00 | 0.00 | 0.00 | 68 | 1015.0 |
| 20260507062413 | 45 | 296 | 5.0 | 13.0 | 0.00 | 0.00 | 0.00 | 68 | 1014.9 |
| 20260507062306 | 45 | 302 | 4.0 | 13.0 | 0.00 | 0.00 | 0.00 | 67 | 1015.0 |
| 20260507062215 | 45 | 299 | 4.0 | 13.0 | 0.00 | 0.00 | 0.00 | 67 | 1015.0 |
| 20260507062125 | 45 | 298 | 7.0 | 13.0 | 0.00 | 0.00 | 0.00 | 67 | 1014.9 |
| 20260507062016 | 45 | 312 | 7.0 | 13.0 | 0.00 | 0.00 | 0.00 | 67 | 1015.0 |
| 20260507061906 | 45 | 294 | 4.0 | 13.0 | 0.00 | 0.00 | 0.00 | 67 | 1015.0 |
| 20260507061802 | 45 | 302 | 6.0 | 13.0 | 0.00 | 0.00 | 0.00 | 67 | 1015.0 |
| 20260507061712 | 45 | 344 | 5.0 | 13.0 | 0.00 | 0.00 | 0.00 | 67 | 1014.9 |
| 20260507061603 | 45 | 296 | 3.0 | 13.0 | 0.00 | 0.00 | 0.00 | 67 | 1015.0 |
| 20260507061524 | 45 | 298 | 4.0 | 10.0 | 0.00 | 0.00 | 0.00 | 67 | 1015.0 |
| 20260507061414 | 45 | 326 | 5.0 | 10.0 | 0.00 | 0.00 | 0.00 | 67 | 1015.0 |
| 20260507061303 | 45 | 265 | 4.0 | 10.0 | 0.00 | 0.00 | 0.00 | 67 | 1014.9 |
| 20260507061215 | 45 | 286 | 4.0 | 10.0 | 0.00 | 0.00 | 0.00 | 67 | 1014.9 |
| 20260507061106 | 45 | 328 | 5.0 | 10.0 | 0.00 | 0.00 | 0.00 | 67 | 1014.9 |
| 20260507061017 | 45 | 335 | 6.0 | 10.0 | 0.00 | 0.00 | 0.00 | 67 | 1014.9 |
| 20260507060931 | 45 | 303 | 4.0 | 10.0 | 0.00 | 0.00 | 0.00 | 67 | 1014.9 |
| 20260507060820 | 45 | 283 | 3.0 | 10.0 | 0.00 | 0.00 | 0.00 | 67 | 1015.0 |
| 20260507060710 | 45 | 335 | 4.0 | 10.0 | 0.00 | 0.00 | 0.00 | 67 | 1015.0 |
| 20260507060601 | 45 | 304 | 6.0 | 10.0 | 0.00 | 0.00 | 0.00 | 66 | 1014.9 |
| 20260507060512 | 45 | 319 | 6.0 | 11.0 | 0.00 | 0.00 | 0.00 | 66 | 1014.9 |
| 20260507060403 | 45 | 306 | 3.0 | 15.0 | 0.00 | 0.00 | 0.00 | 66 | 1015.0 |
| 20260507060316 | 45 | 296 | 4.0 | 15.0 | 0.00 | 0.00 | 0.00 | 66 | 1014.9 |
| 20260507060205 | 45 | 292 | 5.0 | 15.0 | 0.00 | 0.00 | 0.00 | 66 | 1014.9 |
| 20260507060115 | 45 | 298 | 6.0 | 15.0 | 0.00 | 0.00 | 0.00 | 66 | 1015.0 |
| 20260507060039 | 45 | 288 | 6.0 | 15.0 | 0.00 | 0.00 | 0.00 | 66 | 1015.0 |
| 20260507055933 | 45 | 314 | 4.0 | 15.0 | 0.00 | 0.00 | 0.00 | 66 | 1015.0 |
| 20260507055804 | 45 | 294 | 6.0 | 15.0 | 0.00 | 0.00 | 0.00 | 66 | 1015.0 |
| 20260507055714 | 45 | 299 | 8.0 | 15.0 | 0.00 | 0.00 | 0.00 | 65 | 1015.0 |
| 20260507055607 | 45 | 313 | 8.0 | 15.0 | 0.00 | 0.00 | 0.00 | 65 | 1015.0 |
| 20260507055517 | 45 | 304 | 7.0 | 12.0 | 0.00 | 0.00 | 0.00 | 65 | 1015.0 |
| 20260507055408 | 45 | 292 | 7.0 | 12.0 | 0.00 | 0.00 | 0.00 | 65 | 1015.0 |
| 20260507055258 | 45 | 301 | 5.0 | 12.0 | 0.00 | 0.00 | 0.00 | 65 | 1015.0 |
| 20260507055208 | 45 | 301 | 4.0 | 12.0 | 0.00 | 0.00 | 0.00 | 65 | 1015.1 |
| 20260507055102 | 45 | 288 | 4.0 | 12.0 | 0.00 | 0.00 | 0.00 | 65 | 1015.0 |
| 20260507055014 | 45 | 292 | 5.0 | 12.0 | 0.00 | 0.00 | 0.00 | 65 | 1015.0 |
| 20260507054904 | 45 | 292 | 6.0 | 12.0 | 0.00 | 0.00 | 0.00 | 64 | 1015.1 |
| 20260507054815 | 46 | 249 | 7.0 | 12.0 | 0.00 | 0.00 | 0.00 | 64 | 1015.1 |
| 20260507054726 | 46 | 305 | 7.0 | 12.0 | 0.00 | 0.00 | 0.00 | 64 | 1015.0 |
| 20260507054637 | 46 | 290 | 6.0 | 12.0 | 0.00 | 0.00 | 0.00 | 64 | 1015.2 |
| 20260507054559 | 46 | 296 | 5.0 | 12.0 | 0.00 | 0.00 | 0.00 | 64 | 1015.0 |
| 20260507054408 | 46 | 313 | 4.0 | 12.0 | 0.00 | 0.00 | 0.00 | 63 | 1015.1 |
| 20260507054258 | 46 | 285 | 6.0 | 12.0 | 0.00 | 0.00 | 0.00 | 63 | 1015.0 |
| 20260507054209 | 46 | 300 | 5.0 | 12.0 | 0.00 | 0.00 | 0.00 | 63 | 1015.1 |
| 20260507054103 | 46 | 301 | 5.0 | 12.0 | 0.00 | 0.00 | 0.00 | 63 | 1015.0 |
| 20260507054014 | 46 | 294 | 6.0 | 12.0 | 0.00 | 0.00 | 0.00 | 63 | 1015.1 |
| 20260507053905 | 46 | 270 | 7.0 | 12.0 | 0.00 | 0.00 | 0.00 | 62 | 1015.0 |
| 20260507053816 | 46 | 311 | 6.0 | 12.0 | 0.00 | 0.00 | 0.00 | 63 | 1015.0 |
| 20260507053707 | 46 | 309 | 6.0 | 11.0 | 0.00 | 0.00 | 0.00 | 62 | 1015.0 |
| 20260507053616 | 46 | 259 | 6.0 | 11.0 | 0.00 | 0.00 | 0.00 | 62 | 1015.1 |
| 20260507053507 | 46 | 319 | 6.0 | 11.0 | 0.00 | 0.00 | 0.00 | 63 | 1015.1 |
| 20260507053416 | 46 | 292 | 7.0 | 11.0 | 0.00 | 0.00 | 0.00 | 62 | 1015.0 |
| 20260507053313 | 46 | 301 | 4.0 | 11.0 | 0.00 | 0.00 | 0.00 | 62 | 1015.0 |
| 20260507053204 | 46 | 295 | 3.0 | 11.0 | 0.00 | 0.00 | 0.00 | 62 | 1015.1 |
| 20260507053115 | 46 | 294 | 5.0 | 11.0 | 0.00 | 0.00 | 0.00 | 62 | 1015.0 |
| 20260507053036 | 46 | 263 | 5.0 | 12.0 | 0.00 | 0.00 | 0.00 | 62 | 1015.1 |
| 20260507052905 | 46 | 299 | 3.0 | 12.0 | 0.00 | 0.00 | 0.00 | 62 | 1015.0 |
| 20260507052816 | 46 | 297 | 3.0 | 12.0 | 0.00 | 0.00 | 0.00 | 62 | 1015.0 |
| 20260507052707 | 46 | 298 | 5.0 | 12.0 | 0.00 | 0.00 | 0.00 | 62 | 1015.0 |
| 20260507052557 | 46 | 311 | 8.0 | 12.0 | 0.00 | 0.00 | 0.00 | 61 | 1015.0 |
| 20260507052509 | 46 | 296 | 7.0 | 12.0 | 0.00 | 0.00 | 0.00 | 61 | 1015.0 |
| 20260507052424 | 46 | 275 | 6.0 | 12.0 | 0.00 | 0.00 | 0.00 | 61 | 1015.0 |
| 20260507052336 | 46 | 307 | 7.0 | 12.0 | 0.00 | 0.00 | 0.00 | 61 | 1015.0 |
| 20260507052246 | 46 | 290 | 6.0 | 12.0 | 0.00 | 0.00 | 0.00 | 61 | 1015.0 |
| 20260507052157 | 46 | 289 | 3.0 | 12.0 | 0.00 | 0.00 | 0.00 | 62 | 1015.0 |
| 20260507052026 | 46 | 286 | 4.0 | 12.0 | 0.00 | 0.00 | 0.00 | 61 | 1015.0 |
| 20260507051915 | 46 | 319 | 6.0 | 12.0 | 0.00 | 0.00 | 0.00 | 61 | 1015.1 |
| 20260507051828 | 46 | 292 | 8.0 | 12.0 | 0.00 | 0.00 | 0.00 | 61 | 1015.1 |
| 20260507051737 | 46 | 275 | 6.0 | 12.0 | 0.00 | 0.00 | 0.00 | 61 | 1015.1 |
| 20260507051608 | 46 | 326 | 6.0 | 12.0 | 0.00 | 0.00 | 0.00 | 61 | 1015.1 |
| 20260507051532 | 46 | 277 | 7.0 | 12.0 | 0.00 | 0.00 | 0.00 | 61 | 1015.0 |
| 20260507051401 | 46 | 302 | 6.0 | 10.0 | 0.00 | 0.00 | 0.00 | 61 | 1015.1 |
| 20260507051316 | 46 | 301 | 6.0 | 10.0 | 0.00 | 0.00 | 0.00 | 61 | 1015.0 |
| 20260507051206 | 46 | 301 | 5.0 | 10.0 | 0.00 | 0.00 | 0.00 | 61 | 1014.9 |
| 20260507051117 | 46 | 281 | 4.0 | 10.0 | 0.00 | 0.00 | 0.00 | 62 | 1015.0 |
| 20260507051026 | 46 | 229 | 4.0 | 10.0 | 0.00 | 0.00 | 0.00 | 62 | 1015.1 |
| 20260507050916 | 47 | 289 | 5.0 | 10.0 | 0.00 | 0.00 | 0.00 | 61 | 1015.0 |
| 20260507050806 | 47 | 294 | 5.0 | 10.0 | 0.00 | 0.00 | 0.00 | 61 | 1015.0 |
| 20260507050717 | 47 | 300 | 4.0 | 10.0 | 0.00 | 0.00 | 0.00 | 61 | 1014.9 |
| 20260507050608 | 47 | 284 | 5.0 | 10.0 | 0.00 | 0.00 | 0.00 | 61 | 1015.0 |
| 20260507050519 | 47 | 289 | 5.0 | 10.0 | 0.00 | 0.00 | 0.00 | 61 | 1015.0 |
| 20260507050429 | 47 | 336 | 4.0 | 10.0 | 0.00 | 0.00 | 0.00 | 61 | 1015.1 |
| 20260507050306 | 47 | 296 | 5.0 | 10.0 | 0.00 | 0.00 | 0.00 | 61 | 1015.1 |
| 20260507050215 | 47 | 263 | 6.0 | 10.0 | 0.00 | 0.00 | 0.00 | 61 | 1015.0 |
| 20260507050117 | 47 | 296 | 3.0 | 10.0 | 0.00 | 0.00 | 0.00 | 62 | 1015.0 |
| 20260507050020 | 47 | 294 | 3.0 | 11.0 | 0.00 | 0.00 | 0.00 | 61 | 1014.9 |
| 20260507045909 | 47 | 276 | 5.0 | 11.0 | 0.00 | 0.00 | 0.00 | 61 | 1015.1 |
| 20260507045800 | 47 | 294 | 4.0 | 11.0 | 0.00 | 0.00 | 0.00 | 61 | 1015.0 |
| 20260507045711 | 47 | 250 | 4.0 | 11.0 | 0.00 | 0.00 | 0.00 | 61 | 1015.0 |
| 20260507045622 | 47 | 311 | 5.0 | 11.0 | 0.00 | 0.00 | 0.00 | 61 | 1014.9 |
| 20260507045532 | 47 | 286 | 5.0 | 11.0 | 0.00 | 0.00 | 0.00 | 61 | 1015.0 |
| 20260507045407 | 47 | 271 | 6.0 | 11.0 | 0.00 | 0.00 | 0.00 | 61 | 1014.9 |
| 20260507045317 | 47 | 278 | 6.0 | 11.0 | 0.00 | 0.00 | 0.00 | 61 | 1015.0 |
| 20260507045209 | 47 | 295 | 5.0 | 11.0 | 0.00 | 0.00 | 0.00 | 61 | 1015.0 |
| 20260507045101 | 47 | 292 | 4.0 | 10.0 | 0.00 | 0.00 | 0.00 | 62 | 1015.0 |
| 20260507045012 | 47 | 271 | 4.0 | 12.0 | 0.00 | 0.00 | 0.00 | 62 | 1015.0 |
| 20260507044903 | 47 | 292 | 3.0 | 12.0 | 0.00 | 0.00 | 0.00 | 61 | 1015.0 |
| 20260507044813 | 47 | 277 | 4.0 | 12.0 | 0.00 | 0.00 | 0.00 | 61 | 1015.0 |
| 20260507044704 | 47 | 294 | 5.0 | 12.0 | 0.00 | 0.00 | 0.00 | 62 | 1014.9 |
| 20260507044559 | 47 | 302 | 5.0 | 12.0 | 0.00 | 0.00 | 0.00 | 61 | 1014.9 |
| 20260507044521 | 47 | 289 | 5.0 | 12.0 | 0.00 | 0.00 | 0.00 | 61 | 1014.9 |
| 20260507044411 | 47 | 302 | 5.0 | 12.0 | 0.00 | 0.00 | 0.00 | 62 | 1014.9 |
| 20260507044323 | 47 | 302 | 5.0 | 12.0 | 0.00 | 0.00 | 0.00 | 62 | 1014.9 |
| 20260507044213 | 47 | 299 | 4.0 | 12.0 | 0.00 | 0.00 | 0.00 | 62 | 1014.9 |
| 20260507044122 | 47 | 319 | 6.0 | 11.0 | 0.00 | 0.00 | 0.00 | 62 | 1015.0 |
| 20260507044012 | 47 | 294 | 6.0 | 11.0 | 0.00 | 0.00 | 0.00 | 61 | 1014.9 |
| 20260507043924 | 47 | 291 | 6.0 | 11.0 | 0.00 | 0.00 | 0.00 | 62 | 1014.9 |
| 20260507043813 | 47 | 304 | 6.0 | 11.0 | 0.00 | 0.00 | 0.00 | 62 | 1015.0 |
| 20260507043705 | 47 | 289 | 3.0 | 11.0 | 0.00 | 0.00 | 0.00 | 62 | 1014.9 |
| 20260507043614 | 47 | 307 | 4.0 | 11.0 | 0.00 | 0.00 | 0.00 | 62 | 1014.9 |
| 20260507043510 | 47 | 299 | 7.0 | 11.0 | 0.00 | 0.00 | 0.00 | 62 | 1015.0 |
| 20260507043420 | 47 | 263 | 6.0 | 11.0 | 0.00 | 0.00 | 0.00 | 62 | 1014.9 |
| 20260507043312 | 47 | 274 | 4.0 | 10.0 | 0.00 | 0.00 | 0.00 | 63 | 1014.9 |
| 20260507043221 | 47 | 306 | 4.0 | 11.0 | 0.00 | 0.00 | 0.00 | 63 | 1014.9 |
| 20260507043130 | 47 | 261 | 5.0 | 11.0 | 0.00 | 0.00 | 0.00 | 62 | 1014.9 |
| 20260507043031 | 47 | 302 | 5.0 | 11.0 | 0.00 | 0.00 | 0.00 | 62 | 1014.8 |
| 20260507042902 | 47 | 296 | 7.0 | 11.0 | 0.00 | 0.00 | 0.00 | 62 | 1014.9 |
| 20260507042813 | 47 | 278 | 7.0 | 11.0 | 0.00 | 0.00 | 0.00 | 63 | 1014.9 |
| 20260507042723 | 47 | 308 | 5.0 | 11.0 | 0.00 | 0.00 | 0.00 | 63 | 1014.9 |
| 20260507042612 | 47 | 257 | 6.0 | 11.0 | 0.00 | 0.00 | 0.00 | 63 | 1014.8 |
| 20260507042503 | 47 | 296 | 5.0 | 11.0 | 0.00 | 0.00 | 0.00 | 63 | 1014.8 |
| 20260507042418 | 47 | 294 | 3.0 | 11.0 | 0.00 | 0.00 | 0.00 | 64 | 1014.8 |
| 20260507042309 | 47 | 274 | 4.0 | 11.0 | 0.00 | 0.00 | 0.00 | 64 | 1014.8 |
| 20260507042220 | 47 | 298 | 6.0 | 11.0 | 0.00 | 0.00 | 0.00 | 63 | 1014.8 |
| 20260507042109 | 47 | 313 | 5.0 | 11.0 | 0.00 | 0.00 | 0.00 | 64 | 1014.9 |
| 20260507041958 | 47 | 306 | 4.0 | 9.0 | 0.00 | 0.00 | 0.00 | 63 | 1014.9 |
| 20260507041911 | 47 | 279 | 3.0 | 9.0 | 0.00 | 0.00 | 0.00 | 63 | 1014.9 |
| 20260507041823 | 47 | 281 | 3.0 | 9.0 | 0.00 | 0.00 | 0.00 | 64 | 1014.9 |
| 20260507041712 | 47 | 276 | 3.0 | 9.0 | 0.00 | 0.00 | 0.00 | 63 | 1014.8 |
| 20260507041624 | 47 | 281 | 4.0 | 9.0 | 0.00 | 0.00 | 0.00 | 63 | 1014.8 |
| 20260507041544 | 47 | 291 | 5.0 | 9.0 | 0.00 | 0.00 | 0.00 | 63 | 1014.9 |
| 20260507041414 | 47 | 273 | 3.0 | 9.0 | 0.00 | 0.00 | 0.00 | 63 | 1014.9 |
| 20260507041309 | 47 | 281 | 3.0 | 9.0 | 0.00 | 0.00 | 0.00 | 63 | 1014.8 |
| 20260507041219 | 47 | 285 | 3.0 | 13.0 | 0.00 | 0.00 | 0.00 | 63 | 1014.8 |
| 20260507041109 | 47 | 296 | 3.0 | 14.0 | 0.00 | 0.00 | 0.00 | 63 | 1014.9 |
| 20260507041001 | 47 | 304 | 3.0 | 14.0 | 0.00 | 0.00 | 0.00 | 62 | 1014.8 |
| 20260507040912 | 47 | 302 | 4.0 | 14.0 | 0.00 | 0.00 | 0.00 | 62 | 1014.9 |
| 20260507040802 | 47 | 296 | 3.0 | 14.0 | 0.00 | 0.00 | 0.00 | 62 | 1014.9 |
| 20260507040715 | 47 | 294 | 2.0 | 14.0 | 0.00 | 0.00 | 0.00 | 62 | 1014.8 |
| 20260507040605 | 47 | 286 | 3.0 | 14.0 | 0.00 | 0.00 | 0.00 | 62 | 1014.9 |
| 20260507040515 | 47 | 302 | 5.0 | 14.0 | 0.00 | 0.00 | 0.00 | 62 | 1014.9 |
| 20260507040411 | 47 | 281 | 7.0 | 14.0 | 0.00 | 0.00 | 0.00 | 61 | 1014.9 |
| 20260507040323 | 47 | 309 | 7.0 | 14.0 | 0.00 | 0.00 | 0.00 | 61 | 1014.8 |
| 20260507040211 | 47 | 291 | 6.0 | 12.0 | 0.00 | 0.00 | 0.00 | 61 | 1014.8 |
| 20260507040123 | 47 | 286 | 5.0 | 14.0 | 0.00 | 0.00 | 0.00 | 61 | 1014.8 |
| 20260507040046 | 47 | 296 | 4.0 | 14.0 | 0.00 | 0.00 | 0.00 | 62 | 1014.8 |
| 20260507035915 | 47 | 273 | 5.0 | 14.0 | 0.00 | 0.00 | 0.00 | 61 | 1014.9 |
| 20260507035817 | 47 | 296 | 7.0 | 14.0 | 0.00 | 0.00 | 0.00 | 61 | 1014.8 |
| 20260507035727 | 47 | 290 | 7.0 | 14.0 | 0.00 | 0.00 | 0.00 | 61 | 1014.8 |
| 20260507035618 | 47 | 290 | 6.0 | 14.0 | 0.00 | 0.00 | 0.00 | 61 | 1014.9 |
| 20260507035529 | 47 | 298 | 7.0 | 14.0 | 0.00 | 0.00 | 0.00 | 61 | 1014.9 |
| 20260507035421 | 47 | 280 | 9.0 | 14.0 | 0.00 | 0.00 | 0.00 | 61 | 1014.9 |
| 20260507035330 | 48 | 281 | 9.0 | 14.0 | 0.00 | 0.00 | 0.00 | 61 | 1014.8 |
| 20260507035221 | 48 | 311 | 7.0 | 14.0 | 0.00 | 0.00 | 0.00 | 61 | 1014.9 |
| 20260507035114 | 48 | 322 | 6.0 | 14.0 | 0.00 | 0.00 | 0.00 | 61 | 1014.8 |
| 20260507035024 | 48 | 282 | 6.0 | 14.0 | 0.00 | 0.00 | 0.00 | 61 | 1014.9 |
| 20260507034935 | 48 | 272 | 8.0 | 14.0 | 0.00 | 0.00 | 0.00 | 61 | 1014.9 |
| 20260507034804 | 48 | 292 | 9.0 | 12.0 | 0.00 | 0.00 | 0.00 | 61 | 1014.8 |
| 20260507034714 | 48 | 295 | 8.0 | 12.0 | 0.00 | 0.00 | 0.00 | 61 | 1014.8 |
| 20260507034606 | 48 | 327 | 5.0 | 10.0 | 0.00 | 0.00 | 0.00 | 61 | 1014.9 |
| 20260507034527 | 48 | 284 | 5.0 | 10.0 | 0.00 | 0.00 | 0.00 | 61 | 1014.9 |
| 20260507034418 | 48 | 294 | 4.0 | 10.0 | 0.00 | 0.00 | 0.00 | 61 | 1014.9 |
| 20260507034330 | 48 | 325 | 5.0 | 10.0 | 0.00 | 0.00 | 0.00 | 61 | 1014.8 |
| 20260507034242 | 48 | 285 | 3.0 | 10.0 | 0.00 | 0.00 | 0.00 | 61 | 1014.9 |
| 20260507034131 | 48 | 333 | 4.0 | 10.0 | 0.00 | 0.00 | 0.00 | 61 | 1014.9 |
| 20260507034025 | 48 | 294 | 4.0 | 12.0 | 0.00 | 0.00 | 0.00 | 61 | 1014.9 |
| 20260507033937 | 48 | 278 | 4.0 | 12.0 | 0.00 | 0.00 | 0.00 | 60 | 1014.9 |
| 20260507033807 | 48 | 325 | 4.0 | 12.0 | 0.00 | 0.00 | 0.00 | 60 | 1014.9 |
| 20260507033700 | 48 | 299 | 4.0 | 12.0 | 0.00 | 0.00 | 0.00 | 60 | 1014.9 |
| 20260507033610 | 48 | 251 | 3.0 | 13.0 | 0.00 | 0.00 | 0.00 | 60 | 1014.9 |
| 20260507033521 | 48 | 263 | 5.0 | 13.0 | 0.00 | 0.00 | 0.00 | 60 | 1014.9 |
| 20260507033410 | 48 | 271 | 6.0 | 13.0 | 0.00 | 0.00 | 0.00 | 60 | 1014.9 |
| 20260507033323 | 48 | 300 | 6.0 | 13.0 | 0.00 | 0.00 | 0.00 | 60 | 1014.8 |
| 20260507033232 | 48 | 285 | 4.0 | 13.0 | 0.00 | 0.00 | 0.00 | 60 | 1014.9 |
| 20260507033101 | 48 | 302 | 6.0 | 13.0 | 0.00 | 0.00 | 0.00 | 60 | 1014.9 |
| 20260507033027 | 48 | 287 | 7.0 | 13.0 | 0.00 | 0.00 | 0.00 | 60 | 1014.8 |
| 20260507032917 | 48 | 292 | 8.0 | 13.0 | 0.00 | 0.00 | 0.00 | 60 | 1014.8 |
| 20260507032809 | 48 | 290 | 7.0 | 13.0 | 0.00 | 0.00 | 0.00 | 60 | 1014.9 |
| 20260507032659 | 48 | 333 | 6.0 | 12.0 | 0.00 | 0.00 | 0.00 | 60 | 1014.9 |
| 20260507032610 | 48 | 297 | 6.0 | 12.0 | 0.00 | 0.00 | 0.00 | 61 | 1014.9 |
| 20260507032501 | 48 | 272 | 6.0 | 12.0 | 0.00 | 0.00 | 0.00 | 61 | 1014.9 |
| 20260507032412 | 48 | 300 | 5.0 | 12.0 | 0.00 | 0.00 | 0.00 | 61 | 1014.9 |
| 20260507032305 | 48 | 300 | 4.0 | 12.0 | 0.00 | 0.00 | 0.00 | 61 | 1014.9 |
| 20260507032157 | 48 | 290 | 4.0 | 12.0 | 0.00 | 0.00 | 0.00 | 61 | 1014.8 |
| 20260507032108 | 48 | 279 | 5.0 | 12.0 | 0.00 | 0.00 | 0.00 | 61 | 1014.9 |
| 20260507032000 | 48 | 313 | 5.0 | 12.0 | 0.00 | 0.00 | 0.00 | 61 | 1014.8 |
| 20260507031911 | 48 | 279 | 5.0 | 11.0 | 0.00 | 0.00 | 0.00 | 61 | 1014.8 |
| 20260507031820 | 48 | 282 | 6.0 | 11.0 | 0.00 | 0.00 | 0.00 | 61 | 1014.9 |
| 20260507031711 | 48 | 295 | 5.0 | 11.0 | 0.00 | 0.00 | 0.00 | 61 | 1014.8 |
| 20260507031601 | 48 | 288 | 5.0 | 9.0 | 0.00 | 0.00 | 0.00 | 61 | 1014.8 |
| 20260507031523 | 48 | 250 | 5.0 | 9.0 | 0.00 | 0.00 | 0.00 | 61 | 1014.8 |
| 20260507031414 | 48 | 278 | 4.0 | 8.0 | 0.00 | 0.00 | 0.00 | 61 | 1014.8 |
| 20260507031305 | 48 | 276 | 3.0 | 8.0 | 0.00 | 0.00 | 0.00 | 61 | 1014.8 |
| 20260507031201 | 48 | 288 | 1.0 | 5.0 | 0.00 | 0.00 | 0.00 | 61 | 1014.7 |
| 20260507031111 | 49 | 288 | 1.0 | 5.0 | 0.00 | 0.00 | 0.00 | 61 | 1014.8 |
| 20260507031023 | 49 | 261 | 1.0 | 5.0 | 0.00 | 0.00 | 0.00 | 61 | 1014.7 |
| 20260507030934 | 49 | 274 | 1.0 | 7.0 | 0.00 | 0.00 | 0.00 | 61 | 1014.8 |
| 20260507030806 | 49 | 261 | 2.0 | 7.0 | 0.00 | 0.00 | 0.00 | 60 | 1014.7 |
| 20260507030717 | 49 | 311 | 2.0 | 7.0 | 0.00 | 0.00 | 0.00 | 60 | 1014.7 |
| 20260507030606 | 49 | 292 | 2.0 | 7.0 | 0.00 | 0.00 | 0.00 | 60 | 1014.7 |
| 20260507030517 | 49 | 254 | 2.0 | 7.0 | 0.00 | 0.00 | 0.00 | 60 | 1014.6 |
| 20260507030408 | 49 | 277 | 2.0 | 7.0 | 0.00 | 0.00 | 0.00 | 60 | 1014.6 |
| 20260507030304 | 49 | 267 | 2.0 | 7.0 | 0.00 | 0.00 | 0.00 | 60 | 1014.6 |
| 20260507030214 | 49 | 281 | 2.0 | 7.0 | 0.00 | 0.00 | 0.00 | 60 | 1014.6 |
| 20260507030104 | 49 | 281 | 2.0 | 7.0 | 0.00 | 0.00 | 0.00 | 60 | 1014.6 |
| 20260507030025 | 49 | 277 | 1.0 | 5.0 | 0.00 | 0.00 | 0.00 | 60 | 1014.6 |
| 20260507025914 | 49 | 277 | 1.0 | 5.0 | 0.00 | 0.00 | 0.00 | 60 | 1014.6 |
| 20260507025826 | 49 | 277 | 1.0 | 5.0 | 0.00 | 0.00 | 0.00 | 60 | 1014.5 |
| 20260507025716 | 49 | 265 | 1.0 | 5.0 | 0.00 | 0.00 | 0.00 | 60 | 1014.6 |
| 20260507025628 | 49 | 267 | 1.0 | 5.0 | 0.00 | 0.00 | 0.00 | 60 | 1014.5 |
| 20260507025458 | 49 | 279 | 2.0 | 5.0 | 0.00 | 0.00 | 0.00 | 60 | 1014.5 |
| 20260507025409 | 49 | 263 | 2.0 | 5.0 | 0.00 | 0.00 | 0.00 | 60 | 1014.6 |
| 20260507025325 | 49 | 297 | 1.0 | 5.0 | 0.00 | 0.00 | 0.00 | 60 | 1014.6 |
| 20260507025234 | 49 | 236 | 1.0 | 4.0 | 0.00 | 0.00 | 0.00 | 60 | 1014.6 |
| 20260507025125 | 49 | 259 | 1.0 | 4.0 | 0.00 | 0.00 | 0.00 | 60 | 1014.5 |
| 20260507025014 | 49 | 296 | 1.0 | 4.0 | 0.00 | 0.00 | 0.00 | 60 | 1014.6 |
| 20260507024906 | 49 | 297 | 1.0 | 4.0 | 0.00 | 0.00 | 0.00 | 60 | 1014.6 |
| 20260507024758 | 49 | 293 | 1.0 | 5.0 | 0.00 | 0.00 | 0.00 | 60 | 1014.5 |
| 20260507024708 | 49 | 284 | 1.0 | 5.0 | 0.00 | 0.00 | 0.00 | 60 | 1014.6 |
| 20260507024559 | 49 | 281 | 1.0 | 5.0 | 0.00 | 0.00 | 0.00 | 60 | 1014.5 |
| 20260507024521 | 49 | 281 | 1.0 | 5.0 | 0.00 | 0.00 | 0.00 | 59 | 1014.6 |
| 20260507024411 | 49 | 281 | 1.0 | 5.0 | 0.00 | 0.00 | 0.00 | 60 | 1014.5 |
| 20260507024305 | 49 | 294 | 0.0 | 5.0 | 0.00 | 0.00 | 0.00 | 60 | 1014.6 |
| 20260507024216 | 49 | 279 | 1.0 | 5.0 | 0.00 | 0.00 | 0.00 | 59 | 1014.5 |
| 20260507024107 | 49 | 279 | 2.0 | 5.0 | 0.00 | 0.00 | 0.00 | 59 | 1014.5 |
| 20260507023958 | 49 | 311 | 2.0 | 5.0 | 0.00 | 0.00 | 0.00 | 59 | 1014.5 |
| 20260507023908 | 49 | 281 | 2.0 | 5.0 | 0.00 | 0.00 | 0.00 | 59 | 1014.4 |
| 20260507023819 | 49 | 281 | 2.0 | 5.0 | 0.00 | 0.00 | 0.00 | 59 | 1014.5 |
| 20260507023730 | 50 | 290 | 1.0 | 5.0 | 0.00 | 0.00 | 0.00 | 59 | 1014.5 |
| 20260507023559 | 50 | 312 | 1.0 | 8.0 | 0.00 | 0.00 | 0.00 | 58 | 1014.4 |
| 20260507023511 | 50 | 312 | 1.0 | 8.0 | 0.00 | 0.00 | 0.00 | 58 | 1014.4 |
| 20260507023428 | 50 | 312 | 1.0 | 8.0 | 0.00 | 0.00 | 0.00 | 59 | 1014.4 |
| 20260507023300 | 50 | 273 | 2.0 | 8.0 | 0.00 | 0.00 | 0.00 | 59 | 1014.5 |
| 20260507023210 | 50 | 315 | 2.0 | 8.0 | 0.00 | 0.00 | 0.00 | 59 | 1014.4 |
| 20260507023100 | 50 | 319 | 2.0 | 8.0 | 0.00 | 0.00 | 0.00 | 58 | 1014.4 |
| 20260507023023 | 50 | 287 | 2.0 | 8.0 | 0.00 | 0.00 | 0.00 | 58 | 1014.4 |
| 20260507022913 | 50 | 298 | 2.0 | 8.0 | 0.00 | 0.00 | 0.00 | 58 | 1014.3 |
| 20260507022804 | 50 | 310 | 3.0 | 8.0 | 0.00 | 0.00 | 0.00 | 58 | 1014.3 |
| 20260507022715 | 50 | 300 | 3.0 | 8.0 | 0.00 | 0.00 | 0.00 | 58 | 1014.5 |
| 20260507022627 | 50 | 281 | 2.0 | 7.0 | 0.00 | 0.00 | 0.00 | 58 | 1014.4 |
| 20260507022502 | 50 | 302 | 2.0 | 7.0 | 0.00 | 0.00 | 0.00 | 58 | 1014.3 |
| 20260507022413 | 50 | 275 | 3.0 | 7.0 | 0.00 | 0.00 | 0.00 | 58 | 1014.4 |
| 20260507022306 | 50 | 286 | 2.0 | 7.0 | 0.00 | 0.00 | 0.00 | 58 | 1014.3 |
| 20260507022214 | 50 | 274 | 2.0 | 7.0 | 0.00 | 0.00 | 0.00 | 59 | 1014.3 |
| 20260507022105 | 50 | 310 | 1.0 | 7.0 | 0.00 | 0.00 | 0.00 | 59 | 1014.2 |
| 20260507022016 | 50 | 310 | 2.0 | 7.0 | 0.00 | 0.00 | 0.00 | 58 | 1014.2 |
| 20260507021908 | 50 | 298 | 2.0 | 7.0 | 0.00 | 0.00 | 0.00 | 58 | 1014.2 |
| 20260507021819 | 50 | 306 | 3.0 | 7.0 | 0.00 | 0.00 | 0.00 | 58 | 1014.1 |
| 20260507021730 | 50 | 295 | 3.0 | 7.0 | 0.00 | 0.00 | 0.00 | 58 | 1014.2 |
| 20260507021605 | 50 | 298 | 3.0 | 6.0 | 0.00 | 0.00 | 0.00 | 58 | 1014.2 |
| 20260507021527 | 50 | 281 | 2.0 | 6.0 | 0.00 | 0.00 | 0.00 | 58 | 1014.2 |
| 20260507021416 | 50 | 286 | 2.0 | 6.0 | 0.00 | 0.00 | 0.00 | 58 | 1014.2 |
| 20260507021307 | 50 | 285 | 1.0 | 6.0 | 0.00 | 0.00 | 0.00 | 59 | 1014.1 |
| 20260507021217 | 50 | 305 | 2.0 | 6.0 | 0.00 | 0.00 | 0.00 | 59 | 1014.1 |
| 20260507021109 | 50 | 296 | 2.0 | 6.0 | 0.00 | 0.00 | 0.00 | 59 | 1014.1 |
| 20260507020959 | 50 | 288 | 1.0 | 6.0 | 0.00 | 0.00 | 0.00 | 59 | 1014.0 |
| 20260507020911 | 50 | 263 | 1.0 | 6.0 | 0.00 | 0.00 | 0.00 | 58 | 1014.1 |
| 20260507020802 | 50 | 292 | 1.0 | 6.0 | 0.00 | 0.00 | 0.00 | 58 | 1014.1 |
| 20260507020659 | 50 | 286 | 2.0 | 6.0 | 0.00 | 0.00 | 0.00 | 58 | 1014.0 |
| 20260507020611 | 50 | 286 | 2.0 | 6.0 | 0.00 | 0.00 | 0.00 | 58 | 1014.1 |
| 20260507020504 | 50 | 285 | 1.0 | 6.0 | 0.00 | 0.00 | 0.00 | 58 | 1014.1 |
| 20260507020415 | 50 | 286 | 0.0 | 6.0 | 0.00 | 0.00 | 0.00 | 58 | 1014.1 |
| 20260507020328 | 50 | 286 | 1.0 | 6.0 | 0.00 | 0.00 | 0.00 | 58 | 1014.0 |
| 20260507020238 | 50 | 286 | 2.0 | 6.0 | 0.00 | 0.00 | 0.00 | 58 | 1013.9 |
| 20260507020118 | 50 | 297 | 2.0 | 6.0 | 0.00 | 0.00 | 0.00 | 58 | 1014.0 |
| 20260507020019 | 50 | 258 | 2.0 | 5.0 | 0.00 | 0.00 | 0.00 | 58 | 1013.9 |
| 20260507015908 | 50 | 286 | 2.0 | 5.0 | 0.00 | 0.00 | 0.00 | 57 | 1013.9 |
| 20260507015820 | 50 | 300 | 3.0 | 5.0 | 0.00 | 0.00 | 0.00 | 57 | 1013.9 |
| 20260507015714 | 50 | 308 | 3.0 | 6.0 | 0.00 | 0.00 | 0.00 | 58 | 1013.9 |
| 20260507015625 | 50 | 266 | 2.0 | 6.0 | 0.00 | 0.00 | 0.00 | 58 | 1013.9 |
| 20260507015536 | 50 | 279 | 2.0 | 6.0 | 0.00 | 0.00 | 0.00 | 57 | 1013.9 |
| 20260507015425 | 50 | 271 | 1.0 | 6.0 | 0.00 | 0.00 | 0.00 | 57 | 1013.9 |
| 20260507015334 | 50 | 255 | 1.0 | 6.0 | 0.00 | 0.00 | 0.00 | 57 | 1013.9 |
| 20260507015205 | 50 | 355 | 2.0 | 6.0 | 0.00 | 0.00 | 0.00 | 58 | 1013.8 |
| 20260507015117 | 50 | 236 | 2.0 | 6.0 | 0.00 | 0.00 | 0.00 | 58 | 1013.8 |
| 20260507015029 | 50 | 237 | 3.0 | 6.0 | 0.00 | 0.00 | 0.00 | 58 | 1013.8 |
| 20260507014940 | 50 | 281 | 3.0 | 6.0 | 0.00 | 0.00 | 0.00 | 57 | 1013.8 |
| 20260507014830 | 50 | 287 | 1.0 | 6.0 | 0.00 | 0.00 | 0.00 | 58 | 1013.6 |
| 20260507014700 | 50 | 296 | 1.0 | 5.0 | 0.00 | 0.00 | 0.00 | 58 | 1013.7 |
| 20260507014614 | 50 | 296 | 1.0 | 5.0 | 0.00 | 0.00 | 0.00 | 57 | 1013.7 |
| 20260507014537 | 50 | 296 | 1.0 | 5.0 | 0.00 | 0.00 | 0.00 | 57 | 1013.7 |
| 20260507014406 | 50 | 289 | 1.0 | 5.0 | 0.00 | 0.00 | 0.00 | 58 | 1013.7 |
| 20260507014316 | 50 | 289 | 1.0 | 5.0 | 0.00 | 0.00 | 0.00 | 58 | 1013.8 |
| 20260507014208 | 50 | 281 | 0.0 | 4.0 | 0.00 | 0.00 | 0.00 | 58 | 1013.8 |
| 20260507014058 | 50 | 281 | 1.0 | 4.0 | 0.00 | 0.00 | 0.00 | 57 | 1013.7 |
| 20260507014010 | 50 | 331 | 2.0 | 4.0 | 0.00 | 0.00 | 0.00 | 57 | 1013.8 |
| 20260507013901 | 50 | 282 | 2.0 | 4.0 | 0.00 | 0.00 | 0.00 | 56 | 1013.7 |
| 20260507013811 | 50 | 289 | 2.0 | 4.0 | 0.00 | 0.00 | 0.00 | 56 | 1013.7 |
| 20260507013725 | 50 | 300 | 2.0 | 4.0 | 0.00 | 0.00 | 0.00 | 56 | 1013.7 |
| 20260507013615 | 51 | 308 | 1.0 | 4.0 | 0.00 | 0.00 | 0.00 | 56 | 1013.7 |
| 20260507013527 | 50 | 284 | 1.0 | 4.0 | 0.00 | 0.00 | 0.00 | 56 | 1013.6 |
| 20260507013416 | 51 | 257 | 1.0 | 4.0 | 0.00 | 0.00 | 0.00 | 57 | 1013.6 |
| 20260507013328 | 50 | 257 | 2.0 | 4.0 | 0.00 | 0.00 | 0.00 | 56 | 1013.6 |
| 20260507013238 | 51 | 271 | 2.0 | 7.0 | 0.00 | 0.00 | 0.00 | 56 | 1013.7 |
| 20260507013108 | 51 | 254 | 2.0 | 7.0 | 0.00 | 0.00 | 0.00 | 56 | 1013.6 |
| 20260507013030 | 51 | 304 | 1.0 | 7.0 | 0.00 | 0.00 | 0.00 | 56 | 1013.6 |
| 20260507012900 | 51 | 288 | 1.0 | 7.0 | 0.00 | 0.00 | 0.00 | 56 | 1013.6 |
| 20260507012812 | 51 | 288 | 1.0 | 7.0 | 0.00 | 0.00 | 0.00 | 56 | 1013.5 |
| 20260507012707 | 51 | 254 | 1.0 | 7.0 | 0.00 | 0.00 | 0.00 | 55 | 1013.5 |
| 20260507012558 | 51 | 254 | 1.0 | 7.0 | 0.00 | 0.00 | 0.00 | 56 | 1013.5 |
| 20260507012508 | 51 | 254 | 1.0 | 7.0 | 0.00 | 0.00 | 0.00 | 55 | 1013.5 |
| 20260507012358 | 51 | 240 | 1.0 | 7.0 | 0.00 | 0.00 | 0.00 | 56 | 1013.5 |
| 20260507012310 | 51 | 260 | 2.0 | 4.0 | 0.00 | 0.00 | 0.00 | 56 | 1013.5 |
| 20260507012200 | 51 | 289 | 1.0 | 4.0 | 0.00 | 0.00 | 0.00 | 56 | 1013.6 |
| 20260507012111 | 51 | 265 | 1.0 | 4.0 | 0.00 | 0.00 | 0.00 | 56 | 1013.4 |
| 20260507012021 | 51 | 265 | 0.0 | 4.0 | 0.00 | 0.00 | 0.00 | 56 | 1013.5 |
| 20260507011931 | 51 | 265 | 1.0 | 4.0 | 0.00 | 0.00 | 0.00 | 55 | 1013.5 |
| 20260507011804 | 51 | 265 | 1.0 | 5.0 | 0.00 | 0.00 | 0.00 | 55 | 1013.5 |
| 20260507011716 | 51 | 265 | 1.0 | 5.0 | 0.00 | 0.00 | 0.00 | 55 | 1013.5 |
| 20260507011606 | 51 | 265 | 1.0 | 5.0 | 0.00 | 0.00 | 0.00 | 55 | 1013.5 |
| 20260507011529 | 51 | 284 | 2.0 | 5.0 | 0.00 | 0.00 | 0.00 | 55 | 1013.4 |
| 20260507011401 | 51 | 278 | 2.0 | 5.0 | 0.00 | 0.00 | 0.00 | 56 | 1013.4 |
| 20260507011310 | 51 | 269 | 1.0 | 5.0 | 0.00 | 0.00 | 0.00 | 54 | 1013.4 |
| 20260507011222 | 51 | 246 | 2.0 | 5.0 | 0.00 | 0.00 | 0.00 | 54 | 1013.4 |
| 20260507011111 | 51 | 235 | 2.0 | 5.0 | 0.00 | 0.00 | 0.00 | 55 | 1013.4 |
| 20260507011003 | 51 | 297 | 2.0 | 5.0 | 0.00 | 0.00 | 0.00 | 55 | 1013.4 |
| 20260507010857 | 51 | 284 | 1.0 | 3.0 | 0.00 | 0.00 | 0.00 | 55 | 1013.4 |
| 20260507010807 | 51 | 297 | 1.0 | 3.0 | 0.00 | 0.00 | 0.00 | 56 | 1013.4 |
| 20260507010658 | 51 | 267 | 0.0 | 3.0 | 0.00 | 0.00 | 0.00 | 56 | 1013.4 |
| 20260507010609 | 51 | 267 | 1.0 | 6.0 | 0.00 | 0.00 | 0.00 | 56 | 1013.3 |
| 20260507010501 | 51 | 267 | 1.0 | 6.0 | 0.00 | 0.00 | 0.00 | 54 | 1013.3 |
| 20260507010411 | 51 | 267 | 1.0 | 8.0 | 0.00 | 0.00 | 0.00 | 55 | 1013.3 |
| 20260507010303 | 51 | 267 | 1.0 | 8.0 | 0.00 | 0.00 | 0.00 | 55 | 1013.3 |
| 20260507010212 | 51 | 267 | 1.0 | 8.0 | 0.00 | 0.00 | 0.00 | 56 | 1013.3 |
| 20260507010114 | 51 | 267 | 0.0 | 8.0 | 0.00 | 0.00 | 0.00 | 56 | 1013.4 |
| 20260507010019 | 51 | 267 | 0.0 | 8.0 | 0.00 | 0.00 | 0.00 | 56 | 1013.2 |
| 20260507005910 | 51 | 267 | 1.0 | 8.0 | 0.00 | 0.00 | 0.00 | 56 | 1013.3 |
| 20260507005821 | 51 | 267 | 2.0 | 8.0 | 0.00 | 0.00 | 0.00 | 55 | 1013.3 |
| 20260507005711 | 51 | 248 | 2.0 | 8.0 | 0.00 | 0.00 | 0.00 | 56 | 1013.2 |
| 20260507005601 | 51 | 259 | 2.0 | 8.0 | 0.00 | 0.00 | 0.00 | 56 | 1013.2 |
| 20260507005511 | 51 | 266 | 1.0 | 3.0 | 0.00 | 0.00 | 0.00 | 56 | 1013.2 |
| 20260507005403 | 51 | 266 | 0.0 | 3.0 | 0.00 | 0.00 | 0.00 | 56 | 1013.2 |
| 20260507005313 | 51 | 266 | 0.0 | 3.0 | 0.00 | 0.00 | 0.00 | 56 | 1013.3 |
| 20260507005204 | 51 | 266 | 0.0 | 2.0 | 0.00 | 0.00 | 0.00 | 55 | 1013.2 |
| 20260507005115 | 51 | 266 | 0.0 | 2.0 | 0.00 | 0.00 | 0.00 | 56 | 1013.2 |
| 20260507005031 | 51 | 266 | 0.0 | 2.0 | 0.00 | 0.00 | 0.00 | 56 | 1013.2 |
| 20260507004942 | 51 | 266 | 0.0 | 1.0 | 0.00 | 0.00 | 0.00 | 56 | 1013.2 |
| 20260507004853 | 51 | 266 | 0.0 | 0.0 | 0.00 | 0.00 | 0.00 | 56 | 1013.1 |
| 20260507004741 | 51 | 266 | 0.0 | 0.0 | 0.00 | 0.00 | 0.00 | 56 | 1013.1 |
| 20260507004652 | 51 | 266 | 0.0 | 0.0 | 0.00 | 0.00 | 0.00 | 56 | 1013.1 |
| 20260507004555 | 51 | 266 | 0.0 | 0.0 | 0.00 | 0.00 | 0.00 | 57 | 1013.2 |
| 20260507004424 | 51 | 266 | 0.0 | 0.0 | 0.00 | 0.00 | 0.00 | 55 | 1013.2 |
| 20260507004335 | 51 | 266 | 0.0 | 0.0 | 0.00 | 0.00 | 0.00 | 55 | 1013.2 |
| 20260507004245 | 52 | 266 | 0.0 | 0.0 | 0.00 | 0.00 | 0.00 | 55 | 1013.2 |
| 20260507004134 | 52 | 266 | 0.0 | 0.0 | 0.00 | 0.00 | 0.00 | 56 | 1013.2 |
| 20260507004003 | 52 | 266 | 0.0 | 0.0 | 0.00 | 0.00 | 0.00 | 55 | 1013.1 |
| 20260507003858 | 52 | 266 | 0.0 | 0.0 | 0.00 | 0.00 | 0.00 | 54 | 1013.2 |
| 20260507003809 | 52 | 266 | 0.0 | 0.0 | 0.00 | 0.00 | 0.00 | 55 | 1013.2 |
| 20260507003700 | 52 | 266 | 0.0 | 1.0 | 0.00 | 0.00 | 0.00 | 54 | 1013.1 |
| 20260507003611 | 52 | 266 | 0.0 | 1.0 | 0.00 | 0.00 | 0.00 | 54 | 1013.2 |
| 20260507003503 | 52 | 266 | 0.0 | 2.0 | 0.00 | 0.00 | 0.00 | 55 | 1013.1 |
| 20260507003416 | 52 | 266 | 0.0 | 2.0 | 0.00 | 0.00 | 0.00 | 55 | 1013.2 |
| 20260507003308 | 52 | 266 | 0.0 | 2.0 | 0.00 | 0.00 | 0.00 | 54 | 1013.3 |
| 20260507003216 | 52 | 266 | 0.0 | 2.0 | 0.00 | 0.00 | 0.00 | 54 | 1013.2 |
| 20260507003106 | 52 | 266 | 0.0 | 2.0 | 0.00 | 0.00 | 0.00 | 55 | 1013.2 |
| 20260507003032 | 52 | 266 | 0.0 | 2.0 | 0.00 | 0.00 | 0.00 | 55 | 1013.2 |
| 20260507002902 | 52 | 266 | 0.0 | 2.0 | 0.00 | 0.00 | 0.00 | 54 | 1013.1 |
| 20260507002814 | 52 | 266 | 1.0 | 2.0 | 0.00 | 0.00 | 0.00 | 54 | 1013.2 |
| 20260507002703 | 52 | 266 | 0.0 | 2.0 | 0.00 | 0.00 | 0.00 | 53 | 1013.1 |
| 20260507002614 | 52 | 266 | 0.0 | 3.0 | 0.00 | 0.00 | 0.00 | 53 | 1013.1 |
| 20260507002504 | 52 | 266 | 0.0 | 3.0 | 0.00 | 0.00 | 0.00 | 53 | 1013.0 |
| 20260507002416 | 52 | 266 | 0.0 | 3.0 | 0.00 | 0.00 | 0.00 | 54 | 1013.1 |
| 20260507002308 | 52 | 266 | 0.0 | 3.0 | 0.00 | 0.00 | 0.00 | 53 | 1013.1 |
| 20260507002219 | 52 | 266 | 0.0 | 3.0 | 0.00 | 0.00 | 0.00 | 54 | 1013.1 |
| 20260507002113 | 52 | 266 | 0.0 | 3.0 | 0.00 | 0.00 | 0.00 | 52 | 1013.0 |
| 20260507002026 | 52 | 266 | 0.0 | 3.0 | 0.00 | 0.00 | 0.00 | 52 | 1013.0 |
| 20260507001938 | 52 | 266 | 1.0 | 3.0 | 0.00 | 0.00 | 0.00 | 52 | 1013.0 |
| 20260507001807 | 52 | 266 | 0.0 | 3.0 | 0.00 | 0.00 | 0.00 | 53 | 1013.0 |
| 20260507001719 | 52 | 266 | 0.0 | 3.0 | 0.00 | 0.00 | 0.00 | 53 | 1013.0 |
| 20260507001630 | 52 | 266 | 0.0 | 3.0 | 0.00 | 0.00 | 0.00 | 53 | 1013.0 |
| 20260507001554 | 52 | 266 | 0.0 | 3.0 | 0.00 | 0.00 | 0.00 | 53 | 1013.1 |
| 20260507001403 | 52 | 266 | 1.0 | 3.0 | 0.00 | 0.00 | 0.00 | 53 | 1013.0 |
| 20260507001314 | 52 | 266 | 1.0 | 3.0 | 0.00 | 0.00 | 0.00 | 52 | 1013.1 |
| 20260507001226 | 52 | 266 | 0.0 | 4.0 | 0.00 | 0.00 | 0.00 | 52 | 1013.1 |
| 20260507001101 | 52 | 266 | 0.0 | 4.0 | 0.00 | 0.00 | 0.00 | 53 | 1013.1 |
| 20260507001010 | 52 | 266 | 0.0 | 4.0 | 0.00 | 0.00 | 0.00 | 53 | 1013.1 |
| 20260507000921 | 52 | 266 | 0.0 | 4.0 | 0.00 | 0.00 | 0.00 | 52 | 1013.1 |
| 20260507000832 | 52 | 266 | 1.0 | 4.0 | 0.00 | 0.00 | 0.00 | 53 | 1013.1 |
| 20260507000721 | 52 | 266 | 1.0 | 4.0 | 0.00 | 0.00 | 0.00 | 51 | 1013.0 |
| 20260507000612 | 52 | 266 | 0.0 | 4.0 | 0.00 | 0.00 | 0.00 | 53 | 1013.0 |
| 20260507000523 | 52 | 266 | 1.0 | 4.0 | 0.00 | 0.00 | 0.00 | 52 | 1013.0 |
| 20260507000413 | 52 | 266 | 1.0 | 4.0 | 0.00 | 0.00 | 0.00 | 52 | 1012.9 |
| 20260507000328 | 52 | 279 | 1.0 | 3.0 | 0.00 | 0.00 | 0.00 | 51 | 1013.0 |
| 20260507000214 | 52 | 296 | 0.0 | 2.0 | 0.00 | 0.00 | 0.00 | 51 | 1012.9 |
| 20260507000106 | 52 | 232 | 1.0 | 2.0 | 0.00 | 0.00 | 0.00 | 51 | 1012.9 |
| 20260507000028 | 52 | 232 | 1.0 | 2.0 | 0.00 | 0.00 | 0.00 | 51 | 1012.9 |
| 20260506235902 | 52 | 232 | 0.0 | 2.0 | 0.00 | 0.00 | 0.00 | 52 | 1012.8 |
| 20260506235814 | 52 | 232 | 0.0 | 3.0 | 0.00 | 0.00 | 0.00 | 51 | 1012.8 |
| 20260506235704 | 52 | 232 | 0.0 | 3.0 | 0.00 | 0.00 | 0.00 | 51 | 1012.9 |
| 20260506235614 | 52 | 232 | 0.0 | 3.0 | 0.00 | 0.00 | 0.00 | 50 | 1012.8 |
| 20260506235506 | 52 | 232 | 1.0 | 3.0 | 0.00 | 0.00 | 0.00 | 51 | 1012.8 |
| 20260506235417 | 52 | 232 | 1.0 | 3.0 | 0.00 | 0.00 | 0.00 | 49 | 1012.9 |
| 20260506235307 | 52 | 232 | 1.0 | 3.0 | 0.00 | 0.00 | 0.00 | 50 | 1012.9 |
| 20260506235200 | 52 | 232 | 1.0 | 3.0 | 0.00 | 0.00 | 0.00 | 49 | 1012.9 |
| 20260506235114 | 52 | 232 | 1.0 | 3.0 | 0.00 | 0.00 | 0.00 | 49 | 1013.0 |
| 20260506235004 | 52 | 230 | 0.0 | 3.0 | 0.00 | 0.00 | 0.00 | 49 | 1013.0 |
| 20260506234916 | 52 | 259 | 0.0 | 3.0 | 0.00 | 0.00 | 0.00 | 49 | 1013.0 |
| 20260506234806 | 53 | 259 | 1.0 | 3.0 | 0.00 | 0.00 | 0.00 | 49 | 1013.0 |
| 20260506234717 | 53 | 259 | 0.0 | 6.0 | 0.00 | 0.00 | 0.00 | 49 | 1013.1 |
| 20260506234639 | 53 | 258 | 1.0 | 6.0 | 0.00 | 0.00 | 0.00 | 48 | 1013.1 |
| 20260506234519 | 53 | 258 | 1.0 | 6.0 | 0.00 | 0.00 | 0.00 | 48 | 1013.1 |
| 20260506234410 | 53 | 259 | 2.0 | 6.0 | 0.00 | 0.00 | 0.00 | 49 | 1013.1 |
| 20260506234301 | 53 | 301 | 1.0 | 6.0 | 0.00 | 0.00 | 0.00 | 48 | 1013.1 |
| 20260506234213 | 53 | 261 | 0.0 | 6.0 | 0.00 | 0.00 | 0.00 | 50 | 1013.1 |
| 20260506234108 | 53 | 261 | 0.0 | 6.0 | 0.00 | 0.00 | 0.00 | 50 | 1013.1 |
| 20260506234020 | 53 | 261 | 2.0 | 6.0 | 0.00 | 0.00 | 0.00 | 50 | 1013.1 |
| 20260506233929 | 53 | 261 | 2.0 | 7.0 | 0.00 | 0.00 | 0.00 | 48 | 1013.1 |
| 20260506233759 | 53 | 257 | 2.0 | 5.0 | 0.00 | 0.00 | 0.00 | 47 | 1013.1 |
| 20260506233709 | 53 | 284 | 2.0 | 6.0 | 0.00 | 0.00 | 0.00 | 47 | 1013.1 |
| 20260506233559 | 53 | 272 | 2.0 | 6.0 | 0.00 | 0.00 | 0.00 | 48 | 1013.1 |
| 20260506233510 | 53 | 269 | 2.0 | 6.0 | 0.00 | 0.00 | 0.00 | 48 | 1013.1 |
| 20260506233421 | 53 | 266 | 2.0 | 6.0 | 0.00 | 0.00 | 0.00 | 48 | 1013.1 |
| 20260506233334 | 53 | 287 | 2.0 | 6.0 | 0.00 | 0.00 | 0.00 | 48 | 1013.1 |
| 20260506233207 | 53 | 291 | 3.0 | 5.0 | 0.00 | 0.00 | 0.00 | 47 | 1013.1 |
| 20260506233057 | 53 | 286 | 2.0 | 5.0 | 0.00 | 0.00 | 0.00 | 47 | 1013.1 |
| 20260506233019 | 53 | 313 | 2.0 | 5.0 | 0.00 | 0.00 | 0.00 | 48 | 1013.0 |
| 20260506232909 | 53 | 269 | 2.0 | 7.0 | 0.00 | 0.00 | 0.00 | 48 | 1013.0 |
| 20260506232819 | 53 | 276 | 2.0 | 8.0 | 0.00 | 0.00 | 0.00 | 47 | 1013.1 |
| 20260506232730 | 53 | 286 | 2.0 | 8.0 | 0.00 | 0.00 | 0.00 | 48 | 1013.0 |
| 20260506232600 | 53 | 250 | 1.0 | 8.0 | 0.00 | 0.00 | 0.00 | 47 | 1013.0 |
| 20260506232510 | 53 | 248 | 1.0 | 8.0 | 0.00 | 0.00 | 0.00 | 47 | 1013.1 |
| 20260506232401 | 53 | 248 | 3.0 | 8.0 | 0.00 | 0.00 | 0.00 | 47 | 1013.0 |
| 20260506232312 | 53 | 263 | 3.0 | 8.0 | 0.00 | 0.00 | 0.00 | 46 | 1013.1 |
| 20260506232207 | 53 | 263 | 4.0 | 8.0 | 0.00 | 0.00 | 0.00 | 47 | 1013.1 |
| 20260506232059 | 53 | 276 | 3.0 | 8.0 | 0.00 | 0.00 | 0.00 | 48 | 1013.1 |
| 20260506232010 | 53 | 291 | 2.0 | 6.0 | 0.00 | 0.00 | 0.00 | 48 | 1013.0 |
| 20260506231920 | 53 | 264 | 2.0 | 6.0 | 0.00 | 0.00 | 0.00 | 48 | 1013.1 |
| 20260506231832 | 53 | 305 | 1.0 | 6.0 | 0.00 | 0.00 | 0.00 | 49 | 1013.1 |
| 20260506231744 | 53 | 294 | 2.0 | 6.0 | 0.00 | 0.00 | 0.00 | 49 | 1013.1 |
| 20260506231634 | 53 | 284 | 3.0 | 6.0 | 0.00 | 0.00 | 0.00 | 48 | 1013.1 |
| 20260506231536 | 53 | 314 | 3.0 | 6.0 | 0.00 | 0.00 | 0.00 | 48 | 1013.1 |
| 20260506231405 | 53 | 281 | 3.0 | 7.0 | 0.00 | 0.00 | 0.00 | 48 | 1013.0 |
| 20260506231300 | 53 | 291 | 1.0 | 6.0 | 0.00 | 0.00 | 0.00 | 49 | 1013.1 |
| 20260506231211 | 53 | 271 | 1.0 | 6.0 | 0.00 | 0.00 | 0.00 | 48 | 1013.1 |
| 20260506231121 | 53 | 269 | 1.0 | 6.0 | 0.00 | 0.00 | 0.00 | 48 | 1013.2 |
| 20260506231033 | 53 | 269 | 2.0 | 6.0 | 0.00 | 0.00 | 0.00 | 49 | 1013.1 |
| 20260506230943 | 53 | 299 | 2.0 | 6.0 | 0.00 | 0.00 | 0.00 | 48 | 1013.1 |
| 20260506230831 | 53 | 260 | 2.0 | 8.0 | 0.00 | 0.00 | 0.00 | 48 | 1013.1 |
| 20260506230701 | 53 | 291 | 2.0 | 10.0 | 0.00 | 0.00 | 0.00 | 47 | 1013.0 |
| 20260506230611 | 53 | 292 | 2.0 | 10.0 | 0.00 | 0.00 | 0.00 | 48 | 1013.1 |
| 20260506230500 | 53 | 275 | 2.0 | 10.0 | 0.00 | 0.00 | 0.00 | 48 | 1013.1 |
| 20260506230412 | 53 | 298 | 1.0 | 10.0 | 0.00 | 0.00 | 0.00 | 48 | 1013.1 |
| 20260506230308 | 53 | 261 | 0.0 | 10.0 | 0.00 | 0.00 | 0.00 | 49 | 1013.1 |
| 20260506230158 | 53 | 261 | 1.0 | 10.0 | 0.00 | 0.00 | 0.00 | 48 | 1013.2 |
| 20260506230108 | 53 | 261 | 3.0 | 10.0 | 0.00 | 0.00 | 0.00 | 47 | 1013.2 |
| 20260506230030 | 53 | 261 | 4.0 | 10.0 | 0.00 | 0.00 | 0.00 | 46 | 1013.2 |
| 20260506225920 | 53 | 280 | 6.0 | 10.0 | 0.00 | 0.00 | 0.00 | 46 | 1013.1 |
| 20260506225831 | 53 | 256 | 6.0 | 10.0 | 0.00 | 0.00 | 0.00 | 46 | 1013.1 |
| 20260506225700 | 53 | 282 | 4.0 | 10.0 | 0.00 | 0.00 | 0.00 | 46 | 1013.1 |
| 20260506225612 | 53 | 277 | 3.0 | 10.0 | 0.00 | 0.00 | 0.00 | 47 | 1013.1 |
| 20260506225504 | 53 | 288 | 4.0 | 10.0 | 0.00 | 0.00 | 0.00 | 47 | 1013.1 |
| 20260506225359 | 53 | 265 | 3.0 | 10.0 | 0.00 | 0.00 | 0.00 | 47 | 1013.1 |
| 20260506225311 | 53 | 301 | 4.0 | 10.0 | 0.00 | 0.00 | 0.00 | 46 | 1013.1 |
| 20260506225224 | 53 | 270 | 4.0 | 10.0 | 0.00 | 0.00 | 0.00 | 47 | 1013.1 |
| 20260506225114 | 53 | 296 | 4.0 | 10.0 | 0.00 | 0.00 | 0.00 | 46 | 1013.2 |
| 20260506225004 | 53 | 269 | 5.0 | 11.0 | 0.00 | 0.00 | 0.00 | 46 | 1013.3 |
| 20260506224915 | 53 | 313 | 6.0 | 11.0 | 0.00 | 0.00 | 0.00 | 46 | 1013.2 |
| 20260506224827 | 53 | 286 | 5.0 | 12.0 | 0.00 | 0.00 | 0.00 | 48 | 1013.1 |
| 20260506224716 | 53 | 338 | 4.0 | 12.0 | 0.00 | 0.00 | 0.00 | 48 | 1013.2 |
| 20260506224608 | 54 | 271 | 3.0 | 12.0 | 0.00 | 0.00 | 0.00 | 47 | 1013.2 |
| 20260506224529 | 54 | 259 | 3.0 | 12.0 | 0.00 | 0.00 | 0.00 | 48 | 1013.2 |
| 20260506224403 | 54 | 258 | 4.0 | 13.0 | 0.00 | 0.00 | 0.00 | 48 | 1013.2 |
| 20260506224315 | 54 | 272 | 4.0 | 13.0 | 0.00 | 0.00 | 0.00 | 48 | 1013.2 |
| 20260506224205 | 54 | 297 | 5.0 | 13.0 | 0.00 | 0.00 | 0.00 | 46 | 1013.2 |
| 20260506224116 | 54 | 294 | 6.0 | 13.0 | 0.00 | 0.00 | 0.00 | 46 | 1013.2 |
| 20260506224006 | 54 | 292 | 7.0 | 13.0 | 0.00 | 0.00 | 0.00 | 46 | 1013.3 |
| 20260506223917 | 54 | 306 | 6.0 | 13.0 | 0.00 | 0.00 | 0.00 | 46 | 1013.1 |
| 20260506223808 | 54 | 277 | 5.0 | 13.0 | 0.00 | 0.00 | 0.00 | 45 | 1013.2 |
| 20260506223659 | 54 | 257 | 7.0 | 13.0 | 0.00 | 0.00 | 0.00 | 44 | 1013.3 |
| 20260506223611 | 54 | 318 | 9.0 | 13.0 | 0.00 | 0.00 | 0.00 | 44 | 1013.2 |
| 20260506223526 | 54 | 315 | 8.0 | 13.0 | 0.00 | 0.00 | 0.00 | 44 | 1013.3 |
| 20260506223417 | 54 | 265 | 9.0 | 13.0 | 0.00 | 0.00 | 0.00 | 44 | 1013.2 |
| 20260506223310 | 54 | 305 | 7.0 | 13.0 | 0.00 | 0.00 | 0.00 | 44 | 1013.2 |
| 20260506223158 | 54 | 264 | 5.0 | 13.0 | 0.00 | 0.00 | 0.00 | 44 | 1013.2 |
| 20260506223109 | 54 | 277 | 5.0 | 13.0 | 0.00 | 0.00 | 0.00 | 44 | 1013.2 |
| 20260506223032 | 54 | 244 | 6.0 | 13.0 | 0.00 | 0.00 | 0.00 | 44 | 1013.2 |
| 20260506222901 | 55 | 231 | 7.0 | 14.0 | 0.00 | 0.00 | 0.00 | 46 | 1013.3 |
| 20260506222813 | 54 | 244 | 7.0 | 14.0 | 0.00 | 0.00 | 0.00 | 45 | 1013.2 |
| 20260506222705 | 54 | 272 | 6.0 | 14.0 | 0.00 | 0.00 | 0.00 | 45 | 1013.2 |
| 20260506222619 | 54 | 286 | 7.0 | 14.0 | 0.00 | 0.00 | 0.00 | 45 | 1013.2 |
| 20260506222509 | 54 | 275 | 6.0 | 14.0 | 0.00 | 0.00 | 0.00 | 44 | 1013.1 |
| 20260506222401 | 54 | 250 | 5.0 | 14.0 | 0.00 | 0.00 | 0.00 | 46 | 1013.2 |
| 20260506222311 | 54 | 254 | 6.0 | 14.0 | 0.00 | 0.00 | 0.00 | 45 | 1013.1 |
| 20260506222224 | 54 | 303 | 8.0 | 14.0 | 0.00 | 0.00 | 0.00 | 45 | 1013.2 |
| 20260506222134 | 54 | 274 | 9.0 | 14.0 | 0.00 | 0.00 | 0.00 | 44 | 1013.2 |
| 20260506222045 | 54 | 295 | 9.0 | 14.0 | 0.00 | 0.00 | 0.00 | 44 | 1013.2 |
| 20260506221935 | 54 | 252 | 8.0 | 14.0 | 0.00 | 0.00 | 0.00 | 46 | 1013.2 |
| 20260506221824 | 54 | 288 | 7.0 | 14.0 | 0.00 | 0.00 | 0.00 | 45 | 1013.1 |
| 20260506221734 | 54 | 266 | 4.0 | 12.0 | 0.00 | 0.00 | 0.00 | 47 | 1013.2 |
| 20260506221604 | 54 | 246 | 3.0 | 12.0 | 0.00 | 0.00 | 0.00 | 47 | 1013.1 |
| 20260506221530 | 54 | 254 | 4.0 | 14.0 | 0.00 | 0.00 | 0.00 | 45 | 1013.2 |
| 20260506221419 | 54 | 288 | 6.0 | 14.0 | 0.00 | 0.00 | 0.00 | 46 | 1013.2 |
| 20260506221330 | 54 | 242 | 4.0 | 14.0 | 0.00 | 0.00 | 0.00 | 46 | 1013.2 |
| 20260506221159 | 54 | 252 | 3.0 | 14.0 | 0.00 | 0.00 | 0.00 | 47 | 1013.2 |
| 20260506221111 | 54 | 294 | 3.0 | 14.0 | 0.00 | 0.00 | 0.00 | 46 | 1013.2 |
| 20260506221002 | 54 | 267 | 5.0 | 14.0 | 0.00 | 0.00 | 0.00 | 45 | 1013.2 |
| 20260506220912 | 54 | 274 | 5.0 | 14.0 | 0.00 | 0.00 | 0.00 | 45 | 1013.3 |
| 20260506220822 | 54 | 269 | 5.0 | 14.0 | 0.00 | 0.00 | 0.00 | 46 | 1013.2 |
| 20260506220711 | 54 | 281 | 7.0 | 14.0 | 0.00 | 0.00 | 0.00 | 45 | 1013.2 |
| 20260506220601 | 54 | 272 | 6.0 | 11.0 | 0.00 | 0.00 | 0.00 | 44 | 1013.1 |
| 20260506220517 | 54 | 254 | 5.0 | 10.0 | 0.00 | 0.00 | 0.00 | 45 | 1013.2 |
| 20260506220408 | 54 | 254 | 5.0 | 12.0 | 0.00 | 0.00 | 0.00 | 46 | 1013.1 |
| 20260506220300 | 54 | 286 | 5.0 | 12.0 | 0.00 | 0.00 | 0.00 | 44 | 1013.1 |
| 20260506220210 | 54 | 289 | 4.0 | 12.0 | 0.00 | 0.00 | 0.00 | 44 | 1013.1 |
| 20260506220121 | 54 | 273 | 3.0 | 12.0 | 0.00 | 0.00 | 0.00 | 46 | 1013.2 |
| 20260506220043 | 54 | 274 | 3.0 | 12.0 | 0.00 | 0.00 | 0.00 | 47 | 1013.1 |
| 20260506215913 | 54 | 275 | 3.0 | 12.0 | 0.00 | 0.00 | 0.00 | 45 | 1013.1 |
| 20260506215804 | 54 | 267 | 5.0 | 12.0 | 0.00 | 0.00 | 0.00 | 44 | 1013.2 |
| 20260506215715 | 54 | 252 | 6.0 | 12.0 | 0.00 | 0.00 | 0.00 | 45 | 1013.1 |
| 20260506215610 | 54 | 279 | 6.0 | 12.0 | 0.00 | 0.00 | 0.00 | 44 | 1013.1 |
| 20260506215500 | 54 | 269 | 4.0 | 12.0 | 0.00 | 0.00 | 0.00 | 44 | 1013.1 |
| 20260506215409 | 55 | 265 | 5.0 | 12.0 | 0.00 | 0.00 | 0.00 | 44 | 1013.1 |
| 20260506215321 | 55 | 242 | 5.0 | 12.0 | 0.00 | 0.00 | 0.00 | 44 | 1013.1 |
| 20260506215211 | 55 | 273 | 5.0 | 12.0 | 0.00 | 0.00 | 0.00 | 45 | 1013.1 |
| 20260506215101 | 55 | 248 | 5.0 | 12.0 | 0.00 | 0.00 | 0.00 | 45 | 1013.1 |
| 20260506215010 | 55 | 249 | 6.0 | 12.0 | 0.00 | 0.00 | 0.00 | 44 | 1013.1 |
| 20260506214920 | 54 | 288 | 5.0 | 11.0 | 0.00 | 0.00 | 0.00 | 47 | 1013.0 |
| 20260506214831 | 54 | 240 | 4.0 | 11.0 | 0.00 | 0.00 | 0.00 | 46 | 1013.1 |
| 20260506214740 | 54 | 252 | 5.0 | 11.0 | 0.00 | 0.00 | 0.00 | 47 | 1013.2 |
| 20260506214650 | 54 | 271 | 5.0 | 11.0 | 0.00 | 0.00 | 0.00 | 45 | 1013.2 |
| 20260506214616 | 54 | 281 | 5.0 | 11.0 | 0.00 | 0.00 | 0.00 | 46 | 1013.2 |
| 20260506214446 | 54 | 257 | 4.0 | 11.0 | 0.00 | 0.00 | 0.00 | 45 | 1013.2 |
| 20260506214335 | 54 | 265 | 4.0 | 11.0 | 0.00 | 0.00 | 0.00 | 46 | 1013.2 |
| 20260506214203 | 54 | 262 | 6.0 | 12.0 | 0.00 | 0.00 | 0.00 | 45 | 1013.2 |
| 20260506214115 | 54 | 317 | 8.0 | 12.0 | 0.00 | 0.00 | 0.00 | 45 | 1013.1 |
| 20260506214007 | 54 | 316 | 8.0 | 12.0 | 0.00 | 0.00 | 0.00 | 44 | 1013.2 |
| 20260506213858 | 54 | 269 | 8.0 | 12.0 | 0.00 | 0.00 | 0.00 | 45 | 1013.2 |
| 20260506213808 | 54 | 306 | 7.0 | 12.0 | 0.00 | 0.00 | 0.00 | 45 | 1013.2 |
| 20260506213659 | 54 | 257 | 6.0 | 12.0 | 0.00 | 0.00 | 0.00 | 44 | 1013.2 |
| 20260506213613 | 54 | 269 | 6.0 | 12.0 | 0.00 | 0.00 | 0.00 | 45 | 1013.2 |
| 20260506213524 | 54 | 254 | 7.0 | 12.0 | 0.00 | 0.00 | 0.00 | 44 | 1013.2 |
| 20260506213436 | 54 | 288 | 7.0 | 12.0 | 0.00 | 0.00 | 0.00 | 44 | 1013.2 |
| 20260506213307 | 54 | 291 | 6.0 | 11.0 | 0.00 | 0.00 | 0.00 | 46 | 1013.3 |
| 20260506213216 | 54 | 297 | 6.0 | 11.0 | 0.00 | 0.00 | 0.00 | 47 | 1013.2 |
| 20260506213126 | 54 | 288 | 5.0 | 11.0 | 0.00 | 0.00 | 0.00 | 48 | 1013.1 |
| 20260506213049 | 54 | 266 | 4.0 | 11.0 | 0.00 | 0.00 | 0.00 | 47 | 1013.2 |
| 20260506212917 | 54 | 273 | 3.0 | 10.0 | 0.00 | 0.00 | 0.00 | 46 | 1013.2 |
| 20260506212828 | 54 | 267 | 3.0 | 10.0 | 0.00 | 0.00 | 0.00 | 46 | 1013.1 |
| 20260506212738 | 54 | 252 | 4.0 | 10.0 | 0.00 | 0.00 | 0.00 | 47 | 1013.2 |
| 20260506212627 | 54 | 291 | 6.0 | 10.0 | 0.00 | 0.00 | 0.00 | 44 | 1013.2 |
| 20260506212502 | 54 | 299 | 6.0 | 9.0 | 0.00 | 0.00 | 0.00 | 46 | 1013.2 |
| 20260506212413 | 54 | 325 | 4.0 | 9.0 | 0.00 | 0.00 | 0.00 | 47 | 1013.2 |
| 20260506212307 | 54 | 265 | 3.0 | 9.0 | 0.00 | 0.00 | 0.00 | 46 | 1013.2 |
| 20260506212217 | 54 | 276 | 3.0 | 11.0 | 0.00 | 0.00 | 0.00 | 46 | 1013.2 |
| 20260506212107 | 54 | 274 | 4.0 | 11.0 | 0.00 | 0.00 | 0.00 | 45 | 1013.2 |
| 20260506212018 | 54 | 278 | 5.0 | 11.0 | 0.00 | 0.00 | 0.00 | 45 | 1013.2 |
| 20260506211928 | 54 | 265 | 4.0 | 11.0 | 0.00 | 0.00 | 0.00 | 45 | 1013.2 |
| 20260506211818 | 54 | 243 | 3.0 | 11.0 | 0.00 | 0.00 | 0.00 | 47 | 1013.2 |
| 20260506211728 | 54 | 304 | 4.0 | 11.0 | 0.00 | 0.00 | 0.00 | 46 | 1013.2 |
| 20260506211558 | 54 | 300 | 6.0 | 15.0 | 0.00 | 0.00 | 0.00 | 46 | 1013.2 |
| 20260506211523 | 54 | 316 | 6.0 | 15.0 | 0.00 | 0.00 | 0.00 | 45 | 1013.2 |
| 20260506211413 | 54 | 321 | 7.0 | 15.0 | 0.00 | 0.00 | 0.00 | 44 | 1013.2 |
| 20260506211324 | 54 | 275 | 6.0 | 15.0 | 0.00 | 0.00 | 0.00 | 45 | 1013.2 |
| 20260506211214 | 54 | 304 | 6.0 | 15.0 | 0.00 | 0.00 | 0.00 | 46 | 1013.2 |
| 20260506211125 | 54 | 263 | 5.0 | 15.0 | 0.00 | 0.00 | 0.00 | 44 | 1013.2 |
| 20260506211035 | 54 | 253 | 6.0 | 15.0 | 0.00 | 0.00 | 0.00 | 42 | 1013.3 |
| 20260506210902 | 54 | 310 | 8.0 | 15.0 | 0.00 | 0.00 | 0.00 | 42 | 1013.2 |
| 20260506210813 | 54 | 304 | 6.0 | 15.0 | 0.00 | 0.00 | 0.00 | 42 | 1013.2 |
| 20260506210704 | 54 | 255 | 4.0 | 12.0 | 0.00 | 0.00 | 0.00 | 46 | 1013.2 |
| 20260506210615 | 54 | 223 | 3.0 | 12.0 | 0.00 | 0.00 | 0.00 | 45 | 1013.2 |
| 20260506210511 | 54 | 284 | 3.0 | 12.0 | 0.00 | 0.00 | 0.00 | 47 | 1013.2 |
| 20260506210401 | 54 | 249 | 6.0 | 12.0 | 0.00 | 0.00 | 0.00 | 45 | 1013.2 |
| 20260506210313 | 54 | 281 | 7.0 | 12.0 | 0.00 | 0.00 | 0.00 | 43 | 1013.2 |
| 20260506210222 | 54 | 319 | 7.0 | 12.0 | 0.00 | 0.00 | 0.00 | 43 | 1013.2 |
| 20260506210132 | 54 | 296 | 8.0 | 12.0 | 0.00 | 0.00 | 0.00 | 44 | 1013.3 |
| 20260506210055 | 54 | 265 | 8.0 | 12.0 | 0.00 | 0.00 | 0.00 | 45 | 1013.3 |
| 20260506205923 | 54 | 305 | 8.0 | 12.0 | 0.00 | 0.00 | 0.00 | 45 | 1013.3 |
| 20260506205835 | 54 | 292 | 7.0 | 11.0 | 0.00 | 0.00 | 0.00 | 44 | 1013.3 |
| 20260506205704 | 54 | 303 | 4.0 | 13.0 | 0.00 | 0.00 | 0.00 | 45 | 1013.3 |
| 20260506205614 | 54 | 317 | 3.0 | 13.0 | 0.00 | 0.00 | 0.00 | 45 | 1013.2 |
| 20260506205509 | 54 | 248 | 3.0 | 13.0 | 0.00 | 0.00 | 0.00 | 47 | 1013.3 |
| 20260506205420 | 54 | 305 | 5.0 | 13.0 | 0.00 | 0.00 | 0.00 | 46 | 1013.3 |
| 20260506205329 | 54 | 302 | 6.0 | 13.0 | 0.00 | 0.00 | 0.00 | 44 | 1013.3 |
| 20260506205159 | 54 | 325 | 7.0 | 13.0 | 0.00 | 0.00 | 0.00 | 44 | 1013.3 |
| 20260506205109 | 54 | 300 | 7.0 | 13.0 | 0.00 | 0.00 | 0.00 | 44 | 1013.2 |
| 20260506205000 | 54 | 307 | 6.0 | 13.0 | 0.00 | 0.00 | 0.00 | 45 | 1013.3 |
| 20260506204910 | 54 | 259 | 6.0 | 13.0 | 0.00 | 0.00 | 0.00 | 44 | 1013.4 |
| 20260506204803 | 54 | 300 | 7.0 | 12.0 | 0.00 | 0.00 | 0.00 | 45 | 1013.4 |
| 20260506204713 | 54 | 309 | 7.0 | 13.0 | 0.00 | 0.00 | 0.00 | 44 | 1013.4 |
| 20260506204624 | 54 | 301 | 7.0 | 13.0 | 0.00 | 0.00 | 0.00 | 44 | 1013.4 |
| 20260506204550 | 54 | 232 | 5.0 | 13.0 | 0.00 | 0.00 | 0.00 | 45 | 1013.4 |
| 20260506204418 | 54 | 271 | 5.0 | 13.0 | 0.00 | 0.00 | 0.00 | 45 | 1013.4 |
| 20260506204309 | 54 | 320 | 4.0 | 13.0 | 0.00 | 0.00 | 0.00 | 45 | 1013.5 |
| 20260506204220 | 54 | 227 | 4.0 | 13.0 | 0.00 | 0.00 | 0.00 | 44 | 1013.5 |
| 20260506204110 | 54 | 266 | 5.0 | 13.0 | 0.00 | 0.00 | 0.00 | 46 | 1013.5 |
| 20260506204000 | 54 | 279 | 8.0 | 13.0 | 0.00 | 0.00 | 0.00 | 45 | 1013.5 |
| 20260506203910 | 54 | 251 | 9.0 | 13.0 | 0.00 | 0.00 | 0.00 | 43 | 1013.6 |
| 20260506203800 | 54 | 295 | 8.0 | 12.0 | 0.00 | 0.00 | 0.00 | 44 | 1013.5 |
| 20260506203712 | 54 | 304 | 5.0 | 12.0 | 0.00 | 0.00 | 0.00 | 44 | 1013.5 |
| 20260506203623 | 54 | 234 | 4.0 | 12.0 | 0.00 | 0.00 | 0.00 | 46 | 1013.5 |
| 20260506203518 | 54 | 267 | 6.0 | 12.0 | 0.00 | 0.00 | 0.00 | 44 | 1013.4 |
| 20260506203428 | 54 | 286 | 7.0 | 12.0 | 0.00 | 0.00 | 0.00 | 43 | 1013.5 |
| 20260506203321 | 54 | 327 | 6.0 | 12.0 | 0.00 | 0.00 | 0.00 | 47 | 1013.6 |
| 20260506203231 | 54 | 222 | 4.0 | 12.0 | 0.00 | 0.00 | 0.00 | 44 | 1013.5 |
| 20260506203100 | 54 | 234 | 4.0 | 14.0 | 0.00 | 0.00 | 0.00 | 44 | 1013.7 |
| 20260506203022 | 54 | 284 | 6.0 | 14.0 | 0.00 | 0.00 | 0.00 | 44 | 1013.6 |
| 20260506202911 | 54 | 300 | 5.0 | 14.0 | 0.00 | 0.00 | 0.00 | 43 | 1013.7 |
| 20260506202802 | 54 | 303 | 5.0 | 14.0 | 0.00 | 0.00 | 0.00 | 44 | 1013.7 |
| 20260506202712 | 54 | 311 | 5.0 | 14.0 | 0.00 | 0.00 | 0.00 | 44 | 1013.8 |
| 20260506202621 | 54 | 245 | 5.0 | 14.0 | 0.00 | 0.00 | 0.00 | 47 | 1013.8 |
| 20260506202532 | 54 | 234 | 8.0 | 14.0 | 0.00 | 0.00 | 0.00 | 44 | 1013.7 |
| 20260506202425 | 54 | 280 | 9.0 | 14.0 | 0.00 | 0.00 | 0.00 | 44 | 1013.9 |
| 20260506202316 | 54 | 287 | 8.0 | 14.0 | 0.00 | 0.00 | 0.00 | 44 | 1013.8 |
| 20260506202207 | 54 | 282 | 7.0 | 14.0 | 0.00 | 0.00 | 0.00 | 44 | 1013.9 |
| 20260506202117 | 54 | 309 | 7.0 | 14.0 | 0.00 | 0.00 | 0.00 | 45 | 1013.8 |
| 20260506202007 | 54 | 257 | 6.0 | 14.0 | 0.00 | 0.00 | 0.00 | 44 | 1013.8 |
| 20260506201858 | 54 | 251 | 5.0 | 14.0 | 0.00 | 0.00 | 0.00 | 47 | 1013.8 |
| 20260506201808 | 54 | 296 | 7.0 | 14.0 | 0.00 | 0.00 | 0.00 | 45 | 1013.8 |
| 20260506201719 | 54 | 254 | 8.0 | 14.0 | 0.00 | 0.00 | 0.00 | 42 | 1013.9 |
| 20260506201610 | 54 | 305 | 8.0 | 14.0 | 0.00 | 0.00 | 0.00 | 43 | 1013.8 |
| 20260506201532 | 54 | 283 | 9.0 | 14.0 | 0.00 | 0.00 | 0.00 | 43 | 1013.9 |
| 20260506201406 | 54 | 306 | 8.0 | 14.0 | 0.00 | 0.00 | 0.00 | 43 | 1013.9 |
| 20260506201317 | 54 | 294 | 8.0 | 14.0 | 0.00 | 0.00 | 0.00 | 44 | 1014.0 |
| 20260506201228 | 54 | 283 | 9.0 | 14.0 | 0.00 | 0.00 | 0.00 | 44 | 1013.9 |
| 20260506201118 | 54 | 317 | 8.0 | 14.0 | 0.00 | 0.00 | 0.00 | 43 | 1013.9 |
| 20260506201006 | 54 | 277 | 4.0 | 12.0 | 0.00 | 0.00 | 0.00 | 44 | 1014.1 |
| 20260506200917 | 54 | 284 | 5.0 | 13.0 | 0.00 | 0.00 | 0.00 | 46 | 1014.0 |
| 20260506200809 | 54 | 266 | 7.0 | 15.0 | 0.00 | 0.00 | 0.00 | 43 | 1014.0 |
| 20260506200700 | 54 | 300 | 5.0 | 15.0 | 0.00 | 0.00 | 0.00 | 44 | 1014.0 |
| 20260506200611 | 54 | 258 | 5.0 | 15.0 | 0.00 | 0.00 | 0.00 | 45 | 1014.0 |
| 20260506200505 | 54 | 246 | 6.0 | 15.0 | 0.00 | 0.00 | 0.00 | 44 | 1014.0 |
| 20260506200417 | 54 | 269 | 5.0 | 15.0 | 0.00 | 0.00 | 0.00 | 46 | 1014.1 |
| 20260506200309 | 54 | 262 | 7.0 | 15.0 | 0.00 | 0.00 | 0.00 | 44 | 1014.1 |
| 20260506200158 | 54 | 290 | 8.0 | 15.0 | 0.00 | 0.00 | 0.00 | 43 | 1014.1 |
| 20260506200105 | 54 | 291 | 7.0 | 15.0 | 0.00 | 0.00 | 0.00 | 45 | 1014.0 |
| 20260506200027 | 54 | 274 | 7.0 | 15.0 | 0.00 | 0.00 | 0.00 | 46 | 1014.0 |
| 20260506195858 | 54 | 304 | 7.0 | 15.0 | 0.00 | 0.00 | 0.00 | 44 | 1014.0 |
| 20260506195809 | 54 | 315 | 6.0 | 15.0 | 0.00 | 0.00 | 0.00 | 44 | 1014.1 |
| 20260506195720 | 54 | 309 | 8.0 | 15.0 | 0.00 | 0.00 | 0.00 | 44 | 1014.1 |
| 20260506195609 | 54 | 306 | 8.0 | 15.0 | 0.00 | 0.00 | 0.00 | 43 | 1014.1 |
| 20260506195502 | 54 | 328 | 8.0 | 15.0 | 0.00 | 0.00 | 0.00 | 44 | 1014.1 |
| 20260506195415 | 54 | 311 | 8.0 | 15.0 | 0.00 | 0.00 | 0.00 | 42 | 1014.1 |
| 20260506195306 | 54 | 302 | 9.0 | 15.0 | 0.00 | 0.00 | 0.00 | 43 | 1014.1 |
| 20260506195217 | 54 | 277 | 8.0 | 15.0 | 0.00 | 0.00 | 0.00 | 44 | 1014.1 |
| 20260506195128 | 54 | 294 | 5.0 | 12.0 | 0.00 | 0.00 | 0.00 | 47 | 1014.0 |
| 20260506195040 | 54 | 267 | 3.0 | 12.0 | 0.00 | 0.00 | 0.00 | 48 | 1014.0 |
| 20260506194930 | 54 | 262 | 4.0 | 12.0 | 0.00 | 0.00 | 0.00 | 42 | 1014.0 |
| 20260506194820 | 54 | 313 | 5.0 | 15.0 | 0.00 | 0.00 | 0.00 | 42 | 1014.1 |
| 20260506194732 | 54 | 312 | 7.0 | 15.0 | 0.00 | 0.00 | 0.00 | 44 | 1014.1 |
| 20260506194643 | 54 | 277 | 7.0 | 15.0 | 0.00 | 0.00 | 0.00 | 44 | 1014.2 |
| 20260506194544 | 54 | 298 | 5.0 | 15.0 | 0.00 | 0.00 | 0.00 | 46 | 1014.1 |
| 20260506194417 | 54 | 254 | 4.0 | 15.0 | 0.00 | 0.00 | 0.00 | 49 | 1014.1 |
| 20260506194308 | 54 | 287 | 6.0 | 15.0 | 0.00 | 0.00 | 0.00 | 45 | 1014.2 |
| 20260506194220 | 54 | 290 | 9.0 | 15.0 | 0.00 | 0.00 | 0.00 | 44 | 1014.2 |
| 20260506194111 | 54 | 296 | 11.0 | 15.0 | 0.00 | 0.00 | 0.00 | 41 | 1014.1 |
| 20260506194000 | 54 | 293 | 10.0 | 15.0 | 0.00 | 0.00 | 0.00 | 42 | 1014.2 |
| 20260506193910 | 54 | 282 | 9.0 | 14.0 | 0.00 | 0.00 | 0.00 | 43 | 1014.2 |
| 20260506193802 | 54 | 305 | 8.0 | 14.0 | 0.00 | 0.00 | 0.00 | 43 | 1014.2 |
| 20260506193713 | 55 | 289 | 10.0 | 14.0 | 0.00 | 0.00 | 0.00 | 43 | 1014.1 |
| 20260506193623 | 55 | 287 | 8.0 | 14.0 | 0.00 | 0.00 | 0.00 | 43 | 1014.2 |
| 20260506193459 | 55 | 348 | 5.0 | 11.0 | 0.00 | 0.00 | 0.00 | 47 | 1014.3 |
| 20260506193411 | 54 | 254 | 5.0 | 11.0 | 0.00 | 0.00 | 0.00 | 45 | 1014.3 |
| 20260506193323 | 54 | 281 | 5.0 | 11.0 | 0.00 | 0.00 | 0.00 | 45 | 1014.2 |
| 20260506193231 | 54 | 301 | 5.0 | 11.0 | 0.00 | 0.00 | 0.00 | 45 | 1014.2 |
| 20260506193100 | 55 | 252 | 7.0 | 11.0 | 0.00 | 0.00 | 0.00 | 44 | 1014.2 |
| 20260506193022 | 55 | 281 | 7.0 | 11.0 | 0.00 | 0.00 | 0.00 | 41 | 1014.2 |
| 20260506192912 | 55 | 266 | 7.0 | 11.0 | 0.00 | 0.00 | 0.00 | 43 | 1014.3 |
| 20260506192822 | 55 | 309 | 7.0 | 11.0 | 0.00 | 0.00 | 0.00 | 42 | 1014.3 |
| 20260506192711 | 55 | 275 | 6.0 | 11.0 | 0.00 | 0.00 | 0.00 | 46 | 1014.3 |
| 20260506192602 | 55 | 271 | 6.0 | 11.0 | 0.00 | 0.00 | 0.00 | 45 | 1014.2 |
| 20260506192512 | 55 | 271 | 5.0 | 11.0 | 0.00 | 0.00 | 0.00 | 49 | 1014.3 |
| 20260506192407 | 55 | 242 | 6.0 | 10.0 | 0.00 | 0.00 | 0.00 | 45 | 1014.3 |
| 20260506192318 | 55 | 247 | 6.0 | 10.0 | 0.00 | 0.00 | 0.00 | 45 | 1014.3 |
| 20260506192207 | 55 | 280 | 5.0 | 10.0 | 0.00 | 0.00 | 0.00 | 47 | 1014.3 |
| 20260506192057 | 54 | 319 | 4.0 | 10.0 | 0.00 | 0.00 | 0.00 | 49 | 1014.3 |
| 20260506192008 | 54 | 271 | 4.0 | 10.0 | 0.00 | 0.00 | 0.00 | 44 | 1014.3 |
| 20260506191918 | 54 | 265 | 5.0 | 10.0 | 0.00 | 0.00 | 0.00 | 45 | 1014.2 |
| 20260506191828 | 54 | 301 | 5.0 | 10.0 | 0.00 | 0.00 | 0.00 | 46 | 1014.3 |
| 20260506191719 | 54 | 259 | 5.0 | 10.0 | 0.00 | 0.00 | 0.00 | 46 | 1014.2 |
| 20260506191609 | 54 | 277 | 5.0 | 10.0 | 0.00 | 0.00 | 0.00 | 46 | 1014.2 |
| 20260506191531 | 54 | 251 | 5.0 | 10.0 | 0.00 | 0.00 | 0.00 | 46 | 1014.2 |
| 20260506191424 | 54 | 306 | 4.0 | 10.0 | 0.00 | 0.00 | 0.00 | 46 | 1014.3 |
| 20260506191335 | 54 | 313 | 5.0 | 16.0 | 0.00 | 0.00 | 0.00 | 44 | 1014.3 |
| 20260506191206 | 54 | 261 | 6.0 | 16.0 | 0.00 | 0.00 | 0.00 | 45 | 1014.2 |
| 20260506191117 | 54 | 248 | 7.0 | 16.0 | 0.00 | 0.00 | 0.00 | 45 | 1014.3 |
| 20260506191027 | 54 | 230 | 6.0 | 16.0 | 0.00 | 0.00 | 0.00 | 47 | 1014.2 |
| 20260506190915 | 54 | 265 | 5.0 | 16.0 | 0.00 | 0.00 | 0.00 | 45 | 1014.2 |
| 20260506190808 | 54 | 250 | 3.0 | 16.0 | 0.00 | 0.00 | 0.00 | 43 | 1014.2 |
| 20260506190700 | 54 | 279 | 5.0 | 16.0 | 0.00 | 0.00 | 0.00 | 43 | 1014.3 |
| 20260506190610 | 54 | 266 | 8.0 | 16.0 | 0.00 | 0.00 | 0.00 | 42 | 1014.3 |
| 20260506190504 | 54 | 286 | 11.0 | 16.0 | 0.00 | 0.00 | 0.00 | 43 | 1014.3 |
| 20260506190414 | 54 | 269 | 9.0 | 16.0 | 0.00 | 0.00 | 0.00 | 45 | 1014.2 |
| 20260506190306 | 54 | 299 | 7.0 | 15.0 | 0.00 | 0.00 | 0.00 | 44 | 1014.1 |
| 20260506190216 | 53 | 285 | 5.0 | 15.0 | 0.00 | 0.00 | 0.00 | 49 | 1014.1 |
| 20260506190107 | 53 | 350 | 5.0 | 15.0 | 0.00 | 0.00 | 0.00 | 48 | 1014.1 |
| 20260506190031 | 53 | 276 | 6.0 | 15.0 | 0.00 | 0.00 | 0.00 | 46 | 1014.1 |
| 20260506185901 | 53 | 293 | 8.0 | 15.0 | 0.00 | 0.00 | 0.00 | 42 | 1014.1 |
| 20260506185812 | 53 | 291 | 9.0 | 15.0 | 0.00 | 0.00 | 0.00 | 45 | 1014.1 |
| 20260506185703 | 53 | 303 | 11.0 | 15.0 | 0.00 | 0.00 | 0.00 | 43 | 1014.1 |
| 20260506185617 | 53 | 292 | 10.0 | 15.0 | 0.00 | 0.00 | 0.00 | 43 | 1014.0 |
| 20260506185508 | 53 | 282 | 6.0 | 15.0 | 0.00 | 0.00 | 0.00 | 46 | 1014.1 |
| 20260506185419 | 53 | 309 | 7.0 | 15.0 | 0.00 | 0.00 | 0.00 | 48 | 1014.2 |
| 20260506185332 | 53 | 360 | 8.0 | 15.0 | 0.00 | 0.00 | 0.00 | 43 | 1014.1 |
| 20260506185200 | 53 | 315 | 7.0 | 15.0 | 0.00 | 0.00 | 0.00 | 46 | 1014.3 |
| 20260506185112 | 53 | 279 | 7.0 | 15.0 | 0.00 | 0.00 | 0.00 | 44 | 1014.2 |
| 20260506185022 | 53 | 328 | 9.0 | 17.0 | 0.00 | 0.00 | 0.00 | 43 | 1014.2 |
| 20260506184932 | 53 | 270 | 9.0 | 17.0 | 0.00 | 0.00 | 0.00 | 44 | 1014.2 |
| 20260506184802 | 53 | 278 | 6.0 | 17.0 | 0.00 | 0.00 | 0.00 | 45 | 1014.2 |
| 20260506184712 | 53 | 284 | 6.0 | 17.0 | 0.00 | 0.00 | 0.00 | 45 | 1014.2 |
| 20260506184607 | 53 | 336 | 7.0 | 17.0 | 0.00 | 0.00 | 0.00 | 43 | 1014.2 |
| 20260506184528 | 53 | 321 | 7.0 | 17.0 | 0.00 | 0.00 | 0.00 | 44 | 1014.2 |
| 20260506184419 | 53 | 315 | 8.0 | 17.0 | 0.00 | 0.00 | 0.00 | 43 | 1014.3 |
| 20260506184329 | 53 | 317 | 9.0 | 17.0 | 0.00 | 0.00 | 0.00 | 44 | 1014.2 |
| 20260506184159 | 53 | 327 | 10.0 | 17.0 | 0.00 | 0.00 | 0.00 | 43 | 1014.2 |
| 20260506184110 | 53 | 306 | 7.0 | 15.0 | 0.00 | 0.00 | 0.00 | 44 | 1014.1 |
| 20260506184001 | 53 | 317 | 5.0 | 15.0 | 0.00 | 0.00 | 0.00 | 44 | 1014.3 |
| 20260506183910 | 53 | 263 | 7.0 | 15.0 | 0.00 | 0.00 | 0.00 | 43 | 1014.2 |
| 20260506183802 | 53 | 211 | 8.0 | 15.0 | 0.00 | 0.00 | 0.00 | 42 | 1014.3 |
| 20260506183718 | 53 | 268 | 8.0 | 15.0 | 0.00 | 0.00 | 0.00 | 42 | 1014.3 |
| 20260506183630 | 53 | 296 | 10.0 | 15.0 | 0.00 | 0.00 | 0.00 | 42 | 1014.3 |
| 20260506183519 | 53 | 304 | 7.0 | 15.0 | 0.00 | 0.00 | 0.00 | 45 | 1014.2 |
| 20260506183429 | 53 | 286 | 3.0 | 12.0 | 0.00 | 0.00 | 0.00 | 44 | 1014.2 |
| 20260506183300 | 53 | 297 | 3.0 | 12.0 | 0.00 | 0.00 | 0.00 | 45 | 1014.3 |
| 20260506183211 | 53 | 285 | 3.0 | 13.0 | 0.00 | 0.00 | 0.00 | 45 | 1014.4 |
| 20260506183102 | 53 | 273 | 5.0 | 13.0 | 0.00 | 0.00 | 0.00 | 45 | 1014.4 |
| 20260506183024 | 53 | 291 | 6.0 | 13.0 | 0.00 | 0.00 | 0.00 | 46 | 1014.4 |
| 20260506182913 | 53 | 261 | 7.0 | 16.0 | 0.00 | 0.00 | 0.00 | 43 | 1014.3 |
| 20260506182804 | 53 | 291 | 8.0 | 16.0 | 0.00 | 0.00 | 0.00 | 41 | 1014.3 |
| 20260506182659 | 53 | 298 | 8.0 | 16.0 | 0.00 | 0.00 | 0.00 | 42 | 1014.2 |
| 20260506182609 | 53 | 316 | 9.0 | 16.0 | 0.00 | 0.00 | 0.00 | 40 | 1014.2 |
| 20260506182521 | 53 | 304 | 8.0 | 16.0 | 0.00 | 0.00 | 0.00 | 43 | 1014.2 |
| 20260506182411 | 54 | 299 | 8.0 | 16.0 | 0.00 | 0.00 | 0.00 | 43 | 1014.2 |
| 20260506182306 | 54 | 300 | 8.0 | 16.0 | 0.00 | 0.00 | 0.00 | 44 | 1014.3 |
| 20260506182215 | 54 | 273 | 8.0 | 16.0 | 0.00 | 0.00 | 0.00 | 45 | 1014.2 |
| 20260506182125 | 54 | 282 | 8.0 | 16.0 | 0.00 | 0.00 | 0.00 | 45 | 1014.2 |
| 20260506182037 | 54 | 242 | 6.0 | 12.0 | 0.00 | 0.00 | 0.00 | 45 | 1014.1 |
| 20260506181907 | 54 | 202 | 5.0 | 11.0 | 0.00 | 0.00 | 0.00 | 45 | 1014.3 |
| 20260506181819 | 54 | 253 | 3.0 | 11.0 | 0.00 | 0.00 | 0.00 | 42 | 1014.3 |
| 20260506181733 | 54 | 254 | 4.0 | 11.0 | 0.00 | 0.00 | 0.00 | 47 | 1014.3 |
| 20260506181603 | 53 | 306 | 5.0 | 11.0 | 0.00 | 0.00 | 0.00 | 47 | 1014.3 |
| 20260506181524 | 53 | 277 | 4.0 | 11.0 | 0.00 | 0.00 | 0.00 | 46 | 1014.3 |
| 20260506181413 | 53 | 269 | 4.0 | 9.0 | 0.00 | 0.00 | 0.00 | 45 | 1014.2 |
| 20260506181324 | 53 | 304 | 4.0 | 9.0 | 0.00 | 0.00 | 0.00 | 51 | 1014.3 |
| 20260506181236 | 53 | 236 | 4.0 | 9.0 | 0.00 | 0.00 | 0.00 | 45 | 1014.3 |
| 20260506181106 | 53 | 9 | 3.0 | 9.0 | 0.00 | 0.00 | 0.00 | 48 | 1014.3 |
| 20260506180958 | 53 | 360 | 3.0 | 11.0 | 0.00 | 0.00 | 0.00 | 47 | 1014.3 |
| 20260506180908 | 53 | 255 | 4.0 | 14.0 | 0.00 | 0.00 | 0.00 | 44 | 1014.2 |
| 20260506180803 | 53 | 289 | 5.0 | 15.0 | 0.00 | 0.00 | 0.00 | 47 | 1014.2 |
| 20260506180714 | 53 | 271 | 5.0 | 15.0 | 0.00 | 0.00 | 0.00 | 47 | 1014.2 |
| 20260506180604 | 53 | 282 | 4.0 | 15.0 | 0.00 | 0.00 | 0.00 | 45 | 1014.2 |
| 20260506180515 | 53 | 219 | 3.0 | 15.0 | 0.00 | 0.00 | 0.00 | 46 | 1014.3 |
| 20260506180425 | 53 | 283 | 4.0 | 15.0 | 0.00 | 0.00 | 0.00 | 44 | 1014.3 |
| 20260506180317 | 53 | 259 | 6.0 | 15.0 | 0.00 | 0.00 | 0.00 | 46 | 1014.3 |
| 20260506180225 | 53 | 248 | 7.0 | 15.0 | 0.00 | 0.00 | 0.00 | 42 | 1014.4 |
| 20260506180136 | 53 | 302 | 9.0 | 15.0 | 0.00 | 0.00 | 0.00 | 43 | 1014.4 |
| 20260506180036 | 53 | 277 | 8.0 | 15.0 | 0.00 | 0.00 | 0.00 | 44 | 1014.3 |
| 20260506175905 | 53 | 274 | 3.0 | 13.0 | 0.00 | 0.00 | 0.00 | 49 | 1014.3 |
| 20260506175817 | 53 | 296 | 3.0 | 13.0 | 0.00 | 0.00 | 0.00 | 47 | 1014.4 |
| 20260506175732 | 52 | 304 | 4.0 | 13.0 | 0.00 | 0.00 | 0.00 | 48 | 1014.4 |
| 20260506175601 | 52 | 305 | 6.0 | 13.0 | 0.00 | 0.00 | 0.00 | 45 | 1014.4 |
| 20260506175511 | 52 | 280 | 6.0 | 13.0 | 0.00 | 0.00 | 0.00 | 43 | 1014.5 |
| 20260506175403 | 53 | 5 | 7.0 | 16.0 | 0.00 | 0.00 | 0.00 | 44 | 1014.4 |
| 20260506175314 | 53 | 335 | 7.0 | 16.0 | 0.00 | 0.00 | 0.00 | 45 | 1014.5 |
| 20260506175204 | 53 | 344 | 8.0 | 16.0 | 0.00 | 0.00 | 0.00 | 45 | 1014.5 |
| 20260506175116 | 53 | 328 | 6.0 | 16.0 | 0.00 | 0.00 | 0.00 | 42 | 1014.5 |
| 20260506175027 | 53 | 312 | 4.0 | 16.0 | 0.00 | 0.00 | 0.00 | 42 | 1014.4 |
| 20260506174917 | 53 | 284 | 4.0 | 16.0 | 0.00 | 0.00 | 0.00 | 42 | 1014.5 |
| 20260506174811 | 53 | 291 | 7.0 | 16.0 | 0.00 | 0.00 | 0.00 | 42 | 1014.4 |
| 20260506174703 | 54 | 296 | 8.0 | 16.0 | 0.00 | 0.00 | 0.00 | 43 | 1014.5 |
| 20260506174613 | 54 | 288 | 6.0 | 16.0 | 0.00 | 0.00 | 0.00 | 51 | 1014.4 |
| 20260506174535 | 54 | 287 | 4.0 | 11.0 | 0.00 | 0.00 | 0.00 | 48 | 1014.4 |
| 20260506174424 | 53 | 275 | 4.0 | 11.0 | 0.00 | 0.00 | 0.00 | 51 | 1014.2 |
| 20260506174335 | 53 | 326 | 5.0 | 11.0 | 0.00 | 0.00 | 0.00 | 51 | 1014.4 |
| 20260506174204 | 53 | 250 | 8.0 | 11.0 | 0.00 | 0.00 | 0.00 | 48 | 1014.3 |
| 20260506174114 | 53 | 308 | 6.0 | 15.0 | 0.00 | 0.00 | 0.00 | 47 | 1014.2 |
| 20260506174005 | 53 | 291 | 5.0 | 15.0 | 0.00 | 0.00 | 0.00 | 49 | 1014.3 |
| 20260506173900 | 53 | 324 | 5.0 | 15.0 | 0.00 | 0.00 | 0.00 | 48 | 1014.3 |
| 20260506173810 | 53 | 318 | 3.0 | 15.0 | 0.00 | 0.00 | 0.00 | 48 | 1014.2 |
| 20260506173701 | 53 | 252 | 3.0 | 15.0 | 0.00 | 0.00 | 0.00 | 47 | 1014.2 |
| 20260506173611 | 53 | 294 | 4.0 | 15.0 | 0.00 | 0.00 | 0.00 | 49 | 1014.2 |
| 20260506173502 | 53 | 277 | 4.0 | 15.0 | 0.00 | 0.00 | 0.00 | 49 | 1014.2 |
| 20260506173413 | 52 | 267 | 7.0 | 15.0 | 0.00 | 0.00 | 0.00 | 46 | 1014.2 |
| 20260506173304 | 53 | 296 | 8.0 | 15.0 | 0.00 | 0.00 | 0.00 | 44 | 1014.2 |
| 20260506173212 | 53 | 296 | 5.0 | 12.0 | 0.00 | 0.00 | 0.00 | 46 | 1014.2 |
| 20260506173122 | 52 | 288 | 5.0 | 14.0 | 0.00 | 0.00 | 0.00 | 46 | 1014.2 |
| 20260506173044 | 52 | 257 | 4.0 | 14.0 | 0.00 | 0.00 | 0.00 | 50 | 1014.1 |
| 20260506172916 | 52 | 261 | 3.0 | 14.0 | 0.00 | 0.00 | 0.00 | 51 | 1014.2 |
| 20260506172808 | 52 | 289 | 5.0 | 14.0 | 0.00 | 0.00 | 0.00 | 47 | 1014.2 |
| 20260506172658 | 52 | 283 | 6.0 | 14.0 | 0.00 | 0.00 | 0.00 | 46 | 1014.1 |
| 20260506172608 | 52 | 307 | 8.0 | 14.0 | 0.00 | 0.00 | 0.00 | 43 | 1014.1 |
| 20260506172520 | 52 | 317 | 9.0 | 14.0 | 0.00 | 0.00 | 0.00 | 46 | 1014.2 |
| 20260506172409 | 52 | 316 | 8.0 | 14.0 | 0.00 | 0.00 | 0.00 | 44 | 1014.1 |
| 20260506172319 | 52 | 317 | 8.0 | 14.0 | 0.00 | 0.00 | 0.00 | 47 | 1014.1 |
| 20260506172231 | 52 | 307 | 5.0 | 10.0 | 0.00 | 0.00 | 0.00 | 50 | 1014.1 |
| 20260506172101 | 52 | 242 | 4.0 | 9.0 | 0.00 | 0.00 | 0.00 | 50 | 1014.2 |
| 20260506172011 | 52 | 284 | 3.0 | 7.0 | 0.00 | 0.00 | 0.00 | 48 | 1014.1 |
| 20260506171906 | 52 | 265 | 3.0 | 7.0 | 0.00 | 0.00 | 0.00 | 49 | 1014.1 |
| 20260506171817 | 52 | 250 | 3.0 | 6.0 | 0.00 | 0.00 | 0.00 | 47 | 1014.1 |
| 20260506171708 | 52 | 282 | 3.0 | 8.0 | 0.00 | 0.00 | 0.00 | 48 | 1014.2 |
| 20260506171558 | 52 | 295 | 3.0 | 8.0 | 0.00 | 0.00 | 0.00 | 48 | 1014.2 |
| 20260506171521 | 52 | 322 | 3.0 | 8.0 | 0.00 | 0.00 | 0.00 | 47 | 1014.1 |
| 20260506171409 | 52 | 329 | 4.0 | 10.0 | 0.00 | 0.00 | 0.00 | 47 | 1014.2 |
| 20260506171320 | 52 | 329 | 4.0 | 10.0 | 0.00 | 0.00 | 0.00 | 47 | 1014.1 |
| 20260506171230 | 52 | 273 | 3.0 | 10.0 | 0.00 | 0.00 | 0.00 | 48 | 1014.2 |
| 20260506171141 | 51 | 253 | 3.0 | 10.0 | 0.00 | 0.00 | 0.00 | 49 | 1014.2 |
| 20260506171030 | 51 | 272 | 3.0 | 10.0 | 0.00 | 0.00 | 0.00 | 49 | 1014.2 |
| 20260506170924 | 51 | 274 | 3.0 | 10.0 | 0.00 | 0.00 | 0.00 | 49 | 1014.3 |
| 20260506170813 | 51 | 294 | 3.0 | 10.0 | 0.00 | 0.00 | 0.00 | 49 | 1014.2 |
| 20260506170704 | 51 | 297 | 5.0 | 10.0 | 0.00 | 0.00 | 0.00 | 45 | 1014.2 |
| 20260506170615 | 51 | 286 | 5.0 | 12.0 | 0.00 | 0.00 | 0.00 | 47 | 1014.3 |
| 20260506170506 | 51 | 288 | 5.0 | 12.0 | 0.00 | 0.00 | 0.00 | 47 | 1014.2 |
| 20260506170358 | 51 | 309 | 4.0 | 12.0 | 0.00 | 0.00 | 0.00 | 46 | 1014.2 |
| 20260506170311 | 51 | 300 | 4.0 | 12.0 | 0.00 | 0.00 | 0.00 | 45 | 1014.1 |
| 20260506170220 | 51 | 319 | 4.0 | 12.0 | 0.00 | 0.00 | 0.00 | 44 | 1014.1 |
| 20260506170111 | 51 | 321 | 4.0 | 12.0 | 0.00 | 0.00 | 0.00 | 44 | 1014.2 |
| 20260506170034 | 51 | 312 | 5.0 | 12.0 | 0.00 | 0.00 | 0.00 | 44 | 1014.2 |
| 20260506165907 | 51 | 284 | 7.0 | 13.0 | 0.00 | 0.00 | 0.00 | 45 | 1014.2 |
| 20260506165819 | 51 | 318 | 9.0 | 13.0 | 0.00 | 0.00 | 0.00 | 45 | 1014.2 |
| 20260506165708 | 52 | 325 | 8.0 | 13.0 | 0.00 | 0.00 | 0.00 | 46 | 1014.2 |
| 20260506165559 | 52 | 294 | 8.0 | 13.0 | 0.00 | 0.00 | 0.00 | 45 | 1014.1 |
| 20260506165511 | 52 | 301 | 6.0 | 13.0 | 0.00 | 0.00 | 0.00 | 46 | 1014.2 |
| 20260506165404 | 52 | 320 | 4.0 | 13.0 | 0.00 | 0.00 | 0.00 | 45 | 1014.2 |
| 20260506165315 | 52 | 306 | 7.0 | 13.0 | 0.00 | 0.00 | 0.00 | 45 | 1014.2 |
| 20260506165205 | 52 | 292 | 9.0 | 13.0 | 0.00 | 0.00 | 0.00 | 44 | 1014.3 |
| 20260506165059 | 52 | 313 | 8.0 | 12.0 | 0.00 | 0.00 | 0.00 | 44 | 1014.2 |
| 20260506165009 | 52 | 302 | 8.0 | 11.0 | 0.00 | 0.00 | 0.00 | 46 | 1014.3 |
| 20260506164859 | 52 | 294 | 7.0 | 11.0 | 0.00 | 0.00 | 0.00 | 45 | 1014.3 |
| 20260506164810 | 52 | 302 | 6.0 | 11.0 | 0.00 | 0.00 | 0.00 | 45 | 1014.2 |
| 20260506164720 | 52 | 293 | 6.0 | 11.0 | 0.00 | 0.00 | 0.00 | 46 | 1014.3 |
| 20260506164611 | 52 | 276 | 7.0 | 11.0 | 0.00 | 0.00 | 0.00 | 46 | 1014.3 |
| 20260506164533 | 52 | 272 | 6.0 | 11.0 | 0.00 | 0.00 | 0.00 | 50 | 1014.3 |
| 20260506164403 | 52 | 286 | 4.0 | 11.0 | 0.00 | 0.00 | 0.00 | 48 | 1014.2 |
| 20260506164313 | 52 | 263 | 4.0 | 11.0 | 0.00 | 0.00 | 0.00 | 52 | 1014.1 |
| 20260506164206 | 52 | 300 | 4.0 | 11.0 | 0.00 | 0.00 | 0.00 | 49 | 1014.2 |
| 20260506164120 | 51 | 348 | 5.0 | 11.0 | 0.00 | 0.00 | 0.00 | 46 | 1014.2 |
| 20260506164009 | 51 | 324 | 5.0 | 11.0 | 0.00 | 0.00 | 0.00 | 50 | 1014.1 |
| 20260506163919 | 51 | 350 | 5.0 | 11.0 | 0.00 | 0.00 | 0.00 | 48 | 1014.2 |
| 20260506163829 | 51 | 327 | 6.0 | 11.0 | 0.00 | 0.00 | 0.00 | 46 | 1014.2 |
| 20260506163658 | 51 | 28 | 5.0 | 11.0 | 0.00 | 0.00 | 0.00 | 46 | 1014.2 |
| 20260506163609 | 51 | 360 | 5.0 | 11.0 | 0.00 | 0.00 | 0.00 | 46 | 1014.2 |
| 20260506163500 | 51 | 15 | 4.0 | 14.0 | 0.00 | 0.00 | 0.00 | 46 | 1014.1 |
| 20260506163411 | 51 | 349 | 4.0 | 14.0 | 0.00 | 0.00 | 0.00 | 47 | 1014.1 |
| 20260506163303 | 52 | 302 | 6.0 | 14.0 | 0.00 | 0.00 | 0.00 | 45 | 1014.1 |
| 20260506163212 | 52 | 316 | 8.0 | 14.0 | 0.00 | 0.00 | 0.00 | 45 | 1014.3 |
| 20260506163106 | 52 | 311 | 8.0 | 14.0 | 0.00 | 0.00 | 0.00 | 46 | 1014.2 |
| 20260506163029 | 52 | 288 | 7.0 | 14.0 | 0.00 | 0.00 | 0.00 | 49 | 1014.2 |
| 20260506162858 | 52 | 338 | 6.0 | 14.0 | 0.00 | 0.00 | 0.00 | 48 | 1014.3 |
| 20260506162811 | 52 | 313 | 7.0 | 14.0 | 0.00 | 0.00 | 0.00 | 50 | 1014.3 |
| 20260506162701 | 52 | 339 | 7.0 | 14.0 | 0.00 | 0.00 | 0.00 | 47 | 1014.2 |
| 20260506162612 | 52 | 22 | 5.0 | 10.0 | 0.00 | 0.00 | 0.00 | 45 | 1014.2 |
| 20260506162504 | 52 | 11 | 5.0 | 9.0 | 0.00 | 0.00 | 0.00 | 47 | 1014.3 |
| 20260506162414 | 52 | 336 | 4.0 | 10.0 | 0.00 | 0.00 | 0.00 | 48 | 1014.3 |
| 20260506162325 | 52 | 298 | 2.0 | 10.0 | 0.00 | 0.00 | 0.00 | 51 | 1014.2 |
| 20260506162220 | 52 | 270 | 2.0 | 10.0 | 0.00 | 0.00 | 0.00 | 49 | 1014.3 |
| 20260506162130 | 52 | 334 | 2.0 | 10.0 | 0.00 | 0.00 | 0.00 | 45 | 1014.3 |
| 20260506162041 | 52 | 329 | 5.0 | 10.0 | 0.00 | 0.00 | 0.00 | 45 | 1014.2 |
| 20260506161930 | 52 | 326 | 3.0 | 10.0 | 0.00 | 0.00 | 0.00 | 48 | 1014.2 |
| 20260506161758 | 52 | 279 | 3.0 | 10.0 | 0.00 | 0.00 | 0.00 | 49 | 1014.2 |
| 20260506161710 | 52 | 252 | 5.0 | 10.0 | 0.00 | 0.00 | 0.00 | 47 | 1014.3 |
| 20260506161559 | 52 | 251 | 4.0 | 10.0 | 0.00 | 0.00 | 0.00 | 51 | 1014.3 |
| 20260506161521 | 52 | 246 | 4.0 | 10.0 | 0.00 | 0.00 | 0.00 | 51 | 1014.2 |
| 20260506161411 | 52 | 286 | 5.0 | 10.0 | 0.00 | 0.00 | 0.00 | 49 | 1014.2 |
| 20260506161322 | 52 | 258 | 6.0 | 10.0 | 0.00 | 0.00 | 0.00 | 50 | 1014.2 |
| 20260506161232 | 52 | 313 | 5.0 | 10.0 | 0.00 | 0.00 | 0.00 | 48 | 1014.2 |
| 20260506161105 | 52 | 262 | 3.0 | 6.0 | 0.00 | 0.00 | 0.00 | 47 | 1014.2 |
| 20260506161017 | 51 | 215 | 2.0 | 8.0 | 0.00 | 0.00 | 0.00 | 48 | 1014.2 |
| 20260506160907 | 51 | 302 | 1.0 | 8.0 | 0.00 | 0.00 | 0.00 | 48 | 1014.2 |
| 20260506160818 | 51 | 302 | 1.0 | 8.0 | 0.00 | 0.00 | 0.00 | 49 | 1014.2 |
| 20260506160730 | 51 | 292 | 2.0 | 8.0 | 0.00 | 0.00 | 0.00 | 47 | 1014.3 |
| 20260506160620 | 51 | 319 | 3.0 | 10.0 | 0.00 | 0.00 | 0.00 | 47 | 1014.4 |
| 20260506160530 | 51 | 340 | 4.0 | 10.0 | 0.00 | 0.00 | 0.00 | 47 | 1014.3 |
| 20260506160420 | 52 | 335 | 5.0 | 10.0 | 0.00 | 0.00 | 0.00 | 47 | 1014.4 |
| 20260506160312 | 52 | 325 | 4.0 | 10.0 | 0.00 | 0.00 | 0.00 | 49 | 1014.3 |
| 20260506160220 | 52 | 37 | 4.0 | 10.0 | 0.00 | 0.00 | 0.00 | 50 | 1014.3 |
| 20260506160132 | 52 | 360 | 3.0 | 10.0 | 0.00 | 0.00 | 0.00 | 49 | 1014.3 |
| 20260506160036 | 52 | 355 | 3.0 | 10.0 | 0.00 | 0.00 | 0.00 | 47 | 1014.3 |
| 20260506155906 | 52 | 21 | 6.0 | 10.0 | 0.00 | 0.00 | 0.00 | 48 | 1014.4 |
| 20260506155816 | 52 | 10 | 6.0 | 10.0 | 0.00 | 0.00 | 0.00 | 51 | 1014.3 |
| 20260506155708 | 52 | 355 | 4.0 | 10.0 | 0.00 | 0.00 | 0.00 | 51 | 1014.4 |
| 20260506155558 | 52 | 329 | 3.0 | 8.0 | 0.00 | 0.00 | 0.00 | 51 | 1014.4 |
| 20260506155510 | 52 | 323 | 3.0 | 8.0 | 0.00 | 0.00 | 0.00 | 48 | 1014.4 |
| 20260506155401 | 52 | 288 | 4.0 | 8.0 | 0.00 | 0.00 | 0.00 | 48 | 1014.2 |
| 20260506155312 | 52 | 296 | 4.0 | 8.0 | 0.00 | 0.00 | 0.00 | 50 | 1014.4 |
| 20260506155222 | 51 | 318 | 3.0 | 8.0 | 0.00 | 0.00 | 0.00 | 51 | 1014.3 |
| 20260506155136 | 51 | 232 | 2.0 | 6.0 | 0.00 | 0.00 | 0.00 | 47 | 1014.3 |
| 20260506155004 | 51 | 226 | 3.0 | 6.0 | 0.00 | 0.00 | 0.00 | 48 | 1014.4 |
| 20260506154916 | 51 | 264 | 3.0 | 6.0 | 0.00 | 0.00 | 0.00 | 50 | 1014.3 |
| 20260506154807 | 51 | 246 | 2.0 | 6.0 | 0.00 | 0.00 | 0.00 | 49 | 1014.3 |
| 20260506154716 | 51 | 242 | 2.0 | 6.0 | 0.00 | 0.00 | 0.00 | 50 | 1014.3 |
| 20260506154608 | 51 | 270 | 4.0 | 8.0 | 0.00 | 0.00 | 0.00 | 53 | 1014.3 |
| 20260506154530 | 51 | 291 | 4.0 | 8.0 | 0.00 | 0.00 | 0.00 | 53 | 1014.3 |
| 20260506154419 | 51 | 319 | 0.0 | 9.0 | 0.00 | 0.00 | 0.00 | 46 | 1014.3 |
| 20260506154310 | 51 | 289 | 2.0 | 9.0 | 0.00 | 0.00 | 0.00 | 46 | 1014.3 |
| 20260506154220 | 51 | 289 | 3.0 | 9.0 | 0.00 | 0.00 | 0.00 | 47 | 1014.3 |
| 20260506154113 | 51 | 288 | 3.0 | 10.0 | 0.00 | 0.00 | 0.00 | 49 | 1014.3 |
| 20260506154005 | 51 | 323 | 4.0 | 10.0 | 0.00 | 0.00 | 0.00 | 49 | 1014.4 |
| 20260506153916 | 51 | 301 | 5.0 | 10.0 | 0.00 | 0.00 | 0.00 | 48 | 1014.3 |
| 20260506153807 | 51 | 319 | 6.0 | 10.0 | 0.00 | 0.00 | 0.00 | 48 | 1014.4 |
| 20260506153659 | 51 | 304 | 5.0 | 10.0 | 0.00 | 0.00 | 0.00 | 48 | 1014.4 |
| 20260506153609 | 51 | 290 | 5.0 | 11.0 | 0.00 | 0.00 | 0.00 | 48 | 1014.3 |
| 20260506153520 | 51 | 287 | 4.0 | 11.0 | 0.00 | 0.00 | 0.00 | 47 | 1014.3 |
| 20260506153410 | 51 | 298 | 6.0 | 11.0 | 0.00 | 0.00 | 0.00 | 48 | 1014.3 |
| 20260506153302 | 51 | 298 | 7.0 | 11.0 | 0.00 | 0.00 | 0.00 | 47 | 1014.3 |
| 20260506153215 | 51 | 279 | 5.0 | 11.0 | 0.00 | 0.00 | 0.00 | 47 | 1014.3 |
| 20260506153127 | 51 | 296 | 4.0 | 11.0 | 0.00 | 0.00 | 0.00 | 46 | 1014.3 |
| 20260506153047 | 51 | 294 | 4.0 | 11.0 | 0.00 | 0.00 | 0.00 | 47 | 1014.2 |
| 20260506152915 | 51 | 286 | 5.0 | 11.0 | 0.00 | 0.00 | 0.00 | 47 | 1014.3 |
| 20260506152806 | 51 | 269 | 4.0 | 11.0 | 0.00 | 0.00 | 0.00 | 49 | 1014.3 |
| 20260506152717 | 51 | 306 | 3.0 | 8.0 | 0.00 | 0.00 | 0.00 | 49 | 1014.3 |
| 20260506152609 | 51 | 338 | 4.0 | 8.0 | 0.00 | 0.00 | 0.00 | 50 | 1014.2 |
| 20260506152519 | 51 | 5 | 4.0 | 8.0 | 0.00 | 0.00 | 0.00 | 49 | 1014.2 |
| 20260506152431 | 51 | 325 | 3.0 | 8.0 | 0.00 | 0.00 | 0.00 | 50 | 1014.2 |
| 20260506152300 | 51 | 318 | 2.0 | 5.0 | 0.00 | 0.00 | 0.00 | 49 | 1014.2 |
| 20260506152214 | 51 | 30 | 3.0 | 5.0 | 0.00 | 0.00 | 0.00 | 48 | 1014.1 |
| 20260506152106 | 51 | 13 | 4.0 | 8.0 | 0.00 | 0.00 | 0.00 | 48 | 1014.1 |
| 20260506152017 | 51 | 23 | 3.0 | 8.0 | 0.00 | 0.00 | 0.00 | 50 | 1014.1 |
| 20260506151907 | 51 | 321 | 3.0 | 8.0 | 0.00 | 0.00 | 0.00 | 50 | 1014.1 |
| 20260506151759 | 51 | 286 | 3.0 | 8.0 | 0.00 | 0.00 | 0.00 | 52 | 1014.0 |
| 20260506151710 | 51 | 333 | 3.0 | 8.0 | 0.00 | 0.00 | 0.00 | 52 | 1014.1 |
| 20260506151602 | 51 | 19 | 3.0 | 8.0 | 0.00 | 0.00 | 0.00 | 49 | 1014.0 |
| 20260506151523 | 51 | 5 | 4.0 | 8.0 | 0.00 | 0.00 | 0.00 | 52 | 1014.0 |
| 20260506151413 | 51 | 313 | 5.0 | 8.0 | 0.00 | 0.00 | 0.00 | 48 | 1013.9 |
| 20260506151327 | 51 | 295 | 5.0 | 8.0 | 0.00 | 0.00 | 0.00 | 51 | 1014.0 |
| 20260506151218 | 50 | 295 | 3.0 | 8.0 | 0.00 | 0.00 | 0.00 | 53 | 1014.0 |
| 20260506151129 | 50 | 309 | 2.0 | 4.0 | 0.00 | 0.00 | 0.00 | 50 | 1014.1 |
| 20260506151019 | 50 | 355 | 2.0 | 6.0 | 0.00 | 0.00 | 0.00 | 50 | 1014.1 |
| 20260506150929 | 50 | 56 | 2.0 | 6.0 | 0.00 | 0.00 | 0.00 | 49 | 1014.1 |
| 20260506150819 | 50 | 44 | 2.0 | 6.0 | 0.00 | 0.00 | 0.00 | 52 | 1014.1 |
| 20260506150729 | 50 | 317 | 1.0 | 6.0 | 0.00 | 0.00 | 0.00 | 50 | 1014.0 |
| 20260506150639 | 50 | 317 | 2.0 | 6.0 | 0.00 | 0.00 | 0.00 | 48 | 1014.0 |
| 20260506150508 | 50 | 317 | 3.0 | 6.0 | 0.00 | 0.00 | 0.00 | 50 | 1014.0 |
| 20260506150419 | 50 | 323 | 3.0 | 6.0 | 0.00 | 0.00 | 0.00 | 50 | 1014.1 |
| 20260506150333 | 50 | 340 | 4.0 | 6.0 | 0.00 | 0.00 | 0.00 | 49 | 1014.1 |
| 20260506150220 | 50 | 348 | 3.0 | 6.0 | 0.00 | 0.03 | 0.00 | 50 | 1014.0 |
| 20260506150134 | 50 | 307 | 3.0 | 5.0 | 0.00 | 0.03 | 0.00 | 52 | 1014.0 |
| 20260506150036 | 50 | 338 | 3.0 | 5.0 | 0.00 | 0.03 | 0.00 | 50 | 1014.1 |
| 20260506145905 | 50 | 46 | 2.0 | 5.0 | 0.00 | 0.03 | 0.00 | 50 | 1014.0 |
| 20260506145817 | 50 | 32 | 2.0 | 5.0 | 0.00 | 0.03 | 0.00 | 48 | 1014.1 |
| 20260506145707 | 50 | 355 | 2.0 | 5.0 | 0.00 | 0.03 | 0.00 | 50 | 1014.2 |
| 20260506145558 | 50 | 13 | 2.0 | 5.0 | 0.00 | 0.03 | 0.00 | 48 | 1014.1 |
| 20260506145509 | 50 | 331 | 3.0 | 5.0 | 0.00 | 0.03 | 0.00 | 47 | 1014.2 |
| 20260506145420 | 50 | 350 | 2.0 | 5.0 | 0.00 | 0.03 | 0.00 | 49 | 1014.2 |
| 20260506145308 | 50 | 26 | 3.0 | 5.0 | 0.00 | 0.03 | 0.00 | 49 | 1014.2 |
| 20260506145202 | 50 | 350 | 4.0 | 5.0 | 0.00 | 0.03 | 0.00 | 48 | 1014.2 |
| 20260506145114 | 50 | 329 | 4.0 | 5.0 | 0.00 | 0.03 | 0.00 | 49 | 1014.2 |
| 20260506145005 | 50 | 360 | 3.0 | 5.0 | 0.00 | 0.03 | 0.00 | 48 | 1014.1 |
| 20260506144916 | 50 | 5 | 3.0 | 5.0 | 0.00 | 0.03 | 0.00 | 47 | 1014.1 |
| 20260506144807 | 50 | 30 | 3.0 | 4.0 | 0.00 | 0.03 | 0.00 | 47 | 1014.2 |
| 20260506144658 | 50 | 348 | 1.0 | 6.0 | 0.00 | 0.03 | 0.00 | 50 | 1014.1 |
| 20260506144608 | 50 | 52 | 2.0 | 6.0 | 0.00 | 0.03 | 0.00 | 48 | 1014.1 |
| 20260506144530 | 50 | 277 | 3.0 | 6.0 | 0.00 | 0.03 | 0.00 | 46 | 1014.1 |
| 20260506144401 | 50 | 290 | 2.0 | 6.0 | 0.00 | 0.03 | 0.00 | 46 | 1014.1 |
| 20260506144316 | 50 | 20 | 2.0 | 6.0 | 0.00 | 0.03 | 0.00 | 47 | 1014.0 |
| 20260506144208 | 50 | 20 | 2.0 | 6.0 | 0.00 | 0.03 | 0.00 | 48 | 1014.0 |
| 20260506144119 | 50 | 20 | 3.0 | 6.0 | 0.00 | 0.03 | 0.00 | 48 | 1014.1 |
| 20260506144010 | 50 | 20 | 3.0 | 6.0 | 0.00 | 0.03 | 0.00 | 48 | 1014.0 |
| 20260506143920 | 50 | 360 | 2.0 | 7.0 | 0.00 | 0.03 | 0.00 | 52 | 1014.1 |
| 20260506143831 | 49 | 360 | 1.0 | 4.0 | 0.00 | 0.03 | 0.00 | 48 | 1014.1 |
| 20260506143742 | 49 | 5 | 2.0 | 4.0 | 0.00 | 0.03 | 0.00 | 48 | 1014.1 |
| 20260506143633 | 49 | 5 | 3.0 | 4.0 | 0.00 | 0.03 | 0.00 | 49 | 1014.1 |
| 20260506143521 | 49 | 5 | 2.0 | 4.0 | 0.00 | 0.03 | 0.00 | 49 | 1014.0 |
| 20260506143433 | 49 | 23 | 2.0 | 6.0 | 0.00 | 0.03 | 0.00 | 47 | 1014.0 |
| 20260506143323 | 49 | 23 | 3.0 | 6.0 | 0.00 | 0.03 | 0.00 | 47 | 1014.0 |
| 20260506143210 | 49 | 17 | 3.0 | 6.0 | 0.00 | 0.03 | 0.00 | 47 | 1013.9 |
| 20260506143106 | 49 | 360 | 3.0 | 6.0 | 0.00 | 0.03 | 0.00 | 48 | 1013.9 |
| 20260506143028 | 49 | 350 | 3.0 | 6.0 | 0.00 | 0.03 | 0.00 | 49 | 1013.9 |
| 20260506142919 | 49 | 360 | 3.0 | 6.0 | 0.00 | 0.03 | 0.00 | 47 | 1014.0 |
| 20260506142808 | 49 | 360 | 4.0 | 6.0 | 0.00 | 0.03 | 0.00 | 48 | 1014.0 |
| 20260506142658 | 49 | 347 | 4.0 | 6.0 | 0.00 | 0.03 | 0.00 | 46 | 1014.0 |
| 20260506142609 | 49 | 336 | 4.0 | 6.0 | 0.00 | 0.03 | 0.00 | 49 | 1013.9 |
| 20260506142501 | 49 | 339 | 2.0 | 4.0 | 0.00 | 0.03 | 0.00 | 49 | 1013.9 |
| 20260506142411 | 49 | 355 | 2.0 | 4.0 | 0.00 | 0.03 | 0.00 | 48 | 1013.9 |
| 20260506142301 | 49 | 22 | 2.0 | 4.0 | 0.00 | 0.03 | 0.00 | 50 | 1013.9 |
| 20260506142217 | 49 | 12 | 2.0 | 4.0 | 0.00 | 0.03 | 0.00 | 49 | 1013.9 |
| 20260506142107 | 49 | 350 | 2.0 | 4.0 | 0.00 | 0.03 | 0.00 | 47 | 1013.8 |
| 20260506141958 | 49 | 323 | 1.0 | 5.0 | 0.00 | 0.03 | 0.00 | 47 | 1013.8 |
| 20260506141909 | 49 | 344 | 0.0 | 5.0 | 0.00 | 0.03 | 0.00 | 50 | 1013.7 |
| 20260506141800 | 49 | 344 | 0.0 | 5.0 | 0.00 | 0.03 | 0.00 | 48 | 1013.8 |
| 20260506141713 | 49 | 344 | 0.0 | 5.0 | 0.00 | 0.03 | 0.00 | 48 | 1013.7 |
| 20260506141605 | 49 | 344 | 1.0 | 5.0 | 0.00 | 0.03 | 0.00 | 48 | 1013.6 |
| 20260506141527 | 49 | 344 | 1.0 | 5.0 | 0.00 | 0.03 | 0.00 | 47 | 1013.7 |
| 20260506141400 | 49 | 344 | 2.0 | 5.0 | 0.00 | 0.03 | 0.00 | 47 | 1013.6 |
| 20260506141312 | 50 | 344 | 3.0 | 5.0 | 0.00 | 0.03 | 0.00 | 49 | 1013.6 |
| 20260506141201 | 50 | 344 | 3.0 | 5.0 | 0.00 | 0.03 | 0.00 | 50 | 1013.7 |
| 20260506141112 | 50 | 40 | 2.0 | 5.0 | 0.00 | 0.03 | 0.00 | 51 | 1013.6 |
| 20260506141002 | 50 | 42 | 2.0 | 5.0 | 0.00 | 0.03 | 0.00 | 52 | 1013.5 |
| 20260506140914 | 50 | 41 | 3.0 | 5.0 | 0.00 | 0.03 | 0.00 | 49 | 1013.5 |
| 20260506140803 | 50 | 77 | 3.0 | 6.0 | 0.00 | 0.03 | 0.00 | 52 | 1013.6 |
| 20260506140714 | 50 | 53 | 3.0 | 6.0 | 0.00 | 0.03 | 0.00 | 50 | 1013.6 |
| 20260506140606 | 49 | 49 | 3.0 | 6.0 | 0.00 | 0.03 | 0.00 | 52 | 1013.6 |
| 20260506140520 | 50 | 78 | 2.0 | 6.0 | 0.00 | 0.03 | 0.00 | 53 | 1013.6 |
| 20260506140411 | 49 | 56 | 2.0 | 6.0 | 0.00 | 0.03 | 0.00 | 52 | 1013.5 |
| 20260506140303 | 49 | 69 | 3.0 | 6.0 | 0.00 | 0.03 | 0.00 | 50 | 1013.5 |
| 20260506140211 | 49 | 49 | 3.0 | 6.0 | 0.00 | 0.09 | 0.00 | 50 | 1013.6 |
| 20260506140025 | 49 | 57 | 4.0 | 6.0 | 0.00 | 0.09 | 0.00 | 49 | 1013.5 |
| 20260506135915 | 49 | 53 | 4.0 | 6.0 | 0.00 | 0.09 | 0.00 | 50 | 1013.5 |
| 20260506135825 | 49 | 49 | 3.0 | 6.0 | 0.00 | 0.09 | 0.00 | 50 | 1013.4 |
| 20260506135737 | 49 | 77 | 2.0 | 5.0 | 0.00 | 0.09 | 0.00 | 52 | 1013.5 |
| 20260506135606 | 49 | 61 | 3.0 | 5.0 | 0.00 | 0.09 | 0.00 | 51 | 1013.5 |
| 20260506135501 | 49 | 59 | 3.0 | 5.0 | 0.00 | 0.09 | 0.00 | 50 | 1013.4 |
| 20260506135410 | 49 | 63 | 3.0 | 5.0 | 0.00 | 0.09 | 0.00 | 52 | 1013.4 |
| 20260506135320 | 49 | 83 | 3.0 | 5.0 | 0.00 | 0.09 | 0.00 | 52 | 1013.4 |
| 20260506135231 | 49 | 51 | 3.0 | 5.0 | 0.00 | 0.09 | 0.00 | 53 | 1013.5 |
| 20260506135101 | 49 | 53 | 2.0 | 5.0 | 0.00 | 0.09 | 0.00 | 55 | 1013.4 |
| 20260506135012 | 49 | 35 | 2.0 | 5.0 | 0.00 | 0.09 | 0.00 | 54 | 1013.5 |
| 20260506134923 | 49 | 36 | 3.0 | 5.0 | 0.00 | 0.09 | 0.00 | 51 | 1013.4 |
| 20260506134835 | 49 | 30 | 2.0 | 5.0 | 0.00 | 0.09 | 0.00 | 53 | 1013.4 |
| 20260506134705 | 48 | 24 | 1.0 | 5.0 | 0.00 | 0.09 | 0.00 | 54 | 1013.4 |
| 20260506134617 | 48 | 24 | 2.0 | 6.0 | 0.00 | 0.09 | 0.00 | 53 | 1013.3 |
| 20260506134543 | 48 | 24 | 3.0 | 6.0 | 0.00 | 0.09 | 0.00 | 51 | 1013.3 |
| 20260506134433 | 48 | 47 | 3.0 | 6.0 | 0.00 | 0.09 | 0.00 | 51 | 1013.4 |
| 20260506134344 | 48 | 30 | 4.0 | 8.0 | 0.00 | 0.09 | 0.00 | 51 | 1013.4 |
| 20260506134234 | 48 | 27 | 4.0 | 8.0 | 0.00 | 0.09 | 0.00 | 52 | 1013.4 |
| 20260506134104 | 48 | 355 | 4.0 | 8.0 | 0.00 | 0.09 | 0.00 | 51 | 1013.4 |
| 20260506134017 | 48 | 11 | 4.0 | 8.0 | 0.00 | 0.09 | 0.00 | 52 | 1013.3 |
| 20260506133926 | 48 | 25 | 4.0 | 8.0 | 0.00 | 0.09 | 0.00 | 52 | 1013.3 |
| 20260506133817 | 48 | 342 | 5.0 | 8.0 | 0.00 | 0.09 | 0.00 | 53 | 1013.3 |
| 20260506133707 | 48 | 29 | 5.0 | 8.0 | 0.00 | 0.09 | 0.00 | 53 | 1013.3 |
| 20260506133617 | 48 | 18 | 5.0 | 8.0 | 0.00 | 0.09 | 0.00 | 55 | 1013.3 |
| 20260506133511 | 48 | 348 | 3.0 | 8.0 | 0.00 | 0.09 | 0.00 | 55 | 1013.3 |
| 20260506133422 | 48 | 29 | 1.0 | 5.0 | 0.00 | 0.09 | 0.00 | 56 | 1013.3 |
| 20260506133334 | 48 | 23 | 2.0 | 5.0 | 0.00 | 0.09 | 0.00 | 56 | 1013.3 |
| 20260506133246 | 48 | 23 | 3.0 | 5.0 | 0.00 | 0.09 | 0.00 | 57 | 1013.3 |
| 20260506133155 | 48 | 360 | 3.0 | 5.0 | 0.00 | 0.09 | 0.00 | 57 | 1013.3 |
| 20260506133055 | 48 | 15 | 3.0 | 5.0 | 0.00 | 0.09 | 0.00 | 56 | 1013.2 |
| 20260506132903 | 48 | 25 | 3.0 | 5.0 | 0.00 | 0.09 | 0.00 | 55 | 1013.3 |
| 20260506132815 | 48 | 22 | 3.0 | 5.0 | 0.00 | 0.09 | 0.00 | 57 | 1013.3 |
| 20260506132725 | 48 | 19 | 3.0 | 5.0 | 0.00 | 0.09 | 0.00 | 58 | 1013.2 |
| 20260506132613 | 48 | 21 | 3.0 | 5.0 | 0.00 | 0.09 | 0.00 | 58 | 1013.3 |
| 20260506132505 | 48 | 18 | 3.0 | 5.0 | 0.00 | 0.09 | 0.00 | 56 | 1013.2 |
| 20260506132400 | 48 | 349 | 4.0 | 5.0 | 0.00 | 0.09 | 0.00 | 56 | 1013.2 |
| 20260506132313 | 48 | 20 | 4.0 | 5.0 | 0.00 | 0.09 | 0.00 | 57 | 1013.1 |
| 20260506132203 | 48 | 338 | 3.0 | 5.0 | 0.00 | 0.09 | 0.00 | 59 | 1013.2 |
| 20260506132115 | 48 | 340 | 3.0 | 5.0 | 0.00 | 0.09 | 0.00 | 59 | 1013.1 |
| 20260506132005 | 48 | 25 | 3.0 | 6.0 | 0.00 | 0.09 | 0.00 | 58 | 1013.1 |
| 20260506131915 | 48 | 16 | 3.0 | 6.0 | 0.00 | 0.09 | 0.00 | 58 | 1013.1 |
| 20260506131825 | 48 | 65 | 2.0 | 6.0 | 0.00 | 0.09 | 0.00 | 60 | 1013.1 |
| 20260506131737 | 48 | 34 | 2.0 | 6.0 | 0.00 | 0.09 | 0.00 | 60 | 1013.1 |
| 20260506131607 | 48 | 31 | 3.0 | 6.0 | 0.00 | 0.09 | 0.00 | 59 | 1013.1 |
| 20260506131533 | 48 | 55 | 3.0 | 6.0 | 0.00 | 0.09 | 0.00 | 61 | 1013.1 |
| 20260506131403 | 47 | 47 | 3.0 | 7.0 | 0.00 | 0.09 | 0.00 | 60 | 1012.9 |
| 20260506131313 | 47 | 15 | 3.0 | 7.0 | 0.00 | 0.09 | 0.00 | 58 | 1013.1 |
| 20260506131202 | 47 | 18 | 4.0 | 7.0 | 0.00 | 0.09 | 0.00 | 58 | 1012.9 |
| 20260506131114 | 47 | 55 | 4.0 | 7.0 | 0.00 | 0.09 | 0.00 | 59 | 1013.0 |
| 20260506131006 | 47 | 26 | 4.0 | 7.0 | 0.00 | 0.09 | 0.00 | 61 | 1012.9 |
| 20260506130858 | 47 | 38 | 4.0 | 7.0 | 0.00 | 0.09 | 0.00 | 59 | 1013.0 |
| 20260506130809 | 47 | 49 | 4.0 | 7.0 | 0.00 | 0.09 | 0.00 | 59 | 1012.9 |
| 20260506130704 | 47 | 9 | 5.0 | 7.0 | 0.00 | 0.09 | 0.00 | 58 | 1012.8 |